ftp/pub/palmer/observations_modified/2019/September/original_files/AR190921_BASE.txt
Download
Sample DateTime Unit Id WS Avg 2min WD Avg 2min WGS 10min WGD 10min Air Temp Rel Humidity Dew Point Pyranometer Quantum Air Pressure Snow Level Rainfall PW Current Visibility CBase 1 CBase 2 CBase 3 Vert Vis
2019/09/21 00:00:01 BASE 1.47 347 2.21 360 -2.9 100 -2.9 0 0 967.9 NA 0.0000 -SN BR 9999 820 1570 0 0
2019/09/21 00:01:01 BASE 1.51 350 2.21 360 -2.9 100 -2.9 0 0 967.9 NA 0.0000 -SN 9999 790 1640 0 0
2019/09/21 00:02:01 BASE 1.64 355 2.21 360 -2.9 100 -2.9 0 0 967.9 NA 0.0000 -SN 9999 1610 0 0 0
2019/09/21 00:03:01 BASE 1.89 357 2.37 355 -2.9 100 -2.9 0 0 967.9 NA 0.0000 -SN 9999 1610 0 0 0
2019/09/21 00:04:01 BASE 2.04 1 2.37 355 -2.9 100 -2.9 0 0 967.9 NA 0.0000 -SN 9999 1570 0 0 0
2019/09/21 00:05:01 BASE 2.01 359 2.37 355 -2.9 100 -2.9 0 0 967.9 NA 0.0000 -SN 9999 1570 0 0 0
2019/09/21 00:06:01 BASE 2.11 353 2.52 354 -2.9 100 -2.9 0 0 967.9 NA 0.0000 -SN 9999 1610 0 0 0
2019/09/21 00:07:01 BASE 2.26 356 2.52 354 -2.9 100 -2.9 0 0 967.9 NA 0.0000 9999 1710 0 0 0
2019/09/21 00:08:01 BASE 2.19 356 2.78 344 -2.9 100 -2.9 0 0 967.9 NA 0.0000 9999 1610 0 0 0
2019/09/21 00:09:01 BASE 1.98 355 2.78 344 -2.9 100 -2.9 0 0 967.9 NA 0.0000 9999 1610 0 0 0
2019/09/21 00:10:01 BASE 2.00 353 2.78 344 -3.0 100 -3.0 0 0 967.9 NA 0.0000 9999 1570 0 0 0
2019/09/21 00:11:01 BASE 2.23 345 2.78 344 -3.0 100 -3.0 0 0 967.9 NA 0.0000 9999 980 1640 0 0
2019/09/21 00:12:01 BASE 2.13 341 2.78 344 -3.0 100 -3.0 0 0 967.9 NA 0.0000 9999 850 1710 0 0
2019/09/21 00:13:01 BASE 2.17 339 2.78 344 -3.0 100 -3.0 0 0 967.9 NA 0.0000 9999 820 1640 0 0
2019/09/21 00:14:01 BASE 2.55 340 2.93 341 -3.0 100 -3.0 0 0 967.9 NA 0.0000 9999 920 1610 0 0
2019/09/21 00:15:01 BASE 2.75 342 2.98 342 -3.0 100 -3.0 0 0 967.9 NA 0.0000 9999 950 1640 0 0
2019/09/21 00:16:01 BASE 2.70 345 3.09 346 -2.9 100 -2.9 0 0 967.9 NA 0.0000 9999 920 1570 0 0
2019/09/21 00:17:01 BASE 2.94 348 3.45 345 -2.9 100 -2.9 0 0 967.9 NA 0.0000 9999 890 1610 0 0
2019/09/21 00:18:01 BASE 3.30 350 3.55 351 -2.9 100 -2.9 0 0 967.9 NA 0.0000 9999 850 1570 0 0
2019/09/21 00:19:01 BASE 3.35 351 3.55 351 -2.9 100 -2.9 0 0 968.0 NA 0.0000 9999 850 1610 0 0
2019/09/21 00:20:01 BASE 3.41 352 3.55 351 -2.9 100 -2.9 0 0 968.0 NA 0.0000 9999 850 1570 0 0
2019/09/21 00:21:01 BASE 3.22 350 3.55 351 -2.9 100 -2.9 0 0 968.0 NA 0.0000 9999 820 1540 0 0
2019/09/21 00:22:01 BASE 2.95 347 3.55 351 -2.8 100 -2.8 0 0 968.1 NA 0.0000 9999 820 1510 0 0
2019/09/21 00:23:01 BASE 2.95 343 3.55 351 -2.8 100 -2.8 0 0 968.1 NA 0.0000 9999 820 1510 0 0
2019/09/21 00:24:01 BASE 3.10 346 3.55 353 -2.8 100 -2.8 0 0 968.1 NA 0.0000 9999 790 0 0 0
2019/09/21 00:25:01 BASE 2.96 349 3.55 353 -2.8 100 -2.8 0 0 968.1 NA 0.0000 9999 850 0 0 0
2019/09/21 00:26:01 BASE 2.73 348 3.55 353 -2.9 100 -2.9 0 0 968.1 NA 0.0000 9999 820 1510 0 0
2019/09/21 00:27:01 BASE 2.61 341 3.55 353 -2.9 100 -2.9 0 0 968.1 NA 0.0000 9999 820 1540 0 0
2019/09/21 00:28:01 BASE 2.80 337 3.55 353 -2.9 100 -2.9 0 0 968.1 NA 0.0000 9999 820 1540 0 0
2019/09/21 00:29:01 BASE 2.96 343 3.55 353 -2.9 100 -2.9 0 0 968.1 NA 0.0000 9999 820 1570 0 0
2019/09/21 00:30:01 BASE 2.48 340 3.55 353 -2.9 100 -2.9 0 0 968.1 NA 0.0000 9999 820 0 0 0
2019/09/21 00:31:01 BASE 1.84 328 3.55 353 -2.9 100 -2.9 0 0 968.1 NA 0.0000 9999 790 0 0 0
2019/09/21 00:32:01 BASE 1.46 327 3.55 353 -2.9 100 -2.9 0 0 968.1 NA 0.0000 9999 890 1380 0 0
2019/09/21 00:33:01 BASE 1.37 325 3.55 353 -2.8 100 -2.8 0 0 968.1 NA 0.0000 9999 790 0 0 0
2019/09/21 00:34:01 BASE 1.53 319 3.34 344 -2.8 100 -2.8 0 0 968.1 NA 0.0000 9999 820 0 0 0
2019/09/21 00:35:01 BASE 2.31 322 3.34 344 -2.8 100 -2.8 0 0 968.1 NA 0.0000 9999 820 0 0 0
2019/09/21 00:36:01 BASE 2.58 328 3.34 344 -2.8 100 -2.8 0 0 968.1 NA 0.0000 9999 820 0 0 0
2019/09/21 00:37:01 BASE 2.06 327 3.34 344 -2.8 100 -2.8 0 0 968.1 NA 0.0000 9999 790 0 0 0
2019/09/21 00:38:01 BASE 1.86 325 3.09 323 -2.8 100 -2.8 0 0 968.1 NA 0.0000 9999 790 0 0 0
2019/09/21 00:39:01 BASE 2.11 330 3.09 323 -2.8 100 -2.8 0 0 968.1 NA 0.0000 9999 790 0 0 0
2019/09/21 00:40:01 BASE 2.23 334 3.09 323 -2.8 100 -2.8 0 0 968.1 NA 0.0000 9999 790 0 0 0
2019/09/21 00:41:01 BASE 1.92 332 3.09 323 -2.8 100 -2.8 0 0 968.2 NA 0.0000 9999 750 0 0 0
2019/09/21 00:42:01 BASE 1.56 322 3.09 323 -2.8 100 -2.8 0 0 968.2 NA 0.0000 9999 720 0 0 0
2019/09/21 00:43:00 BASE 1.72 315 3.09 323 -2.8 100 -2.8 0 0 968.2 NA 0.0000 9999 790 0 0 0
2019/09/21 00:44:01 BASE 2.60 316 3.34 318 -2.8 100 -2.8 0 0 968.2 NA 0.0000 9999 820 0 0 0
2019/09/21 00:45:01 BASE 3.20 324 3.81 334 -2.8 100 -2.8 0 0 968.2 NA 0.0000 9999 920 0 0 0
2019/09/21 00:46:01 BASE 3.38 334 3.81 338 -2.7 100 -2.7 0 0 968.2 NA 0.0000 9999 750 0 0 0
2019/09/21 00:47:01 BASE 3.35 334 4.22 326 -2.7 100 -2.7 0 0 968.2 NA 0.0000 9999 750 0 0 0
2019/09/21 00:48:01 BASE 3.53 331 4.27 329 -2.7 100 -2.7 0 0 968.2 NA 0.0000 9999 720 0 0 0
2019/09/21 00:49:01 BASE 3.77 332 4.27 329 -2.7 100 -2.7 0 0 968.2 NA 0.0000 9999 720 0 0 0
2019/09/21 00:50:00 BASE 3.75 337 4.48 336 -2.6 100 -2.6 0 0 968.2 NA 0.0000 9999 690 0 0 0
2019/09/21 00:51:00 BASE 3.70 342 4.48 336 -2.7 100 -2.7 0 0 968.2 NA 0.0000 9999 720 0 0 0
2019/09/21 00:52:01 BASE 3.70 338 4.48 336 -2.7 100 -2.7 0 0 968.2 NA 0.0000 9999 720 0 0 0
2019/09/21 00:53:01 BASE 4.00 335 4.58 341 -2.7 100 -2.7 0 0 968.2 NA 0.0000 9999 690 0 0 0
2019/09/21 00:54:01 BASE 3.93 340 4.58 341 -2.7 100 -2.7 0 0 968.2 NA 0.0000 9999 720 0 0 0
2019/09/21 00:55:00 BASE 4.43 341 5.71 333 -2.7 100 -2.7 0 0 968.2 NA 0.0000 9999 690 0 0 0
2019/09/21 00:56:01 BASE 5.00 339 5.71 333 -2.7 100 -2.7 0 0 968.2 NA 0.0000 9999 660 0 0 0
2019/09/21 00:57:00 BASE 4.84 338 5.71 333 -2.7 100 -2.7 0 0 968.2 NA 0.0000 9999 660 0 0 0
2019/09/21 00:58:01 BASE 4.60 337 5.71 333 -2.7 100 -2.7 0 0 968.2 NA 0.0000 9999 620 0 0 0
2019/09/21 00:59:00 BASE 4.23 327 5.71 333 -2.7 100 -2.7 0 0 968.2 NA 0.0000 9999 620 0 0 0
2019/09/21 01:00:00 BASE 4.31 324 5.71 333 -2.7 100 -2.7 0 0 968.3 NA 0.0000 9999 560 0 0 0
2019/09/21 01:01:00 BASE 4.29 322 5.71 333 -2.7 100 -2.7 0 0 968.3 NA 0.0000 UP 9999 560 0 0 0
2019/09/21 01:02:00 BASE 4.28 308 5.71 333 -2.7 100 -2.7 0 0 968.3 NA 0.0000 UP 9999 560 0 0 0
2019/09/21 01:03:00 BASE 4.59 305 5.71 333 -2.7 100 -2.7 0 0 968.3 NA 0.0000 UP 9999 560 0 0 0
2019/09/21 01:04:01 BASE 5.02 312 5.71 333 -2.8 100 -2.8 0 0 968.3 NA 0.0000 UP 9999 390 0 0 0
2019/09/21 01:05:00 BASE 5.12 320 5.61 314 -2.8 100 -2.8 0 0 968.3 NA 0.0000 UP 9999 390 0 0 0
2019/09/21 01:06:01 BASE 5.14 326 5.61 334 -2.8 100 -2.8 0 0 968.3 NA 0.0000 UP 9999 360 0 0 0
2019/09/21 01:07:00 BASE 5.14 329 5.81 335 -2.8 100 -2.8 0 0 968.3 NA 0.0000 UP 9999 360 0 0 0
2019/09/21 01:08:00 BASE 4.94 329 5.81 335 -2.7 100 -2.7 0 0 968.3 NA 0.0000 UP 9999 330 0 0 0
2019/09/21 01:09:00 BASE 4.94 328 5.81 335 -2.7 100 -2.7 0 0 968.3 NA 0.0000 UP 9999 300 0 0 0
2019/09/21 01:10:00 BASE 4.68 325 5.81 335 -2.7 100 -2.7 0 0 968.3 NA 0.0000 UP 7000 300 0 0 0
2019/09/21 01:11:01 BASE 4.53 322 5.81 335 -2.8 100 -2.8 0 0 968.4 NA 0.0000 UP BR 6000 260 0 0 0
2019/09/21 01:12:00 BASE 4.74 324 5.81 335 -2.8 100 -2.8 0 0 968.4 NA 0.0000 UP BR 6000 260 0 0 0
2019/09/21 01:13:00 BASE 5.15 327 5.81 328 -2.8 100 -2.8 0 0 968.4 NA 0.0000 UP BR 7000 260 0 0 0
2019/09/21 01:14:01 BASE 5.51 330 5.92 333 -2.8 100 -2.8 0 0 968.4 NA 0.0000 UP BR 7000 260 0 0 0
2019/09/21 01:15:00 BASE 5.57 329 5.92 333 -2.8 100 -2.8 0 0 968.4 NA 0.0000 UP BR 7000 260 0 0 0
2019/09/21 01:16:01 BASE 5.99 328 6.94 329 -2.8 100 -2.8 0 0 968.4 NA 0.0000 UP BR 8000 260 0 0 0
2019/09/21 01:17:00 BASE 6.39 329 6.94 329 -2.7 100 -2.7 0 0 968.4 NA 0.0000 UP BR 7000 260 0 0 0
2019/09/21 01:18:01 BASE 6.15 331 6.94 329 -2.7 100 -2.7 0 0 968.4 NA 0.0000 UP BR 8000 0 0 0 1250
2019/09/21 01:19:00 BASE 5.84 335 6.94 329 -2.7 100 -2.7 0 0 968.4 NA 0.0000 UP BR 9000 0 0 0 1210
2019/09/21 01:20:00 BASE 5.87 338 6.94 329 -2.7 100 -2.7 0 0 968.4 NA 0.0000 UP BR 9000 230 0 0 0
2019/09/21 01:21:00 BASE 5.92 341 6.94 329 -2.7 100 -2.7 0 0 968.4 NA 0.0000 UP BR 9999 230 0 0 0
2019/09/21 01:22:01 BASE 5.34 341 6.94 329 -2.7 100 -2.7 0 0 968.4 NA 0.0000 UP BR 9999 260 0 0 0
2019/09/21 01:23:00 BASE 4.93 341 6.94 329 -2.7 100 -2.7 0 0 968.4 NA 0.0000 UP BR 9999 260 0 0 0
2019/09/21 01:24:00 BASE 5.11 344 6.94 329 -2.7 100 -2.7 0 0 968.4 NA 0.0000 UP BR 9999 260 0 0 0
2019/09/21 01:25:00 BASE 5.72 343 6.94 329 -2.7 100 -2.7 0 0 968.4 NA 0.0000 UP BR 9999 260 0 0 0
2019/09/21 01:26:00 BASE 6.02 338 6.69 327 -2.7 100 -2.7 0 0 968.4 NA 0.0000 UP BR 9999 300 0 0 0
2019/09/21 01:27:00 BASE 5.38 335 6.48 338 -2.7 100 -2.7 0 0 968.5 NA 0.0000 UP BR 9999 230 0 0 0
2019/09/21 01:28:01 BASE 4.79 335 6.48 338 -2.7 100 -2.7 0 0 968.5 NA 0.0000 UP BR 9000 260 0 0 0
2019/09/21 01:29:00 BASE 5.13 339 6.48 338 -2.7 100 -2.7 0 0 968.5 NA 0.0000 UP BR 8000 260 0 0 0
2019/09/21 01:30:00 BASE 5.47 339 6.48 338 -2.7 100 -2.7 0 0 968.5 NA 0.0000 UP BR 9999 300 0 0 0
2019/09/21 01:31:00 BASE 5.68 340 6.48 338 -2.7 100 -2.7 0 0 968.5 NA 0.0000 UP BR 9999 300 0 0 0
2019/09/21 01:32:01 BASE 5.88 342 6.48 338 -2.7 100 -2.7 0 0 968.5 NA 0.0000 UP BR 9999 300 0 0 0
2019/09/21 01:33:00 BASE 5.98 343 6.64 343 -2.7 100 -2.7 0 0 968.5 NA 0.0000 UP BR 9999 300 0 0 0
2019/09/21 01:34:01 BASE 6.33 344 6.74 344 -2.7 100 -2.7 0 0 968.5 NA 0.0000 UP BR 9999 300 0 0 0
2019/09/21 01:35:00 BASE 6.38 346 6.74 344 -2.7 100 -2.7 0 0 968.5 NA 0.0000 UP BR 9999 300 0 0 0
2019/09/21 01:36:01 BASE 6.24 348 6.74 344 -2.7 100 -2.7 0 0 968.5 NA 0.0000 UP 9999 300 0 0 0
2019/09/21 01:37:00 BASE 6.06 349 6.74 344 -2.7 100 -2.7 0 0 968.5 NA 0.0000 UP 9999 300 0 0 0
2019/09/21 01:38:01 BASE 6.02 349 6.74 344 -2.7 100 -2.7 0 0 968.5 NA 0.0000 UP 9999 300 0 0 0
2019/09/21 01:39:00 BASE 6.12 348 6.74 344 -2.7 100 -2.7 0 0 968.5 NA 0.0000 UP 9999 300 0 0 0
2019/09/21 01:40:00 BASE 6.24 347 6.74 344 -2.7 100 -2.7 0 0 968.5 NA 0.0000 9999 260 0 0 0
2019/09/21 01:41:00 BASE 6.10 347 6.74 344 -2.7 100 -2.7 0 0 968.5 NA 0.0000 9999 300 0 0 0
2019/09/21 01:42:01 BASE 5.89 348 6.74 344 -2.7 100 -2.7 0 0 968.5 NA 0.0000 9999 300 0 0 0
2019/09/21 01:43:00 BASE 5.81 348 6.74 344 -2.6 100 -2.6 0 0 968.5 NA 0.0000 9999 300 0 0 0
2019/09/21 01:44:01 BASE 5.60 348 6.48 348 -2.6 100 -2.6 0 0 968.5 NA 0.0000 9999 300 0 0 0
2019/09/21 01:45:00 BASE 5.40 348 6.48 348 -2.6 100 -2.6 0 0 968.5 NA 0.0000 9999 300 0 0 0
2019/09/21 01:46:01 BASE 5.27 350 6.48 348 -2.6 100 -2.6 0 0 968.5 NA 0.0000 9999 300 0 0 0
2019/09/21 01:47:00 BASE 5.21 350 6.48 348 -2.6 100 -2.6 0 0 968.5 NA 0.0000 9999 300 0 0 0
2019/09/21 01:48:00 BASE 5.30 348 6.48 348 -2.6 100 -2.6 0 0 968.5 NA 0.0000 9999 300 0 0 0
2019/09/21 01:49:00 BASE 5.40 347 6.48 348 -2.6 100 -2.6 0 0 968.5 NA 0.0000 9999 330 0 0 0
2019/09/21 01:50:00 BASE 5.30 345 6.12 351 -2.6 100 -2.6 0 0 968.6 NA 0.0000 9999 300 0 0 0
2019/09/21 01:51:00 BASE 5.27 343 6.12 351 -2.6 100 -2.6 0 0 968.6 NA 0.0000 9999 300 0 0 0
2019/09/21 01:52:00 BASE 5.13 342 6.02 352 -2.6 100 -2.6 0 0 968.6 NA 0.0000 UP 9999 260 0 0 0
2019/09/21 01:53:00 BASE 4.93 340 5.71 350 -2.6 100 -2.6 0 0 968.6 NA 0.0000 UP 9999 260 0 0 0
2019/09/21 01:54:00 BASE 5.00 339 5.66 344 -2.6 100 -2.6 0 0 968.6 NA 0.0000 UP 9999 260 0 0 0
2019/09/21 01:55:00 BASE 5.18 338 5.66 344 -2.6 100 -2.6 0 0 968.6 NA 0.0000 UP 9999 230 0 0 0
2019/09/21 01:56:00 BASE 5.19 338 5.66 344 -2.6 100 -2.6 0 0 968.6 NA 0.0000 UP 9999 0 0 0 1510
2019/09/21 01:57:00 BASE 5.03 340 5.66 344 -2.6 100 -2.6 0 0 968.6 NA 0.0000 UP 9999 200 0 0 0
2019/09/21 01:58:00 BASE 5.07 341 5.66 344 -2.5 100 -2.5 0 0 968.6 NA 0.0000 UP 9999 0 0 0 1440
2019/09/21 01:59:00 BASE 5.29 340 5.61 341 -2.5 100 -2.5 0 0 968.6 NA 0.0000 UP 9999 0 0 0 2100
2019/09/21 02:00:00 BASE 5.42 340 5.71 343 -2.5 100 -2.5 0 0 968.6 NA 0.0000 UP 9999 0 0 0 2620
2019/09/21 02:01:00 BASE 5.39 339 5.71 343 -2.5 100 -2.5 0 0 968.6 NA 0.0000 UP 9999 0 0 0 1840
2019/09/21 02:02:00 BASE 5.37 336 5.71 343 -2.5 100 -2.5 0 0 968.6 NA 0.0000 UP 9999 0 0 0 1180
2019/09/21 02:03:00 BASE 5.31 336 5.71 343 -2.5 100 -2.5 0 0 968.6 NA 0.0000 UP 9999 0 0 0 1050
2019/09/21 02:04:00 BASE 5.39 337 5.81 336 -2.5 100 -2.5 0 0 968.6 NA 0.0000 UP 9999 230 0 0 0
2019/09/21 02:05:00 BASE 5.48 338 5.86 335 -2.6 100 -2.6 0 0 968.6 NA 0.0000 UP 9999 260 0 0 0
2019/09/21 02:06:00 BASE 5.31 338 5.86 335 -2.6 100 -2.6 0 0 968.6 NA 0.0000 UP 9999 300 0 0 0
2019/09/21 02:07:00 BASE 5.12 337 5.86 335 -2.6 100 -2.6 0 0 968.6 NA 0.0000 UP 9999 300 0 0 0
2019/09/21 02:08:00 BASE 5.07 335 5.86 335 -2.6 100 -2.6 0 0 968.6 NA 0.0000 UP 9999 300 0 0 0
2019/09/21 02:09:00 BASE 5.08 335 5.86 335 -2.6 100 -2.6 0 0 968.6 NA 0.0000 UP 9999 330 0 0 0
2019/09/21 02:10:00 BASE 5.32 336 5.92 334 -2.6 100 -2.6 0 0 968.6 NA 0.0000 UP 9999 360 0 0 0
2019/09/21 02:11:00 BASE 5.37 337 5.92 334 -2.6 100 -2.6 0 0 968.6 NA 0.0000 UP 9999 0 0 0 3710
2019/09/21 02:12:00 BASE 5.25 337 5.92 334 -2.6 100 -2.6 0 0 968.7 NA 0.0000 UP 9999 390 0 0 0
2019/09/21 02:13:00 BASE 5.33 339 5.92 334 -2.6 100 -2.6 0 0 968.7 NA 0.0000 UP 9999 390 0 0 0
2019/09/21 02:14:01 BASE 5.19 340 5.92 334 -2.7 100 -2.7 0 0 968.7 NA 0.0000 UP 9999 360 0 0 0
2019/09/21 02:15:00 BASE 5.01 337 5.92 334 -2.7 100 -2.7 0 0 968.7 NA 0.0000 UP 9999 390 0 0 0
2019/09/21 02:16:01 BASE 4.94 334 5.92 334 -2.7 100 -2.7 0 0 968.7 NA 0.0000 UP 9999 360 0 0 0
2019/09/21 02:17:00 BASE 5.10 334 5.92 334 -2.7 100 -2.7 0 0 968.7 NA 0.0000 UP 9999 390 0 0 0
2019/09/21 02:18:01 BASE 5.12 333 5.92 334 -2.7 100 -2.7 0 0 968.7 NA 0.0000 UP 9999 330 0 0 0
2019/09/21 02:19:00 BASE 4.76 335 5.92 334 -2.7 100 -2.7 0 0 968.7 NA 0.0000 UP 9999 390 0 0 0
2019/09/21 02:20:00 BASE 4.64 336 5.61 331 -2.7 100 -2.7 0 0 968.7 NA 0.0000 UP 9999 390 0 0 0
2019/09/21 02:21:00 BASE 4.49 337 5.61 331 -2.7 100 -2.7 0 0 968.7 NA 0.0000 UP 9999 360 1410 0 0
2019/09/21 02:22:00 BASE 4.30 340 5.61 331 -2.7 100 -2.7 0 0 968.7 NA 0.0000 UP 9999 300 0 0 0
2019/09/21 02:23:01 BASE 4.33 340 5.61 331 -2.7 100 -2.7 0 0 968.7 NA 0.0000 UP 9999 360 1020 0 0
2019/09/21 02:24:01 BASE 4.09 336 5.61 331 -2.6 100 -2.6 0 0 968.7 NA 0.0000 UP 9999 330 0 0 0
2019/09/21 02:25:01 BASE 3.97 333 5.61 331 -2.6 100 -2.6 0 0 968.7 NA 0.0000 UP 9999 390 0 0 0
2019/09/21 02:26:01 BASE 4.05 334 5.61 331 -2.6 100 -2.6 0 0 968.7 NA 0.0000 UP 9999 360 0 0 0
2019/09/21 02:27:00 BASE 4.19 336 5.14 336 -2.6 100 -2.6 0 0 968.7 NA 0.0000 UP 9999 360 0 0 0
2019/09/21 02:28:00 BASE 4.50 336 5.04 333 -2.6 100 -2.6 0 0 968.7 NA 0.0000 UP 9000 390 920 0 0
2019/09/21 02:29:00 BASE 4.39 335 4.99 332 -2.6 100 -2.6 0 0 968.7 NA 0.0000 UP 9999 360 0 0 0
2019/09/21 02:30:00 BASE 4.12 331 4.99 332 -2.5 100 -2.5 0 0 968.7 NA 0.0000 UP 9999 360 0 0 0
2019/09/21 02:31:00 BASE 4.04 329 4.99 332 -2.5 100 -2.5 0 0 968.7 NA 0.0000 UP 9999 330 0 0 0
2019/09/21 02:32:01 BASE 4.02 333 4.99 332 -2.5 100 -2.5 0 0 968.7 NA 0.0000 UP 9999 360 0 0 0
2019/09/21 02:33:00 BASE 4.20 333 4.99 332 -2.5 100 -2.5 0 0 968.7 NA 0.0000 UP 9999 360 0 0 0
2019/09/21 02:34:00 BASE 4.50 330 4.99 332 -2.5 100 -2.5 0 0 968.7 NA 0.0000 UP 9999 330 0 0 0
2019/09/21 02:35:01 BASE 4.71 329 5.35 323 -2.5 100 -2.5 0 0 968.7 NA 0.0000 UP 9999 330 0 0 0
2019/09/21 02:36:01 BASE 4.60 326 5.35 323 -2.5 100 -2.5 0 0 968.7 NA 0.0000 UP 9999 330 0 0 0
2019/09/21 02:37:00 BASE 4.29 325 5.35 323 -2.5 100 -2.5 0 0 968.8 NA 0.0000 UP 9999 300 0 0 0
2019/09/21 02:38:00 BASE 3.66 323 5.35 323 -2.5 100 -2.5 0 0 968.9 NA 0.0000 UP 9999 300 0 0 0
2019/09/21 02:39:00 BASE 2.86 309 5.35 323 -2.4 100 -2.4 0 0 968.9 NA 0.0000 UP 8000 300 0 0 0
2019/09/21 02:40:00 BASE 2.55 301 5.35 323 -2.4 100 -2.4 0 0 968.9 NA 0.0000 UP BR 5000 300 0 0 0
2019/09/21 02:41:00 BASE 2.61 310 5.35 323 -2.4 100 -2.4 0 0 968.9 NA 0.0000 UP BR 5000 330 890 0 0
2019/09/21 02:42:00 BASE 2.61 315 5.35 323 -2.4 100 -2.4 0 0 968.9 NA 0.0000 UP BR 6000 330 1280 0 0
2019/09/21 02:43:00 BASE 2.72 317 5.35 323 -2.4 100 -2.4 0 0 968.9 NA 0.0000 UP BR 9000 360 1210 0 0
2019/09/21 02:44:01 BASE 2.79 317 5.35 323 -2.4 100 -2.4 0 0 968.9 NA 0.0000 UP BR 9999 1120 0 0 0
2019/09/21 02:45:00 BASE 2.97 314 5.14 321 -2.4 100 -2.4 0 0 968.9 NA 0.0000 UP BR 8000 560 0 0 0
2019/09/21 02:46:01 BASE 3.22 308 4.89 328 -2.4 100 -2.4 0 0 968.9 NA 0.0000 UP BR 7000 460 1080 0 0
2019/09/21 02:47:00 BASE 3.12 309 3.91 327 -2.4 100 -2.4 0 0 968.9 NA 0.0000 UP BR 7000 590 1180 0 0
2019/09/21 02:48:01 BASE 3.09 318 3.91 327 -2.4 100 -2.4 0 0 968.9 NA 0.0000 UP BR 7000 560 0 0 0
2019/09/21 02:49:00 BASE 3.24 319 3.91 327 -2.4 100 -2.4 0 0 968.9 NA 0.0000 UP BR 8000 520 0 0 0
2019/09/21 02:50:00 BASE 3.31 319 3.91 327 -2.4 100 -2.4 0 0 968.9 NA 0.0000 UP BR 8000 490 1020 0 0
2019/09/21 02:51:00 BASE 3.45 326 4.12 334 -2.4 100 -2.4 0 0 968.9 NA 0.0000 UP BR 9000 980 0 0 0
2019/09/21 02:52:00 BASE 3.83 326 4.27 314 -2.4 100 -2.4 0 0 968.9 NA 0.0000 UP BR 9999 1020 0 0 0
2019/09/21 02:53:01 BASE 3.83 325 4.27 314 -2.4 100 -2.4 0 0 968.9 NA 0.0000 UP BR 9999 1080 0 0 0
2019/09/21 02:54:01 BASE 3.56 324 4.27 314 -2.4 100 -2.4 0 0 968.9 NA 0.0000 UP BR 9999 430 2530 0 0
2019/09/21 02:55:00 BASE 3.26 315 4.27 314 -2.4 100 -2.4 0 0 968.9 NA 0.0000 UP BR 8000 620 0 0 0
2019/09/21 02:56:00 BASE 2.88 307 4.27 314 -2.4 100 -2.4 0 0 968.9 NA 0.0000 UP BR 6000 430 0 0 0
2019/09/21 02:57:01 BASE 2.79 307 4.27 314 -2.3 100 -2.3 0 0 968.9 NA 0.0000 UP BR 6000 360 0 0 0
2019/09/21 02:58:00 BASE 2.71 311 4.27 314 -2.3 100 -2.3 0 0 968.9 NA 0.0000 UP BR 4700 360 0 0 0
2019/09/21 02:59:00 BASE 2.63 316 4.27 314 -2.3 100 -2.3 0 0 968.9 NA 0.0000 UP BR 3600 0 0 0 2720
2019/09/21 03:00:00 BASE 2.76 318 4.27 314 -2.3 100 -2.3 0 0 968.9 NA 0.0000 UP BR 3100 330 0 0 0
2019/09/21 03:01:00 BASE 2.80 316 4.27 314 -2.3 100 -2.3 0 0 969.0 NA 0.0000 UP BR 4000 360 0 0 0
2019/09/21 03:02:01 BASE 2.58 316 3.76 323 -2.3 100 -2.3 0 0 968.9 NA 0.0000 UP BR 4100 360 0 0 0
2019/09/21 03:03:01 BASE 2.53 317 3.60 320 -2.3 100 -2.3 0 0 968.9 NA 0.0000 UP BR 4100 330 0 0 0
2019/09/21 03:04:01 BASE 2.46 320 3.55 304 -2.3 100 -2.3 0 0 968.9 NA 0.0000 UP BR 3000 300 0 0 0
2019/09/21 03:05:00 BASE 2.35 322 3.24 310 -2.3 100 -2.3 0 0 968.9 NA 0.0000 UP BR 2400 300 0 0 0
2019/09/21 03:06:01 BASE 2.53 319 3.24 310 -2.3 100 -2.3 0 0 969.0 NA 0.0000 -SN BR 2900 300 0 0 0
2019/09/21 03:07:00 BASE 2.80 313 3.24 310 -2.3 100 -2.3 0 0 969.0 NA 0.0000 -SN BR 4500 260 0 0 0
2019/09/21 03:08:00 BASE 2.90 311 3.19 321 -2.3 100 -2.3 0 0 969.0 NA 0.0000 -SN BR 5000 230 0 0 0
2019/09/21 03:09:00 BASE 3.04 314 3.34 319 -2.3 100 -2.3 0 0 969.0 NA 0.0000 -SN BR 4700 230 1410 0 0
2019/09/21 03:10:00 BASE 3.14 316 3.40 319 -2.3 100 -2.3 0 0 969.0 NA 0.0000 -SN BR 5000 230 0 0 0
2019/09/21 03:11:00 BASE 2.89 313 3.40 319 -2.4 100 -2.4 0 0 969.0 NA 0.0000 -SN BR 6000 0 0 0 1970
2019/09/21 03:12:01 BASE 2.69 309 3.40 319 -2.4 100 -2.4 0 0 969.0 NA 0.0000 -SN BR 6000 0 0 0 1770
2019/09/21 03:13:00 BASE 2.61 310 3.40 319 -2.4 100 -2.4 0 0 969.0 NA 0.0000 -SN BR 5000 230 0 0 0
2019/09/21 03:14:00 BASE 2.63 312 3.40 319 -2.3 100 -2.3 0 0 969.0 NA 0.0000 -SN BR 5000 0 0 0 1900
2019/09/21 03:15:00 BASE 2.76 314 3.40 319 -2.3 100 -2.3 0 0 969.0 NA 0.0000 -SN BR 5000 260 1150 0 0
2019/09/21 03:16:01 BASE 2.76 316 3.40 319 -2.3 100 -2.3 0 0 969.0 NA 0.0000 -SN BR 5000 260 1150 0 0
2019/09/21 03:17:00 BASE 2.64 320 3.40 319 -2.3 100 -2.3 0 0 969.1 NA 0.0000 -SN BR 6000 260 1120 0 0
2019/09/21 03:18:01 BASE 2.80 326 3.40 319 -2.3 100 -2.3 0 0 969.1 NA 0.0000 -SN BR 5000 230 0 0 0
2019/09/21 03:19:00 BASE 3.11 330 3.40 319 -2.3 100 -2.3 0 0 969.0 NA 0.0000 -SN BR 4400 200 1210 0 0
2019/09/21 03:20:00 BASE 3.26 331 3.45 328 -2.4 100 -2.4 0 0 969.1 NA 0.0000 -SN BR 3800 0 0 0 2130
2019/09/21 03:21:00 BASE 3.33 331 3.55 330 -2.4 100 -2.4 0 0 969.1 NA 0.0000 -SN BR 4700 260 0 0 0
2019/09/21 03:22:00 BASE 3.44 329 3.65 324 -2.4 100 -2.4 0 0 969.1 NA 0.0000 -SN BR 6000 260 1800 0 0
2019/09/21 03:23:00 BASE 3.39 329 3.65 324 -2.4 100 -2.4 0 0 969.1 NA 0.0000 -SN BR 6000 260 1870 0 0
2019/09/21 03:24:00 BASE 3.45 332 3.81 332 -2.4 100 -2.4 0 0 969.1 NA 0.0000 -SN BR 5000 300 0 0 0
2019/09/21 03:25:00 BASE 3.61 334 3.81 332 -2.5 100 -2.5 0 0 969.1 NA 0.0000 -SN BR 6000 300 0 0 0
2019/09/21 03:26:01 BASE 3.50 336 3.81 332 -2.4 100 -2.4 0 0 969.1 NA 0.0000 -SN BR 5000 260 0 0 0
2019/09/21 03:27:00 BASE 3.40 336 3.81 332 -2.4 100 -2.4 0 0 969.1 NA 0.0000 -SN BR 5000 300 0 0 0
2019/09/21 03:28:00 BASE 3.40 334 3.81 332 -2.4 100 -2.4 0 0 969.1 NA 0.0000 -SN BR 5000 300 1900 0 0
2019/09/21 03:29:00 BASE 3.33 334 3.81 332 -2.4 100 -2.4 0 0 969.1 NA 0.0000 -SN BR 4700 300 0 0 0
2019/09/21 03:30:00 BASE 3.31 335 3.81 332 -2.4 100 -2.4 0 0 969.1 NA 0.0000 -SN BR 5000 300 0 0 0
2019/09/21 03:31:00 BASE 3.31 335 3.81 332 -2.4 100 -2.4 0 0 969.1 NA 0.0000 -SN BR 7000 330 0 0 0
2019/09/21 03:32:00 BASE 3.38 335 3.81 332 -2.4 100 -2.4 0 0 969.1 NA 0.0000 -SN BR 8000 330 1670 0 0
2019/09/21 03:33:00 BASE 3.46 334 3.81 332 -2.4 100 -2.4 0 0 969.1 NA 0.0000 -SN BR 7000 300 0 0 0
2019/09/21 03:34:00 BASE 3.58 328 3.81 320 -2.4 100 -2.4 0 0 969.2 NA 0.0000 -SN BR 6000 260 850 0 0
2019/09/21 03:35:00 BASE 3.73 324 4.01 322 -2.4 100 -2.4 0 0 969.2 NA 0.0000 -SN BR 6000 230 2170 0 0
2019/09/21 03:36:00 BASE 3.79 322 4.01 323 -2.4 100 -2.4 0 0 969.2 NA 0.0000 -SN BR 6000 260 2170 0 0
2019/09/21 03:37:00 BASE 3.73 318 4.01 323 -2.4 100 -2.4 0 0 969.2 NA 0.0000 -SN BR 7000 300 0 0 0
2019/09/21 03:38:00 BASE 3.68 315 4.01 323 -2.4 100 -2.4 0 0 969.2 NA 0.0000 -SN BR 9999 300 950 0 0
2019/09/21 03:39:00 BASE 3.82 311 4.06 306 -2.4 100 -2.4 0 0 969.2 NA 0.0000 -SN BR 8000 200 920 0 0
2019/09/21 03:40:00 BASE 3.97 305 4.12 300 -2.4 100 -2.4 0 0 969.2 NA 0.0000 -SN BR 5000 0 0 0 1710
2019/09/21 03:41:00 BASE 4.02 301 4.12 300 -2.4 100 -2.4 0 0 969.2 NA 0.0000 -SN BR 4600 0 0 0 1610
2019/09/21 03:42:00 BASE 3.95 298 4.12 300 -2.5 100 -2.5 0 0 969.2 NA 0.0000 -SN BR 4200 0 0 0 1640
2019/09/21 03:43:00 BASE 3.91 298 4.12 300 -2.5 100 -2.5 0 0 969.2 NA 0.0000 -SN BR 5000 260 0 0 0
2019/09/21 03:44:00 BASE 4.03 296 4.48 294 -2.5 100 -2.5 0 0 969.2 NA 0.0000 -SN BR 5000 260 0 0 0
2019/09/21 03:45:00 BASE 4.26 293 4.48 290 -2.5 100 -2.5 0 0 969.2 NA 0.0000 -SN BR 5000 0 0 0 1250
2019/09/21 03:46:00 BASE 4.57 290 4.99 289 -2.5 100 -2.5 0 0 969.2 NA 0.0000 -SN BR 4400 0 0 0 1250
2019/09/21 03:47:00 BASE 4.87 289 5.45 287 -2.5 100 -2.5 0 0 969.2 NA 0.0000 -SN BR 4100 0 0 0 1180
2019/09/21 03:48:00 BASE 5.00 288 5.45 287 -2.5 100 -2.5 0 0 969.2 NA 0.0000 -SN BR 3900 0 0 0 1080
2019/09/21 03:49:00 BASE 4.87 287 5.45 287 -2.5 100 -2.5 0 0 969.2 NA 0.0000 -SN BR 3900 0 0 0 1050
2019/09/21 03:50:00 BASE 4.76 287 5.45 287 -2.5 100 -2.5 0 0 969.2 NA 0.0000 -SN BR 4200 0 0 0 1210
2019/09/21 03:51:00 BASE 4.72 288 5.45 287 -2.4 100 -2.4 0 0 969.2 NA 0.0000 -SN BR 4200 0 0 0 1380
2019/09/21 03:52:00 BASE 4.76 288 5.45 287 -2.4 100 -2.4 0 0 969.2 NA 0.0000 -SN BR 3700 0 0 0 1150
2019/09/21 03:53:00 BASE 4.69 286 5.45 287 -2.4 100 -2.4 0 0 969.2 NA 0.0000 -SN BR 3100 0 0 0 1050
2019/09/21 03:54:00 BASE 4.60 282 5.71 277 -2.4 100 -2.4 0 0 969.3 NA 0.0000 -SN BR 3300 0 0 0 950
2019/09/21 03:55:00 BASE 4.56 275 5.71 277 -2.4 100 -2.4 0 0 969.3 NA 0.0000 -SN BR 3200 0 0 0 920
2019/09/21 03:56:00 BASE 4.70 273 5.92 287 -2.4 100 -2.4 0 0 969.3 NA 0.0000 -SN BR 2700 0 0 0 980
2019/09/21 03:57:00 BASE 5.52 270 7.51 267 -2.4 100 -2.4 0 0 969.3 NA 0.0000 -SN BR 3100 0 0 0 1020
2019/09/21 03:58:00 BASE 5.62 264 7.51 267 -2.4 100 -2.4 0 0 969.3 NA 0.0000 -SN BR 3300 0 0 0 1120
2019/09/21 03:59:00 BASE 6.09 258 8.39 248 -2.4 100 -2.4 0 0 969.3 NA 0.0000 -SN BR 3500 0 0 0 1250
2019/09/21 04:00:00 BASE 7.15 251 8.39 248 -2.5 100 -2.5 0 0 969.3 NA 0.0000 -SN BR 3500 0 0 0 1250
2019/09/21 04:03:00 BASE 5.79 253 8.39 248 -2.5 100 -2.5 0 0 969.3 NA 0.0000 -SN BR 2900 0 0 0 1410
2019/09/21 04:04:00 BASE 5.06 255 8.39 248 -2.6 100 -2.6 0 0 969.3 NA 0.0000 -SN BR 3000 0 0 0 1740
2019/09/21 04:05:00 BASE 5.11 258 8.39 248 -2.6 100 -2.6 0 0 969.4 NA 0.0000 -SN BR 3100 0 0 0 1710
2019/09/21 04:06:00 BASE 5.20 255 8.39 248 -2.6 100 -2.6 0 0 969.4 NA 0.0000 -SN BR 3600 0 0 0 1640
2019/09/21 04:07:00 BASE 5.58 256 8.39 248 -2.6 100 -2.6 0 0 969.4 NA 0.0000 -SN BR 3700 260 0 0 0
2019/09/21 04:08:00 BASE 5.80 256 8.39 248 -2.6 100 -2.6 0 0 969.5 NA 0.0000 -SN BR 3500 230 0 0 0
2019/09/21 04:09:00 BASE 5.03 260 8.39 248 -2.6 100 -2.6 0 0 969.5 NA 0.0000 -SN BR 3600 0 0 0 1310
2019/09/21 04:10:00 BASE 3.97 267 8.39 248 -2.6 100 -2.6 0 0 969.5 NA 0.0000 -SN BR 2700 0 0 0 1120
2019/09/21 04:11:00 BASE 4.08 268 7.56 247 -2.6 100 -2.6 0 0 969.5 NA 0.0000 -SN BR 2400 0 0 0 1120
2019/09/21 04:12:00 BASE 4.73 262 6.69 266 -2.7 100 -2.7 0 0 969.5 NA 0.0000 -SN BR 2800 0 0 0 1180
2019/09/21 04:13:00 BASE 4.87 259 6.69 266 -2.7 100 -2.7 0 0 969.5 NA 0.0000 -SN BR 3400 0 0 0 1180
2019/09/21 04:14:00 BASE 4.34 266 6.69 266 -2.7 100 -2.7 0 0 969.5 NA 0.0000 -SN BR 3300 0 0 0 1250
2019/09/21 04:15:00 BASE 4.38 268 6.69 266 -2.7 100 -2.7 0 0 969.5 NA 0.0000 -SN BR 3600 0 0 0 1210
2019/09/21 04:16:00 BASE 5.25 266 6.84 270 -2.7 100 -2.7 0 0 969.5 NA 0.0000 -SN BR 3700 0 0 0 1250
2019/09/21 04:17:00 BASE 5.48 271 6.84 270 -2.7 100 -2.7 0 0 969.5 NA 0.0000 -SN BR 3400 0 0 0 1250
2019/09/21 04:18:00 BASE 5.21 273 6.84 270 -2.7 100 -2.7 0 0 969.5 NA 0.0000 -SN BR 3400 0 0 0 1280
2019/09/21 04:19:00 BASE 4.75 270 6.84 270 -2.7 100 -2.7 0 0 969.5 NA 0.0000 -SN BR 3000 0 0 0 1250
2019/09/21 04:20:00 BASE 4.30 269 6.84 270 -2.7 100 -2.7 0 0 969.5 NA 0.0000 -SN BR 3300 0 0 0 1440
2019/09/21 04:21:00 BASE 4.37 270 6.84 270 -2.7 100 -2.7 0 0 969.5 NA 0.0000 -SN BR 2900 0 0 0 1440
2019/09/21 04:22:00 BASE 4.38 274 6.84 270 -2.7 100 -2.7 0 0 969.6 NA 0.0000 -SN BR 2600 0 0 0 1480
2019/09/21 04:23:00 BASE 4.62 273 6.84 270 -2.7 100 -2.7 0 0 969.6 NA 0.0000 -SN BR 2700 0 0 0 1480
2019/09/21 04:24:00 BASE 4.60 271 6.84 270 -2.7 100 -2.7 0 0 969.6 NA 0.0000 -SN BR 2500 0 0 0 1440
2019/09/21 04:25:00 BASE 4.17 272 6.84 270 -2.7 100 -2.7 0 0 969.6 NA 0.0000 -SN BR 2400 0 0 0 1440
2019/09/21 04:26:00 BASE 4.61 272 6.58 266 -2.7 100 -2.7 0 0 969.6 NA 0.0000 -SN BR 3100 0 0 0 1410
2019/09/21 04:27:00 BASE 4.51 271 6.48 269 -2.7 100 -2.7 0 0 969.6 NA 0.0000 -SN BR 2200 0 0 0 1380
2019/09/21 04:28:00 BASE 4.24 271 6.48 274 -2.7 100 -2.7 0 0 969.6 NA 0.0000 -SN BR 2100 0 0 0 1410
2019/09/21 04:29:00 BASE 4.16 276 6.48 274 -2.7 100 -2.7 0 0 969.7 NA 0.0000 -SN BR 2200 0 0 0 1480
2019/09/21 04:30:00 BASE 3.84 278 6.48 274 -2.7 100 -2.7 0 0 969.7 NA 0.0000 -SN BR 3300 0 0 0 1440
2019/09/21 04:31:00 BASE 3.49 273 6.48 274 -2.7 100 -2.7 0 0 969.7 NA 0.0000 -SN BR 3200 0 0 0 1480
2019/09/21 04:32:00 BASE 3.35 272 6.48 274 -2.7 100 -2.7 0 0 969.7 NA 0.0000 -SN BR 2800 0 0 0 1410
2019/09/21 04:33:00 BASE 3.83 273 6.48 274 -2.7 100 -2.7 0 0 969.7 NA 0.0000 -SN BR 3600 0 0 0 1380
2019/09/21 04:34:00 BASE 4.09 274 6.48 274 -2.8 100 -2.8 0 0 969.7 NA 0.0000 -SN BR 2900 0 0 0 1310
2019/09/21 04:35:00 BASE 4.23 282 6.48 274 -2.7 100 -2.7 0 0 969.7 NA 0.0000 -SN BR 2500 0 0 0 1380
2019/09/21 04:36:00 BASE 3.89 283 6.48 274 -2.7 100 -2.7 0 0 969.7 NA 0.0000 -SN BR 3300 0 0 0 1350
2019/09/21 04:37:00 BASE 3.11 285 6.48 274 -2.7 100 -2.7 0 0 969.7 NA 0.0000 -SN BR 2700 0 0 0 1380
2019/09/21 04:38:00 BASE 3.05 288 6.22 260 -2.7 100 -2.7 0 0 969.7 NA 0.0000 -SN BR 2600 0 0 0 1380
2019/09/21 04:39:00 BASE 3.30 288 6.22 260 -2.7 100 -2.7 0 0 969.7 NA 0.0000 -SN BR 2900 0 0 0 1310
2019/09/21 04:40:00 BASE 2.86 293 6.22 260 -2.7 100 -2.7 0 0 969.8 NA 0.0000 -SN BR 3100 0 0 0 1180
2019/09/21 04:41:00 BASE 2.50 291 6.22 260 -2.8 100 -2.8 0 0 969.7 NA 0.0000 -SN BR 3300 260 0 0 0
2019/09/21 04:42:00 BASE 2.63 284 6.22 260 -2.8 100 -2.8 0 0 969.7 NA 0.0000 -SN BR 3100 0 0 0 1250
2019/09/21 04:43:00 BASE 2.47 291 5.56 290 -2.8 100 -2.8 0 0 969.7 NA 0.0000 -SN BR 3500 0 0 0 1080
2019/09/21 04:44:00 BASE 2.51 300 5.56 290 -2.8 100 -2.8 0 0 969.7 NA 0.0000 -SN BR 3000 0 0 0 950
2019/09/21 04:45:00 BASE 2.48 304 4.37 279 -2.8 100 -2.8 0 0 969.8 NA 0.0000 -SN BR 3100 0 0 0 920
2019/09/21 04:46:00 BASE 2.16 313 4.01 271 -2.8 100 -2.8 0 0 969.8 NA 0.0000 -SN BR 2500 0 0 0 950
2019/09/21 04:47:00 BASE 2.16 313 4.01 271 -2.8 100 -2.8 0 0 969.8 NA 0.0000 -SN BR 2500 0 0 0 890
2019/09/21 04:48:01 BASE 2.34 304 3.96 284 -2.8 100 -2.8 0 0 969.8 NA 0.0000 -SN BR 2500 0 0 0 980
2019/09/21 04:49:00 BASE 1.97 308 3.76 273 -2.8 100 -2.8 0 0 969.8 NA 0.0000 -SN BR 2900 260 0 0 0
2019/09/21 04:50:00 BASE 1.62 327 3.76 273 -2.8 100 -2.8 0 0 969.8 NA 0.0000 -SN BR 3000 300 0 0 0
2019/09/21 04:51:00 BASE 2.02 330 3.76 273 -2.8 100 -2.8 0 0 969.8 NA 0.0000 -SN BR 2600 300 0 0 0
2019/09/21 04:52:00 BASE 2.45 299 3.70 263 -2.8 100 -2.8 0 0 969.8 NA 0.0000 -SN BR 2800 300 0 0 0
2019/09/21 04:53:00 BASE 2.44 277 3.81 265 -2.8 100 -2.8 0 0 969.8 NA 0.0000 -SN BR 3700 300 0 0 0
2019/09/21 04:54:00 BASE 1.57 285 3.81 265 -2.8 100 -2.8 0 0 969.8 NA 0.0000 -SN BR 3200 300 0 0 0
2019/09/21 04:55:00 BASE 1.47 284 3.81 265 -2.8 100 -2.8 0 0 969.8 NA 0.0000 -SN BR 2300 300 0 0 0
2019/09/21 04:56:00 BASE 2.46 274 3.81 269 -2.8 100 -2.8 0 0 969.8 NA 0.0000 -SN BR 3500 260 0 0 0
2019/09/21 04:57:00 BASE 2.75 281 3.81 269 -2.8 100 -2.8 0 0 969.8 NA 0.0000 -SN BR 2900 260 0 0 0
2019/09/21 04:58:00 BASE 3.22 285 5.04 280 -2.8 100 -2.8 0 0 969.8 NA 0.0000 -SN BR 3500 260 0 0 0
2019/09/21 04:59:00 BASE 3.80 277 5.04 280 -2.8 100 -2.8 0 0 969.8 NA 0.0000 -SN BR 3500 260 0 0 0
2019/09/21 05:00:00 BASE 4.37 274 5.45 267 -2.8 100 -2.8 0 0 969.8 NA 0.0000 -SN BR 3500 260 0 0 0
2019/09/21 05:01:00 BASE 4.65 273 6.94 272 -2.8 100 -2.8 0 0 969.8 NA 0.0000 -SN BR 3400 230 0 0 0
2019/09/21 05:02:01 BASE 5.04 274 6.94 280 -2.8 100 -2.8 0 0 969.8 NA 0.0000 -SN BR 3700 260 0 0 0
2019/09/21 05:03:00 BASE 5.85 272 7.20 263 -2.8 100 -2.8 0 0 969.8 NA 0.0000 -SN BR 3900 260 0 0 0
2019/09/21 05:04:00 BASE 5.60 269 7.20 263 -2.8 100 -2.8 0 0 969.8 NA 0.0000 -SN BR 5000 260 0 0 0
2019/09/21 05:05:00 BASE 4.56 265 7.20 263 -2.8 100 -2.8 0 0 969.8 NA 0.0000 -SN BR 4000 260 0 0 0
2019/09/21 05:06:00 BASE 4.08 260 7.20 263 -2.8 100 -2.8 0 0 969.8 NA 0.0000 -SN BR 4300 300 0 0 0
2019/09/21 05:07:00 BASE 3.84 263 7.20 263 -2.8 100 -2.8 0 0 969.8 NA 0.0000 -SN BR 4100 330 0 0 0
2019/09/21 05:08:01 BASE 3.83 266 7.20 263 -2.9 100 -2.9 0 0 969.8 NA 0.0000 -SN BR 3700 330 0 0 0
2019/09/21 05:09:00 BASE 5.13 266 7.20 263 -2.9 100 -2.9 0 0 969.8 NA 0.0000 -SN BR 4100 300 0 0 0
2019/09/21 05:10:00 BASE 5.75 261 7.20 263 -2.9 100 -2.9 0 0 969.8 NA 0.0000 -SN BR 6000 330 0 0 0
2019/09/21 05:11:00 BASE 4.39 265 7.20 263 -2.9 100 -2.9 0 0 969.8 NA 0.0000 -SN BR 4600 330 0 0 0
2019/09/21 05:12:00 BASE 3.97 272 7.20 263 -2.9 100 -2.9 0 0 969.8 NA 0.0000 -SN BR 4500 300 0 0 0
2019/09/21 05:13:00 BASE 4.37 275 7.00 247 -2.9 100 -2.9 0 0 969.9 NA 0.0000 -SN BR 4900 300 0 0 0
2019/09/21 05:14:00 BASE 3.74 273 7.00 247 -2.9 100 -2.9 0 0 969.9 NA 0.0000 -SN BR 4500 330 0 0 0
2019/09/21 05:15:00 BASE 3.66 267 7.00 247 -2.9 100 -2.9 0 0 969.9 NA 0.0000 -SN BR 7000 330 0 0 0
2019/09/21 05:16:00 BASE 4.30 270 7.00 247 -2.9 100 -2.9 0 0 969.9 NA 0.0000 -SN BR 8000 330 0 0 0
2019/09/21 05:17:00 BASE 5.19 269 7.00 247 -2.9 100 -2.9 0 0 969.9 NA 0.0000 -SN BR 9999 360 0 0 0
2019/09/21 05:18:00 BASE 6.57 261 8.64 250 -2.9 100 -2.9 0 0 969.9 NA 0.0000 -SN BR 9999 330 0 0 0
2019/09/21 05:19:00 BASE 7.00 261 8.64 250 -2.9 100 -2.9 0 0 969.9 NA 0.0000 -SN BR 9000 330 0 0 0
2019/09/21 05:20:00 BASE 5.84 266 8.64 250 -2.9 100 -2.9 0 0 969.9 NA 0.0000 -SN BR 7000 330 0 0 0
2019/09/21 05:21:00 BASE 4.93 269 8.64 250 -2.9 100 -2.9 0 0 969.9 NA 0.0000 -SN BR 7000 300 1640 0 0
2019/09/21 05:22:00 BASE 5.41 273 8.64 250 -2.9 100 -2.9 0 0 969.9 NA 0.0000 -SN BR 8000 300 0 0 0
2019/09/21 05:23:00 BASE 5.93 275 8.64 250 -2.9 100 -2.9 0 0 969.9 NA 0.0000 -SN BR 9000 260 0 0 0
2019/09/21 05:24:00 BASE 5.55 282 8.64 250 -2.9 100 -2.9 0 0 970.0 NA 0.0000 -SN BR 8000 230 0 0 0
2019/09/21 05:25:00 BASE 5.38 294 8.64 250 -2.9 100 -2.9 0 0 970.0 NA 0.0000 -SN BR 7000 0 0 0 850
2019/09/21 05:26:00 BASE 6.68 292 9.77 287 -2.9 100 -2.9 0 0 969.9 NA 0.0000 -SN BR 7000 0 0 0 820
2019/09/21 05:27:00 BASE 7.90 281 9.98 272 -2.9 100 -2.9 0 0 970.0 NA 0.0000 -SN BR 7000 0 0 0 980
2019/09/21 05:28:01 BASE 7.31 279 9.98 272 -2.9 100 -2.9 0 0 970.0 NA 0.0000 -SN BR 6000 0 0 0 1080
2019/09/21 05:29:01 BASE 6.11 286 9.98 272 -2.9 100 -2.9 0 0 970.1 NA 0.0000 -SN BR 7000 0 0 0 1210
2019/09/21 05:30:01 BASE 7.14 290 9.98 290 -3.0 100 -3.0 0 0 970.0 NA 0.0000 -SN BR 7000 0 0 0 790
2019/09/21 05:31:01 BASE 8.73 292 9.98 290 -3.0 100 -3.0 0 0 970.1 NA 0.0000 -SN BR 5000 0 0 0 850
2019/09/21 05:32:01 BASE 8.12 296 9.98 290 -3.1 100 -3.1 0 0 970.1 NA 0.0000 -SN BR 6000 0 0 0 1250
2019/09/21 05:33:01 BASE 8.29 298 10.60 294 -3.1 100 -3.1 0 0 970.1 NA 0.0000 -SN BR 7000 0 0 0 920
2019/09/21 05:34:01 BASE 8.54 296 10.60 294 -3.2 100 -3.2 0 0 970.1 NA 0.0000 -SN BR 5000 0 0 0 920
2019/09/21 05:35:01 BASE 8.01 299 10.60 294 -3.2 100 -3.2 0 0 970.1 NA 0.0000 -SN BR 5000 0 0 0 980
2019/09/21 05:36:01 BASE 8.28 299 10.60 294 -3.3 100 -3.3 0 0 970.1 NA 0.0000 -SN BR 6000 0 0 0 1080
2019/09/21 05:37:01 BASE 8.41 299 10.60 294 -3.3 100 -3.3 0 0 970.1 NA 0.0000 -SN BR 5000 0 0 0 1280
2019/09/21 05:38:01 BASE 8.41 300 10.60 294 -3.3 100 -3.3 0 0 970.1 NA 0.0000 -SN BR 5000 0 0 0 1410
2019/09/21 05:39:01 BASE 8.39 302 10.60 294 -3.4 100 -3.4 0 0 970.1 NA 0.0000 -SN BR 6000 0 0 0 1540
2019/09/21 05:40:01 BASE 7.88 304 10.60 294 -3.4 100 -3.4 0 0 970.2 NA 0.0000 -SN BR 5000 0 0 0 1510
2019/09/21 05:41:01 BASE 7.22 307 10.60 294 -3.4 100 -3.4 0 0 970.2 NA 0.0000 -SN BR 4500 0 0 0 1440
2019/09/21 05:42:01 BASE 6.66 312 10.60 294 -3.4 100 -3.4 0 0 970.2 NA 0.0000 -SN BR 3900 0 0 0 1440
2019/09/21 05:43:01 BASE 5.97 319 9.67 300 -3.4 100 -3.4 0 0 970.2 NA 0.0000 -SN BR 4000 0 0 0 1250
2019/09/21 05:44:01 BASE 5.96 324 9.67 300 -3.3 100 -3.3 0 0 970.2 NA 0.0000 -SN BR 4500 0 0 0 1210
2019/09/21 05:45:01 BASE 6.01 323 9.52 301 -3.3 100 -3.3 0 0 970.3 NA 0.0000 -SN BR 4800 0 0 0 980
2019/09/21 05:46:01 BASE 5.93 320 9.26 293 -3.3 100 -3.3 0 0 970.3 NA 0.0000 -SN BR 4800 0 0 0 850
2019/09/21 05:47:01 BASE 6.71 320 9.26 293 -3.3 100 -3.3 0 0 970.3 NA 0.0000 -SN BR 5000 0 0 0 890
2019/09/21 05:48:01 BASE 7.00 322 9.16 306 -3.3 100 -3.3 0 0 970.3 NA 0.0000 -SN BR 5000 0 0 0 890
2019/09/21 05:49:01 BASE 6.76 326 8.08 316 -3.3 100 -3.3 0 0 970.3 NA 0.0000 -SN BR 6000 0 0 0 1020
2019/09/21 05:50:00 BASE 6.77 334 8.08 316 -3.3 100 -3.3 0 0 970.3 NA 0.0000 -SN BR 5000 0 0 0 980
2019/09/21 05:51:00 BASE 6.62 340 8.08 316 -3.3 100 -3.3 0 0 970.3 NA 0.0000 -SN BR 4300 0 0 0 920
2019/09/21 05:52:00 BASE 6.45 341 8.08 316 -3.3 100 -3.3 0 0 970.3 NA 0.0000 -SN BR 3900 0 0 0 890
2019/09/21 05:53:00 BASE 6.68 338 8.08 316 -3.3 100 -3.3 0 0 970.3 NA 0.0000 -SN BR 4300 0 0 0 850
2019/09/21 05:54:01 BASE 6.97 335 8.08 316 -3.3 100 -3.3 0 0 970.4 NA 0.0000 -SN BR 4700 0 0 0 920
2019/09/21 05:55:01 BASE 7.22 334 8.39 336 -3.3 100 -3.3 0 0 970.3 NA 0.0000 -SN BR 4800 0 0 0 850
2019/09/21 05:56:01 BASE 6.99 338 8.39 336 -3.3 100 -3.3 0 0 970.4 NA 0.0000 -SN BR 5000 0 0 0 850
2019/09/21 05:57:00 BASE 6.70 340 8.39 336 -3.3 100 -3.3 0 0 970.4 NA 0.0000 -SN BR 5000 0 0 0 850
2019/09/21 05:58:01 BASE 7.03 340 8.39 336 -3.3 100 -3.3 0 0 970.4 NA 0.0000 -SN BR 4800 0 0 0 820
2019/09/21 05:59:01 BASE 6.87 341 8.39 336 -3.3 100 -3.3 0 0 970.4 NA 0.0000 -SN BR 4400 0 0 0 890
2019/09/21 06:00:01 BASE 6.48 342 8.39 336 -3.3 100 -3.3 0 0 970.4 NA 0.0000 -SN BR 4700 0 0 0 850
2019/09/21 06:01:00 BASE 6.38 345 8.39 336 -3.3 100 -3.3 0 0 970.4 NA 0.0000 -SN BR 3700 0 0 0 820
2019/09/21 06:02:01 BASE 6.40 347 8.39 336 -3.3 100 -3.3 0 0 970.4 NA 0.0000 -SN BR 3900 0 0 0 790
2019/09/21 06:03:00 BASE 6.89 347 8.39 336 -3.3 100 -3.3 0 0 970.4 NA 0.0000 -SN BR 6000 0 0 0 820
2019/09/21 06:04:01 BASE 6.94 346 8.39 336 -3.3 100 -3.3 0 0 970.4 NA 0.0000 -SN BR 9999 0 0 0 820
2019/09/21 06:05:00 BASE 6.64 346 8.33 340 -3.3 100 -3.3 0 0 970.4 NA 0.0000 -SN BR 9999 0 0 0 890
2019/09/21 06:06:00 BASE 6.55 343 8.33 340 -3.3 100 -3.3 0 0 970.4 NA 0.0000 -SN BR 9999 0 0 0 850
2019/09/21 06:07:00 BASE 7.10 338 8.49 331 -3.3 100 -3.3 0 0 970.4 NA 0.0000 -SN BR 9999 0 0 0 890
2019/09/21 06:08:01 BASE 7.29 335 8.49 331 -3.3 100 -3.3 0 0 970.4 NA 0.0000 -SN BR 9000 0 0 0 920
2019/09/21 06:09:00 BASE 6.60 340 8.49 331 -3.3 100 -3.3 0 0 970.4 NA 0.0000 -SN BR 9999 0 0 0 890
2019/09/21 06:10:00 BASE 6.53 343 8.49 331 -3.3 100 -3.3 0 0 970.4 NA 0.0000 -SN BR 8000 0 0 0 920
2019/09/21 06:11:00 BASE 6.71 341 8.49 331 -3.3 100 -3.3 0 0 970.4 NA 0.0000 -SN BR 8000 0 0 0 950
2019/09/21 06:12:01 BASE 6.56 342 8.49 331 -3.3 100 -3.3 0 0 970.4 NA 0.0000 -SN BR 6000 0 0 0 980
2019/09/21 06:13:00 BASE 6.40 343 8.49 331 -3.3 100 -3.3 0 0 970.4 NA 0.0000 -SN BR 6000 0 0 0 1020
2019/09/21 06:14:01 BASE 6.47 341 8.49 331 -3.3 100 -3.3 0 0 970.4 NA 0.0000 -SN BR 6000 0 0 0 1020
2019/09/21 06:15:00 BASE 6.61 341 8.49 331 -3.3 100 -3.3 0 0 970.4 NA 0.0000 -SN BR 8000 0 0 0 1020
2019/09/21 06:16:01 BASE 6.39 341 8.49 331 -3.3 100 -3.3 0 0 970.5 NA 0.0000 -SN BR 6000 0 0 0 1080
2019/09/21 06:17:00 BASE 6.27 342 8.03 335 -3.3 100 -3.3 0 0 970.5 NA 0.0000 -SN BR 5000 0 0 0 1020
2019/09/21 06:18:01 BASE 6.71 340 7.82 327 -3.3 100 -3.3 0 0 970.5 NA 0.0000 -SN BR 5000 0 0 0 1050
2019/09/21 06:19:00 BASE 6.56 336 7.82 327 -3.3 100 -3.3 0 0 970.6 NA 0.0000 -SN BR 5000 0 0 0 980
2019/09/21 06:20:00 BASE 6.31 335 7.82 327 -3.3 100 -3.3 0 0 970.6 NA 0.0000 -SN BR 4800 0 0 0 1020
2019/09/21 06:21:01 BASE 6.42 338 7.82 327 -3.2 100 -3.2 0 0 970.6 NA 0.0000 -SN BR 5000 0 0 0 1080
2019/09/21 06:22:01 BASE 6.36 340 7.82 327 -3.2 100 -3.2 0 0 970.6 NA 0.0000 -SN BR 6000 0 0 0 1120
2019/09/21 06:23:00 BASE 6.21 339 7.82 327 -3.2 100 -3.2 0 0 970.6 NA 0.0000 -SN BR 7000 0 0 0 1180
2019/09/21 06:24:01 BASE 6.24 340 7.82 327 -3.2 100 -3.2 0 0 970.6 NA 0.0000 -SN BR 5000 0 0 0 1250
2019/09/21 06:25:00 BASE 6.16 340 7.82 327 -3.2 100 -3.2 0 0 970.6 NA 0.0000 -SN BR 6000 0 0 0 1410
2019/09/21 06:26:01 BASE 5.94 341 7.82 327 -3.2 100 -3.2 0 0 970.6 NA 0.0000 -SN BR 5000 0 0 0 1180
2019/09/21 06:27:01 BASE 5.87 340 7.82 327 -3.2 100 -3.2 0 0 970.6 NA 0.0000 -SN BR 6000 0 0 0 1150
2019/09/21 06:28:01 BASE 5.73 340 7.15 336 -3.2 100 -3.2 0 0 970.6 NA 0.0000 -SN BR 6000 0 0 0 1210
2019/09/21 06:29:00 BASE 6.07 338 7.15 336 -3.2 100 -3.2 0 0 970.6 NA 0.0000 -SN BR 5000 0 0 0 1080
2019/09/21 06:30:00 BASE 6.25 332 6.79 330 -3.2 100 -3.2 0 0 970.6 NA 0.0000 -SN BR 6000 0 0 0 1050
2019/09/21 06:31:00 BASE 5.68 331 6.79 330 -3.2 100 -3.2 0 0 970.6 NA 0.0000 -SN BR 8000 0 0 0 1180
2019/09/21 06:32:01 BASE 5.23 334 6.79 330 -3.2 100 -3.2 0 0 970.6 NA 0.0000 -SN BR 5000 0 0 0 1350
2019/09/21 06:33:00 BASE 5.53 338 6.79 330 -3.2 100 -3.2 0 0 970.6 NA 0.0000 -SN BR 3600 0 0 0 1610
2019/09/21 06:34:01 BASE 5.97 336 6.79 330 -3.2 100 -3.2 0 0 970.6 NA 0.0000 -SN BR 4500 0 0 0 1350
2019/09/21 06:35:01 BASE 5.79 333 6.79 330 -3.2 100 -3.2 0 0 970.6 NA 0.0000 -SN BR 4400 0 0 0 1410
2019/09/21 06:36:01 BASE 5.80 333 6.79 330 -3.2 100 -3.2 0 0 970.6 NA 0.0000 -SN BR 4100 0 0 0 1800
2019/09/21 06:37:00 BASE 6.36 335 7.15 335 -3.2 100 -3.2 0 0 970.6 NA 0.0000 -SN BR 4500 0 0 0 1970
2019/09/21 06:38:01 BASE 6.69 334 7.15 323 -3.2 100 -3.2 0 0 970.6 NA 0.0000 -SN BR 4200 0 0 0 2030
2019/09/21 06:39:00 BASE 6.56 333 7.15 323 -3.2 100 -3.2 0 0 970.6 NA 0.0000 -SN BR 9000 0 0 0 2130
2019/09/21 06:40:00 BASE 6.81 336 7.97 337 -3.2 100 -3.2 0 0 970.6 NA 0.0000 -SN BR 9999 200 1120 0 0
2019/09/21 06:41:00 BASE 7.56 334 8.64 327 -3.3 100 -3.3 0 0 970.6 NA 0.0000 -SN BR 9999 260 0 0 0
2019/09/21 06:42:01 BASE 7.20 332 8.64 327 -3.3 100 -3.3 0 0 970.6 NA 0.0000 -SN BR 9999 330 1610 0 0
2019/09/21 06:43:00 BASE 6.28 336 8.64 327 -3.3 100 -3.3 0 0 970.6 NA 0.0000 -SN BR 9999 360 1640 0 0
2019/09/21 06:44:00 BASE 5.99 339 8.64 327 -3.3 100 -3.3 0 0 970.6 NA 0.0000 -SN BR 9999 300 1670 0 0
2019/09/21 06:45:00 BASE 5.83 339 8.64 327 -3.3 100 -3.3 0 0 970.6 NA 0.0000 -SN BR 7000 230 1640 0 0
2019/09/21 06:46:00 BASE 5.79 339 8.64 327 -3.3 100 -3.3 0 0 970.6 NA 0.0000 -SN BR 5000 0 0 0 2030
2019/09/21 06:47:00 BASE 5.68 339 8.64 327 -3.3 100 -3.3 0 0 970.6 NA 0.0000 -SN BR 4200 0 0 0 2200
2019/09/21 06:48:01 BASE 5.65 338 8.64 327 -3.3 100 -3.3 0 0 970.6 NA 0.0000 -SN BR 4400 0 0 0 2330
2019/09/21 06:49:00 BASE 6.01 337 8.64 327 -3.3 100 -3.3 0 0 970.6 NA 0.0000 -SN BR 5000 0 0 0 2330
2019/09/21 06:50:00 BASE 6.13 334 8.64 327 -3.2 100 -3.2 0 0 970.6 NA 0.0000 -SN BR 6000 0 0 0 2490
2019/09/21 06:51:00 BASE 6.19 331 7.31 327 -3.2 100 -3.2 0 0 970.6 NA 0.0000 -SN BR 6000 0 0 0 2400
2019/09/21 06:52:01 BASE 6.56 330 7.31 327 -3.2 100 -3.2 0 0 970.6 NA 0.0000 -SN BR 7000 0 0 0 2560
2019/09/21 06:53:00 BASE 6.75 330 7.31 327 -3.2 100 -3.2 0 0 970.6 NA 0.0000 -SN BR 9999 0 0 0 2530
2019/09/21 06:54:01 BASE 6.78 331 7.31 334 -3.3 100 -3.3 0 0 970.7 NA 0.0000 -SN BR 9999 0 0 0 2360
2019/09/21 06:55:01 BASE 6.66 331 7.31 334 -3.3 100 -3.3 0 0 970.8 NA 0.0000 -SN BR 9999 0 0 0 2490
2019/09/21 06:56:00 BASE 6.32 332 7.31 334 -3.3 100 -3.3 0 0 970.8 NA 0.0000 -SN BR 9000 0 0 0 2300
2019/09/21 06:57:00 BASE 6.31 335 7.31 334 -3.3 100 -3.3 0 0 970.8 NA 0.0000 -SN BR 9999 0 0 0 2200
2019/09/21 06:58:01 BASE 6.37 338 7.31 334 -3.3 100 -3.3 0 0 970.8 NA 0.0000 -SN BR 9999 0 0 0 2130
2019/09/21 06:59:00 BASE 6.01 338 7.31 334 -3.3 100 -3.3 0 0 970.8 NA 0.0000 -SN BR 6000 0 0 0 2130
2019/09/21 07:00:00 BASE 5.72 337 7.31 334 -3.2 100 -3.2 0 0 970.8 NA 0.0000 -SN BR 5000 0 0 0 2300
2019/09/21 07:01:01 BASE 5.76 337 7.31 334 -3.2 100 -3.2 0 0 970.8 NA 0.0000 -SN BR 7000 0 0 0 2100
2019/09/21 07:02:00 BASE 6.09 339 7.31 334 -3.2 100 -3.2 0 0 970.8 NA 0.0000 -SN BR 6000 0 0 0 2260
2019/09/21 07:03:00 BASE 6.51 340 7.31 334 -3.2 100 -3.2 0 0 970.8 NA 0.0000 -SN BR 6000 0 0 0 2230
2019/09/21 07:04:00 BASE 6.60 340 7.00 341 -3.2 100 -3.2 0 0 970.8 NA 0.0000 -SN BR 9999 0 0 0 2200
2019/09/21 07:05:00 BASE 6.50 340 7.00 341 -3.2 100 -3.2 0 0 970.8 NA 0.0000 -SN BR 9000 0 0 0 2200
2019/09/21 07:06:01 BASE 6.44 339 7.00 341 -3.2 100 -3.2 0 0 970.8 NA 0.0000 -SN BR 7000 0 0 0 2260
2019/09/21 07:07:00 BASE 6.64 339 7.36 340 -3.3 100 -3.3 0 0 970.8 NA 0.0000 -SN BR 9999 0 0 0 2100
2019/09/21 07:08:00 BASE 7.15 342 8.08 341 -3.3 100 -3.3 0 0 970.9 NA 0.0000 -SN BR 9999 0 0 0 2200
2019/09/21 07:09:00 BASE 7.59 343 8.08 341 -3.3 100 -3.3 0 0 970.9 NA 0.0000 -SN BR 9999 0 0 0 2170
2019/09/21 07:10:00 BASE 7.69 343 8.08 344 -3.3 100 -3.3 0 0 970.9 NA 0.0000 -SN BR 9999 0 0 0 2170
2019/09/21 07:11:01 BASE 7.54 343 8.39 339 -3.3 100 -3.3 0 0 970.9 NA 0.0000 -SN BR 9999 0 0 0 2130
2019/09/21 07:12:00 BASE 7.68 342 8.39 339 -3.3 100 -3.3 0 0 970.9 NA 0.0000 -SN BR 9000 0 0 0 2170
2019/09/21 07:13:00 BASE 7.95 342 8.39 338 -3.3 100 -3.3 0 0 970.9 NA 0.0000 -SN 9999 0 0 0 1410
2019/09/21 07:14:00 BASE 8.10 342 8.39 338 -3.3 100 -3.3 0 0 970.9 NA 0.0000 -SN 9999 0 0 0 2100
2019/09/21 07:15:00 BASE 7.98 341 8.39 338 -3.3 100 -3.3 0 0 970.9 NA 0.0000 -SN 9000 0 0 0 2170
2019/09/21 07:16:00 BASE 7.63 340 8.39 338 -3.3 100 -3.3 0 0 970.9 NA 0.0000 -SN 8000 0 0 0 2170
2019/09/21 07:17:00 BASE 7.60 340 8.39 338 -3.3 100 -3.3 0 0 970.9 NA 0.0000 -SN 8000 0 0 0 2170
2019/09/21 07:18:00 BASE 7.54 339 8.39 338 -3.3 100 -3.3 0 0 970.9 NA 0.0000 -SN 9999 0 0 0 1480
2019/09/21 07:19:00 BASE 7.40 338 8.39 338 -3.3 100 -3.3 0 0 970.9 NA 0.0000 -SN 9999 0 0 0 1510
2019/09/21 07:20:00 BASE 7.34 339 8.39 338 -3.3 100 -3.3 0 0 970.9 NA 0.0000 -SN 9999 0 0 0 2170
2019/09/21 07:21:00 BASE 7.14 338 8.39 338 -3.3 100 -3.3 0 0 971.0 NA 0.0000 -SN 9999 0 0 0 1510
2019/09/21 07:22:00 BASE 7.12 336 8.39 338 -3.3 100 -3.3 0 0 971.0 NA 0.0000 -SN 9999 0 0 0 980
2019/09/21 07:23:01 BASE 7.27 334 8.33 343 -3.3 100 -3.3 0 0 971.0 NA 0.0000 -SN 9999 0 0 0 1670
2019/09/21 07:24:00 BASE 7.13 332 8.03 342 -3.3 100 -3.3 0 0 971.0 NA 0.0000 -SN 9999 0 0 0 1610
2019/09/21 07:25:00 BASE 6.89 329 8.03 342 -3.3 100 -3.3 0 0 971.0 NA 0.0000 -SN 9999 0 0 0 1670
2019/09/21 07:26:00 BASE 7.19 328 8.49 329 -3.3 100 -3.3 0 0 971.0 NA 0.0000 -SN 9999 0 0 0 1670
2019/09/21 07:27:01 BASE 7.50 327 8.49 329 -3.3 100 -3.3 0 0 971.0 NA 0.0000 -SN 9999 230 1310 0 0
2019/09/21 07:28:00 BASE 7.50 325 8.49 329 -3.2 100 -3.2 0 0 971.0 NA 0.0000 -SN 9999 0 0 0 1900
2019/09/21 07:29:00 BASE 7.54 322 8.49 329 -3.2 100 -3.2 0 0 971.0 NA 0.0000 -SN 9999 0 0 0 1800
2019/09/21 07:30:00 BASE 7.56 316 8.49 329 -3.2 100 -3.2 0 0 971.0 NA 0.0000 -SN 8000 0 0 0 1840
2019/09/21 07:31:00 BASE 7.49 311 8.49 329 -3.2 100 -3.2 0 0 971.1 NA 0.0000 -SN 5000 0 0 0 1840
2019/09/21 07:32:01 BASE 7.09 307 8.49 329 -3.3 100 -3.3 0 0 971.1 NA 0.0000 -SN BR 3900 0 0 0 1640
2019/09/21 07:33:00 BASE 7.07 304 8.49 329 -3.3 100 -3.3 0 0 971.1 NA 0.0000 -SN BR 3400 0 0 0 1800
2019/09/21 07:34:01 BASE 7.43 302 8.49 299 -3.3 100 -3.3 0 0 971.1 NA 0.0000 -SN BR 3300 0 0 0 1710
2019/09/21 07:35:00 BASE 7.21 300 8.49 299 -3.3 100 -3.3 0 0 971.1 NA 0.0000 -SN BR 3300 0 0 0 1740
2019/09/21 07:36:01 BASE 7.28 295 8.49 299 -3.4 100 -3.4 0 0 971.1 NA 0.0000 -SN BR 3500 0 0 0 1840
2019/09/21 07:37:00 BASE 6.98 285 8.49 299 -3.4 100 -3.4 0 0 971.1 NA 0.0000 -SN BR 3400 0 0 0 2000
2019/09/21 07:38:01 BASE 7.36 281 9.67 278 -3.4 100 -3.4 0 0 971.1 NA 0.0000 -SN BR 2700 0 0 0 1840
2019/09/21 07:39:00 BASE 8.29 281 9.67 278 -3.5 100 -3.5 0 0 971.1 NA 0.0000 -SN BR 2300 0 0 0 1740
2019/09/21 07:40:00 BASE 8.63 282 10.24 280 -3.5 100 -3.5 0 0 971.1 NA 0.0000 -SN BR 2400 0 0 0 1410
2019/09/21 07:41:00 BASE 9.33 285 10.24 280 -3.6 100 -3.6 0 0 971.1 NA 0.0000 -SN BR 3100 0 0 0 1310
2019/09/21 07:42:00 BASE 9.40 282 10.24 280 -3.6 100 -3.6 0 0 971.2 NA 0.0000 -SN BR 3300 0 0 0 1410
2019/09/21 07:43:00 BASE 8.41 278 10.24 280 -3.7 100 -3.7 0 0 971.2 NA 0.0000 -SN BR 3000 0 0 0 1280
2019/09/21 07:44:01 BASE 7.61 273 10.24 280 -3.8 100 -3.8 0 0 971.2 NA 0.0000 -SN BR 2800 0 0 0 1310
2019/09/21 07:45:00 BASE 7.50 271 10.24 280 -4.0 100 -4.0 0 0 971.2 NA 0.0000 -SN BR 2700 0 0 0 1310
2019/09/21 07:46:00 BASE 7.87 272 10.24 280 -4.0 100 -4.0 0 0 971.2 NA 0.0000 -SN BR 2800 0 0 0 1480
2019/09/21 07:47:00 BASE 7.91 272 10.24 280 -4.1 100 -4.1 0 0 971.2 NA 0.0000 -SN BR 2900 0 0 0 1670
2019/09/21 07:48:00 BASE 7.32 271 10.24 280 -4.2 100 -4.2 0 0 971.2 NA 0.0000 -SN BR 3100 0 0 0 1900
2019/09/21 07:49:00 BASE 6.90 267 10.24 280 -4.3 100 -4.3 0 0 971.2 NA 0.0000 -SN BR 2600 0 0 0 2030
2019/09/21 07:50:00 BASE 7.07 268 10.08 276 -4.3 100 -4.3 0 0 971.2 NA 0.0000 -SN BR 2500 0 0 0 1870
2019/09/21 07:51:00 BASE 7.18 274 10.08 276 -4.3 100 -4.3 0 0 971.2 NA 0.0000 -SN BR 2400 0 0 0 1800
2019/09/21 07:52:00 BASE 7.12 278 9.62 265 -4.4 100 -4.4 0 0 971.3 NA 0.0000 -SN BR 2300 0 0 0 1740
2019/09/21 07:53:00 BASE 7.26 278 9.62 265 -4.4 100 -4.4 0 0 971.3 NA 0.0000 -SN BR 2600 0 0 0 1770
2019/09/21 07:54:00 BASE 7.91 282 10.13 282 -4.4 100 -4.4 0 0 971.3 NA 0.0000 -SN BR 3600 0 0 0 1800
2019/09/21 07:55:00 BASE 8.72 284 10.13 282 -4.4 100 -4.4 0 0 971.3 NA 0.0000 -SN BR 4000 0 0 0 1870
2019/09/21 07:56:00 BASE 8.77 283 10.13 282 -4.5 100 -4.5 0 0 971.4 NA 0.0000 -SN BR 5000 0 0 0 1870
2019/09/21 07:57:00 BASE 9.11 285 10.70 283 -4.5 100 -4.5 0 0 971.4 NA 0.0000 -SN BR 5000 0 0 0 1900
2019/09/21 07:58:01 BASE 9.01 285 10.70 283 -4.6 100 -4.6 0 0 971.4 NA 0.0000 -SN BR 6000 0 0 0 1970
2019/09/21 07:59:00 BASE 9.07 281 10.91 286 -4.6 100 -4.6 0 0 971.5 NA 0.0000 -SN BR 6000 0 0 0 1970
2019/09/21 08:00:00 BASE 9.38 274 10.91 286 -4.7 100 -4.7 0 0 971.5 NA 0.0000 -SN BR 6000 230 0 0 0
2019/09/21 08:01:00 BASE 8.32 271 10.91 286 -4.7 100 -4.7 0 0 971.5 NA 0.0000 -SN BR 7000 230 0 0 0
2019/09/21 08:02:00 BASE 7.21 270 10.91 286 -4.8 100 -4.8 0 0 971.5 NA 0.0000 -SN BR 6000 230 0 0 0
2019/09/21 08:03:00 BASE 6.97 270 10.91 286 -4.9 100 -4.9 0 0 971.6 NA 0.0000 -SN BR 7000 260 0 0 0
2019/09/21 08:04:01 BASE 7.32 274 10.91 286 -4.9 100 -4.9 0 0 971.6 NA 0.0000 -SN BR 8000 300 1210 0 0
2019/09/21 08:05:00 BASE 8.16 276 10.91 286 -5.0 100 -5.0 0 0 971.6 NA 0.0000 -SN BR 8000 260 1510 0 0
2019/09/21 08:06:00 BASE 8.29 276 10.91 286 -5.0 100 -5.0 0 0 971.6 NA 0.0000 -SN BR 9000 260 1210 0 0
2019/09/21 08:07:00 BASE 7.83 278 10.91 286 -5.0 100 -5.0 0 0 971.7 NA 0.0000 -SN BR 7000 230 0 0 0
2019/09/21 08:08:00 BASE 7.10 276 10.91 286 -5.1 100 -5.1 0 0 971.7 NA 0.0000 -SN BR 5000 0 0 0 1800
2019/09/21 08:09:00 BASE 6.65 277 10.34 274 -5.1 100 -5.1 0 0 971.7 NA 0.0000 -SN BR 4400 0 0 0 1610
2019/09/21 08:10:00 BASE 6.56 281 10.34 274 -5.1 100 -5.1 0 0 971.7 NA 0.0000 -SN BR 5000 0 0 0 1480
2019/09/21 08:11:00 BASE 6.40 284 10.34 274 -5.1 100 -5.1 0 0 971.7 NA 0.0000 -SN BR 9000 260 0 0 0
2019/09/21 08:12:00 BASE 6.56 282 10.34 274 -5.1 100 -5.1 0 0 971.7 NA 0.0000 -SN BR 9999 330 0 0 0
2019/09/21 08:13:00 BASE 6.12 280 10.34 274 -5.1 100 -5.1 0 0 971.8 NA 0.0000 -SN BR 8000 330 0 0 0
2019/09/21 08:14:01 BASE 5.65 281 10.34 274 -5.2 100 -5.2 0 0 971.8 NA 0.0000 -SN BR 4800 0 0 0 1410
2019/09/21 08:15:00 BASE 6.31 287 9.62 271 -5.2 100 -5.2 0 0 971.8 NA 0.0000 -SN BR 3600 0 0 0 1280
2019/09/21 08:16:00 BASE 7.37 292 8.54 282 -5.3 100 -5.3 0 0 971.8 NA 0.0000 -SN BR 4300 0 0 0 2030
2019/09/21 08:17:00 BASE 7.33 293 8.39 292 -5.3 100 -5.3 0 0 971.8 NA 0.0000 -SN BR 4400 0 0 0 2000
2019/09/21 08:18:00 BASE 6.94 293 8.39 292 -5.4 100 -5.4 0 0 971.8 NA 0.0000 -SN BR 3800 0 0 0 1870
2019/09/21 08:19:00 BASE 6.79 292 8.39 292 -5.4 100 -5.4 0 0 971.8 NA 0.0000 -SN BR 3800 0 0 0 1540
2019/09/21 08:20:00 BASE 6.93 294 8.39 292 -5.5 100 -5.5 0 0 971.8 NA 0.0000 -SN BR 3700 0 0 0 1380
2019/09/21 08:21:00 BASE 7.12 295 8.39 292 -5.5 100 -5.5 0 0 971.9 NA 0.0000 -SN BR 3600 0 0 0 1310
2019/09/21 08:22:00 BASE 7.40 294 8.49 292 -5.5 100 -5.5 0 0 971.8 NA 0.0000 -SN BR 3600 0 0 0 1280
2019/09/21 08:23:00 BASE 7.87 291 8.49 292 -5.6 100 -5.6 0 0 971.8 NA 0.0000 -SN BR 3500 0 0 0 1210
2019/09/21 08:24:00 BASE 7.36 292 8.49 292 -5.6 100 -5.6 0 0 971.9 NA 0.0000 -SN BR 3300 0 0 0 1210
2019/09/21 08:25:00 BASE 6.95 291 8.49 292 -5.6 100 -5.6 0 0 971.9 NA 0.0000 -SN BR 3500 0 0 0 1350
2019/09/21 08:26:00 BASE 7.10 291 8.49 292 -5.7 100 -5.7 0 0 972.0 NA 0.0000 -SN BR 3400 0 0 0 1380
2019/09/21 08:27:01 BASE 7.07 295 8.49 292 -5.7 100 -5.7 0 0 972.0 NA 0.0000 -SN BR 3300 0 0 0 1480
2019/09/21 08:28:00 BASE 6.90 298 8.49 292 -5.7 100 -5.7 0 0 971.9 NA 0.0000 -SN BR 3700 0 0 0 1540
2019/09/21 08:29:00 BASE 6.85 301 8.49 292 -5.7 100 -5.7 0 0 971.9 NA 0.0000 -SN BR 3600 0 0 0 1480
2019/09/21 08:30:00 BASE 6.99 301 8.49 292 -5.7 100 -5.7 0 0 972.0 NA 0.0000 -SN BR 3700 0 0 0 1310
2019/09/21 08:31:00 BASE 7.17 299 8.49 292 -5.7 100 -5.7 0 0 972.0 NA 0.0000 -SN BR 3600 0 0 0 1310
2019/09/21 08:32:00 BASE 7.15 299 8.23 290 -5.7 100 -5.7 0 0 972.0 NA 0.0000 -SN BR 3400 0 0 0 1080
2019/09/21 08:33:00 BASE 6.82 300 7.97 302 -5.7 100 -5.7 0 0 972.0 NA 0.0000 -SN BR 3400 0 0 0 1210
2019/09/21 08:34:00 BASE 6.75 301 7.97 302 -5.7 100 -5.7 0 0 972.0 NA 0.0000 -SN BR 3900 0 0 0 2030
2019/09/21 08:35:00 BASE 7.23 299 8.18 297 -5.7 100 -5.7 0 0 972.0 NA 0.0000 -SN BR 5000 0 0 0 2200
2019/09/21 08:36:00 BASE 7.24 293 8.18 297 -5.7 100 -5.7 0 0 972.0 NA 0.0000 -SN BR 6000 0 0 0 2300
2019/09/21 08:37:00 BASE 7.02 290 8.18 297 -5.7 100 -5.7 0 0 972.1 NA 0.0000 -SN BR 5000 0 0 0 2400
2019/09/21 08:38:00 BASE 6.81 289 8.18 297 -5.8 100 -5.8 0 0 972.1 NA 0.0000 -SN BR 5000 0 0 0 2130
2019/09/21 08:39:00 BASE 6.17 285 8.18 297 -5.8 100 -5.8 0 0 972.1 NA 0.0000 -SN BR 4400 0 0 0 1480
2019/09/21 08:40:00 BASE 5.62 285 8.18 297 -5.8 100 -5.8 0 0 972.1 NA 0.0000 -SN BR 3700 0 0 0 1380
2019/09/21 08:41:00 BASE 5.66 289 8.18 297 -5.8 100 -5.8 0 0 972.2 NA 0.0000 -SN BR 4000 0 0 0 1350
2019/09/21 08:42:00 BASE 6.04 291 8.18 297 -5.8 100 -5.8 0 0 972.2 NA 0.0000 -SN BR 4600 0 0 0 1380
2019/09/21 08:43:00 BASE 5.95 291 8.18 297 -5.8 100 -5.8 0 0 972.2 NA 0.0000 -SN BR 4800 0 0 0 1640
2019/09/21 08:44:00 BASE 5.96 290 8.18 297 -5.8 100 -5.8 0 0 972.2 NA 0.0000 -SN BR 5000 0 0 0 1840
2019/09/21 08:45:00 BASE 6.06 291 7.46 292 -5.8 100 -5.8 0 0 972.2 NA 0.0000 -SN BR 4800 0 0 0 1900
2019/09/21 08:46:00 BASE 6.07 296 7.46 292 -5.8 100 -5.8 0 0 972.2 NA 0.0000 -SN BR 4200 0 0 0 2230
2019/09/21 08:47:00 BASE 6.54 298 7.67 299 -5.8 100 -5.8 0 0 972.2 NA 0.0000 -SN BR 4700 0 0 0 1840
2019/09/21 08:48:01 BASE 6.69 295 7.67 299 -5.8 100 -5.8 0 0 972.3 NA 0.0000 -SN BR 6000 0 0 0 1610
2019/09/21 08:49:00 BASE 6.84 291 8.13 288 -5.9 100 -5.9 0 0 972.3 NA 0.0000 -SN BR 6000 0 0 0 1310
2019/09/21 08:50:00 BASE 7.61 289 8.18 283 -5.9 100 -5.9 0 0 972.3 NA 0.0000 -SN BR 6000 0 0 0 1280
2019/09/21 08:51:00 BASE 7.97 288 8.28 289 -6.0 100 -6.0 0 0 972.3 NA 0.0000 -SN BR 7000 0 0 0 1410
2019/09/21 08:52:01 BASE 7.83 288 8.28 289 -6.0 100 -6.0 0 0 972.3 NA 0.0000 -SN BR 6000 0 0 0 1410
2019/09/21 08:53:00 BASE 7.61 287 8.28 289 -6.0 100 -6.0 0 0 972.3 NA 0.0000 -SN BR 5000 0 0 0 1610
2019/09/21 08:54:00 BASE 7.54 287 8.44 286 -6.1 100 -6.1 0 0 972.3 NA 0.0000 -SN BR 5000 0 0 0 2560
2019/09/21 08:55:00 BASE 7.37 289 8.44 286 -6.1 100 -6.1 0 0 972.3 NA 0.0000 -SN BR 7000 260 0 0 0
2019/09/21 08:56:00 BASE 7.56 288 8.44 286 -6.1 100 -6.1 0 0 972.3 NA 0.0000 -SN BR 9999 300 1280 0 0
2019/09/21 08:57:00 BASE 7.70 286 8.49 289 -6.1 100 -6.1 0 0 972.3 NA 0.0000 -SN BR 9999 300 1280 0 0
2019/09/21 08:58:00 BASE 7.29 284 8.49 289 -6.1 100 -6.1 0 0 972.4 NA 0.0000 -SN BR 9999 330 1280 0 0
2019/09/21 08:59:00 BASE 7.43 282 8.64 280 -6.2 100 -6.2 0 0 972.4 NA 0.0000 -SN BR 9999 330 1310 0 0
2019/09/21 09:00:00 BASE 7.27 284 8.64 280 -6.2 100 -6.2 0 0 972.4 NA 0.0000 -SN BR 7000 300 1310 0 0
2019/09/21 09:01:00 BASE 7.15 285 8.64 280 -6.2 100 -6.2 0 0 972.4 NA 0.0000 -SN BR 5000 230 1210 0 0
2019/09/21 09:02:00 BASE 7.94 287 8.95 291 -6.3 100 -6.3 0 0 972.4 NA 0.0000 -SN BR 5000 230 1280 0 0
2019/09/21 09:03:00 BASE 7.77 288 8.95 291 -6.3 100 -6.3 0 0 972.4 NA 0.0000 -SN BR 4800 230 0 0 0
2019/09/21 09:04:00 BASE 7.18 284 8.95 291 -6.3 100 -6.3 0 0 972.5 NA 0.0000 -SN BR 5000 0 0 0 1710
2019/09/21 09:05:00 BASE 6.87 281 8.95 291 -6.3 100 -6.3 0 0 972.5 NA 0.0000 -SN BR 5000 0 0 0 2030
2019/09/21 09:06:00 BASE 6.49 282 8.95 291 -6.3 100 -6.3 0 0 972.6 NA 0.0000 -SN BR 4900 230 0 0 0
2019/09/21 09:07:00 BASE 6.92 281 8.95 291 -6.3 100 -6.3 0 0 972.6 NA 0.0000 -SN BR 7000 260 0 0 0
2019/09/21 09:08:01 BASE 7.40 283 8.95 291 -6.3 100 -6.3 0 0 972.6 NA 0.0000 -SN BR 9999 300 0 0 0
2019/09/21 09:09:00 BASE 7.43 286 8.95 291 -6.3 100 -6.3 0 0 972.6 NA 0.0000 -SN BR 9999 300 0 0 0
2019/09/21 09:10:00 BASE 7.20 283 8.95 291 -6.4 100 -6.4 0 0 972.6 NA 0.0000 -SN BR 9999 390 0 0 0
2019/09/21 09:11:00 BASE 7.03 283 8.95 291 -6.4 100 -6.4 0 0 972.6 NA 0.0000 -SN BR 9999 620 0 0 0
2019/09/21 09:12:00 BASE 6.94 287 8.23 279 -6.4 100 -6.4 0 0 972.7 NA 0.0000 -SN BR 9999 590 0 0 0
2019/09/21 09:13:01 BASE 6.94 287 8.23 279 -6.5 100 -6.5 0 0 972.6 NA 0.0000 -SN BR 9999 360 0 0 0
2019/09/21 09:14:00 BASE 7.22 284 8.49 278 -6.5 100 -6.5 0 0 972.7 NA 0.0000 -SN BR 9999 360 0 0 0
2019/09/21 09:15:00 BASE 7.19 285 8.49 278 -6.5 100 -6.5 0 0 972.7 NA 0.0000 -SN 9999 330 0 0 0
2019/09/21 09:16:01 BASE 6.68 287 8.49 278 -6.5 100 -6.5 0 0 972.7 NA 0.0000 -SN 9999 330 0 0 0
2019/09/21 09:17:00 BASE 6.37 287 8.49 278 -6.5 100 -6.5 0 0 972.7 NA 0.0000 -SN 9999 360 0 0 0
2019/09/21 09:18:00 BASE 7.08 286 8.54 283 -6.5 100 -6.5 0 0 972.8 NA 0.0000 -SN 9999 360 0 0 0
2019/09/21 09:19:00 BASE 8.09 286 9.98 288 -6.5 100 -6.5 0 0 972.8 NA 0.0000 -SN 9999 360 0 0 0
2019/09/21 09:20:01 BASE 8.57 285 9.98 288 -6.5 100 -6.5 0 0 972.8 NA 0.0000 -SN 9999 360 0 0 0
2019/09/21 09:21:00 BASE 8.41 283 9.98 288 -6.5 100 -6.5 0 0 972.8 NA 0.0000 -SN 9999 360 0 0 0
2019/09/21 09:22:00 BASE 8.34 280 9.98 288 -6.6 100 -6.6 0 0 972.8 NA 0.0000 -SN 9999 360 0 0 0
2019/09/21 09:23:00 BASE 8.18 277 9.98 288 -6.6 100 -6.6 0 0 972.8 NA 0.0000 -SN 9999 360 0 0 0
2019/09/21 09:24:00 BASE 7.87 279 9.98 288 -6.7 100 -6.7 0 0 972.8 NA 0.0000 -SN 9999 360 0 0 0
2019/09/21 09:25:00 BASE 7.57 279 9.98 288 -6.7 100 -6.7 0 0 972.9 NA 0.0000 -SN 9999 390 0 0 0
2019/09/21 09:26:00 BASE 7.68 280 9.98 288 -6.7 100 -6.7 0 0 972.9 NA 0.0000 -SN 9999 390 0 0 0
2019/09/21 09:27:00 BASE 7.83 280 9.98 288 -6.7 100 -6.7 0 0 972.9 NA 0.0000 -SN 9999 360 0 0 0
2019/09/21 09:28:00 BASE 8.03 280 9.98 288 -6.7 100 -6.7 0 0 972.9 NA 0.0000 -SN 9999 360 0 0 0
2019/09/21 09:29:00 BASE 8.04 283 9.41 289 -6.7 100 -6.7 0 0 972.9 NA 0.0000 -SN 9999 330 0 0 0
2019/09/21 09:30:00 BASE 7.22 284 9.26 285 -6.7 100 -6.7 0 0 972.9 NA 0.0000 -SN 9999 360 0 0 0
2019/09/21 09:31:00 BASE 7.10 281 9.26 285 -6.7 100 -6.7 0 0 972.9 NA 0.0000 -SN 9999 390 0 0 0
2019/09/21 09:32:00 BASE 7.75 280 9.21 268 -6.7 100 -6.7 0 0 972.9 NA 0.0000 -SN 9999 1050 0 0 0
2019/09/21 09:33:00 BASE 8.07 280 9.05 276 -6.7 100 -6.7 0 0 972.9 NA 0.0000 -SN 9999 590 0 0 0
2019/09/21 09:34:00 BASE 7.79 279 9.05 276 -6.7 100 -6.7 0 0 972.9 NA 0.0000 -SN 9999 620 0 0 0
2019/09/21 09:35:00 BASE 7.64 279 9.05 276 -6.7 100 -6.7 0 0 972.9 NA 0.0000 -SN 9999 590 0 0 0
2019/09/21 09:36:01 BASE 7.75 279 9.05 276 -6.7 100 -6.7 0 0 973.0 NA 0.0000 -SN 9999 520 0 0 0
2019/09/21 09:37:00 BASE 7.44 280 9.05 276 -6.8 100 -6.8 0 0 973.0 NA 0.0000 -SN 9999 490 0 0 0
2019/09/21 09:38:00 BASE 7.64 281 9.41 279 -6.8 100 -6.8 0 0 973.0 NA 0.0000 -SN 9999 560 0 0 0
2019/09/21 09:39:00 BASE 7.78 281 9.41 279 -6.8 100 -6.8 0 0 973.0 NA 0.0000 -SN 9999 560 0 0 0
2019/09/21 09:40:00 BASE 7.12 283 9.41 279 -6.8 100 -6.8 0 0 973.0 NA 0.0000 -SN 9999 590 0 0 0
2019/09/21 09:41:00 BASE 6.74 285 9.41 279 -6.8 100 -6.8 0 0 973.0 NA 0.0000 9999 620 0 0 0
2019/09/21 09:42:01 BASE 6.63 287 9.41 279 -6.8 100 -6.8 0 0 973.0 NA 0.0000 9999 590 0 0 0
2019/09/21 09:43:00 BASE 7.42 291 9.52 300 -6.8 100 -6.8 0 0 973.0 NA 0.0000 9999 590 0 0 0
2019/09/21 09:44:00 BASE 8.53 295 9.88 293 -6.8 100 -6.8 0 0 972.9 NA 0.0000 9999 590 0 0 0
2019/09/21 09:45:00 BASE 8.70 295 9.88 293 -6.8 100 -6.8 0 0 973.0 NA 0.0000 9999 560 0 0 0
2019/09/21 09:46:00 BASE 8.36 296 9.88 293 -6.8 100 -6.8 0 0 973.0 NA 0.0000 9999 560 0 0 0
2019/09/21 09:47:00 BASE 8.63 296 9.88 293 -6.8 100 -6.8 0 0 973.0 NA 0.0000 9999 660 0 0 0
2019/09/21 09:48:00 BASE 9.14 293 9.88 290 -6.9 100 -6.9 0 0 973.0 NA 0.0000 9999 590 0 0 0
2019/09/21 09:49:00 BASE 9.17 292 9.88 290 -6.9 100 -6.9 0 0 973.0 NA 0.0000 9999 750 0 0 0
2019/09/21 09:50:00 BASE 8.97 291 9.88 290 -7.0 100 -7.0 1 0 973.0 NA 0.0000 9999 820 0 0 0
2019/09/21 09:51:00 BASE 8.84 290 9.88 290 -7.0 100 -7.0 1 0 973.1 NA 0.0000 9999 920 0 0 0
2019/09/21 09:52:00 BASE 8.78 289 9.88 290 -7.0 100 -7.0 1 0 973.1 NA 0.0000 9999 920 0 0 0
2019/09/21 09:53:00 BASE 8.42 290 9.88 290 -7.0 100 -7.0 1 0 973.2 NA 0.0000 9999 1050 0 0 0
2019/09/21 09:54:00 BASE 8.48 290 9.88 290 -7.0 100 -7.0 1 0 973.1 NA 0.0000 9999 1120 0 0 0
2019/09/21 09:55:00 BASE 8.39 290 9.88 290 -7.1 100 -7.1 1 0 973.1 NA 0.0000 9999 1120 0 0 0
2019/09/21 09:56:00 BASE 8.23 292 9.88 290 -7.1 100 -7.1 1 0 973.2 NA 0.0000 9999 1080 0 0 0
2019/09/21 09:57:00 BASE 8.83 294 9.88 290 -7.1 100 -7.1 1 0 973.1 NA 0.0000 9999 1080 0 0 0
2019/09/21 09:58:00 BASE 8.92 292 9.77 286 -7.1 100 -7.1 1 0 973.2 NA 0.0000 9999 1050 0 0 0
2019/09/21 09:59:00 BASE 8.27 291 9.77 286 -7.2 100 -7.2 1 0 973.2 NA 0.0000 9999 1080 0 0 0
2019/09/21 10:00:00 BASE 7.60 294 9.77 286 -7.2 100 -7.2 2 0 973.2 NA 0.0000 9999 1080 0 0 0
2019/09/21 10:01:00 BASE 7.28 297 9.77 286 -7.2 100 -7.2 2 0 973.2 NA 0.0000 9999 1050 0 0 0
2019/09/21 10:02:00 BASE 7.84 296 9.77 286 -7.2 100 -7.2 2 0 973.2 NA 0.0000 9999 1050 0 0 0
2019/09/21 10:03:00 BASE 8.84 295 9.77 286 -7.2 100 -7.2 2 0 973.2 NA 0.0000 9999 1020 0 0 0
2019/09/21 10:04:00 BASE 9.04 296 9.67 295 -7.3 100 -7.3 2 0 973.3 NA 0.0000 9999 1020 0 0 0
2019/09/21 10:05:00 BASE 8.74 298 9.67 295 -7.3 100 -7.3 2 0 973.3 NA 0.0000 9999 1050 0 0 0
2019/09/21 10:06:00 BASE 8.45 296 9.67 295 -7.3 100 -7.3 2 0 973.3 NA 0.0000 9999 390 0 0 0
2019/09/21 10:07:00 BASE 8.14 295 9.67 295 -7.3 100 -7.3 2 0 973.3 NA 0.0000 9999 950 0 0 0
2019/09/21 10:08:01 BASE 8.17 294 9.67 295 -7.3 100 -7.3 3 0 973.4 NA 0.0000 9999 1020 0 0 0
2019/09/21 10:09:00 BASE 8.80 292 9.98 292 -7.3 100 -7.3 3 0 973.3 NA 0.0000 9999 1020 0 0 0
2019/09/21 10:10:00 BASE 8.74 293 9.98 292 -7.3 100 -7.3 3 0 973.4 NA 0.0000 BR 9000 1050 0 0 0
2019/09/21 10:11:00 BASE 8.32 296 9.98 292 -7.4 100 -7.4 3 0 973.4 NA 0.0000 BR 9000 620 1050 0 0
2019/09/21 10:12:00 BASE 8.57 293 9.98 292 -7.4 100 -7.4 3 0 973.4 NA 0.0000 BR 9000 1020 0 0 0
2019/09/21 10:13:00 BASE 8.91 286 10.49 281 -7.4 100 -7.4 3 0 973.4 NA 0.0000 BR 9000 490 1150 0 0
2019/09/21 10:14:00 BASE 8.71 284 10.49 281 -7.4 100 -7.4 4 0 973.5 NA 0.0000 BR 9000 520 1150 0 0
2019/09/21 10:15:00 BASE 8.18 285 10.49 281 -7.4 100 -7.4 4 0 973.5 NA 0.0000 BR 9000 490 0 0 0
2019/09/21 10:16:00 BASE 8.18 285 10.49 281 -7.4 100 -7.4 4 0 973.5 NA 0.0000 BR 9000 560 0 0 0
2019/09/21 10:17:00 BASE 8.27 286 10.49 281 -7.4 100 -7.4 4 0 973.5 NA 0.0000 BR 9999 750 0 0 0
2019/09/21 10:18:00 BASE 8.51 288 10.49 281 -7.4 100 -7.4 4 0 973.5 NA 0.0000 BR 9999 430 950 0 0
2019/09/21 10:19:00 BASE 9.19 291 10.49 281 -7.4 100 -7.4 5 0 973.5 NA 0.0000 9999 460 1080 0 0
2019/09/21 10:20:00 BASE 9.17 291 10.49 281 -7.5 100 -7.5 5 0 973.5 NA 0.0000 9999 460 1050 0 0
2019/09/21 10:21:00 BASE 8.58 290 10.49 281 -7.5 100 -7.5 5 0 973.6 NA 0.0000 9999 460 0 0 0
2019/09/21 10:22:00 BASE 8.18 293 10.49 281 -7.5 100 -7.5 5 0 973.6 NA 0.0000 9999 460 1150 0 0
2019/09/21 10:23:00 BASE 8.42 293 9.77 293 -7.5 100 -7.5 5 0 973.6 NA 0.0000 9999 430 0 0 0
2019/09/21 10:24:00 BASE 8.73 292 9.77 293 -7.6 100 -7.6 5 0 973.6 NA 0.0000 9999 430 0 0 0
2019/09/21 10:25:00 BASE 8.41 294 9.77 293 -7.6 100 -7.6 5 0 973.7 NA 0.0000 9999 430 0 0 0
2019/09/21 10:26:00 BASE 8.21 295 9.77 293 -7.6 100 -7.6 6 0 973.7 NA 0.0000 9999 460 0 0 0
2019/09/21 10:27:00 BASE 8.07 297 9.77 293 -7.6 100 -7.6 6 0 973.7 NA 0.0000 9999 430 0 0 0
2019/09/21 10:28:00 BASE 8.20 297 9.77 293 -7.6 100 -7.6 6 0 973.7 NA 0.0000 9999 360 0 0 0
2019/09/21 10:29:00 BASE 8.40 297 9.57 293 -7.6 100 -7.6 6 0 973.7 NA 0.0000 9999 430 0 0 0
2019/09/21 10:30:00 BASE 8.12 298 9.21 295 -7.6 100 -7.6 6 0 973.7 NA 0.0000 9999 390 0 0 0
2019/09/21 10:31:00 BASE 8.21 296 9.21 295 -7.6 100 -7.6 6 0 973.7 NA 0.0000 9999 360 0 0 0
2019/09/21 10:32:00 BASE 8.59 295 9.16 297 -7.6 100 -7.6 7 0 973.7 NA 0.0000 9999 330 0 0 0
2019/09/21 10:33:00 BASE 8.49 296 9.16 297 -7.6 100 -7.6 7 0 973.7 NA 0.0000 9999 330 0 0 0
2019/09/21 10:34:00 BASE 8.43 295 9.21 290 -7.6 100 -7.6 7 0 973.8 NA 0.0000 9999 300 0 0 0
2019/09/21 10:35:00 BASE 8.26 295 9.21 290 -7.7 100 -7.7 7 0 973.9 NA 0.0000 9999 330 0 0 0
2019/09/21 10:36:01 BASE 8.74 296 9.77 295 -7.7 100 -7.7 7 0 973.9 NA 0.0000 9999 330 0 0 0
2019/09/21 10:37:00 BASE 9.21 293 9.77 295 -7.7 100 -7.7 7 0 973.9 NA 0.0000 9999 300 0 0 0
2019/09/21 10:38:00 BASE 8.58 294 9.77 295 -7.7 100 -7.7 8 0 973.9 NA 0.0000 9999 300 0 0 0
2019/09/21 10:39:00 BASE 8.20 298 9.77 295 -7.7 100 -7.7 8 0 973.9 NA 0.0000 9999 300 0 0 0
2019/09/21 10:40:00 BASE 8.38 296 9.77 295 -7.7 100 -7.7 8 0 973.9 NA 0.0000 9999 260 0 0 0
2019/09/21 10:41:00 BASE 8.77 292 9.77 295 -7.7 100 -7.7 9 0 974.0 NA 0.0000 9999 230 0 0 0
2019/09/21 10:42:00 BASE 8.87 294 9.77 295 -7.7 100 -7.7 9 0 974.0 NA 0.0000 9999 230 0 0 0
2019/09/21 10:43:00 BASE 9.00 298 10.08 293 -7.7 100 -7.7 9 0 974.0 NA 0.0000 9999 260 0 0 0
2019/09/21 10:44:00 BASE 9.02 298 10.08 293 -7.7 100 -7.7 10 0 974.0 NA 0.0000 9999 260 0 0 0
2019/09/21 10:45:00 BASE 8.76 299 10.08 293 -7.7 100 -7.7 10 0 974.0 NA 0.0000 9999 230 0 0 0
2019/09/21 10:46:00 BASE 8.98 300 10.08 293 -7.7 100 -7.7 10 0 974.0 NA 0.0000 9999 200 0 0 0
2019/09/21 10:47:00 BASE 8.99 299 10.08 293 -7.7 100 -7.7 11 0 974.1 NA 0.0000 9999 260 0 0 0
2019/09/21 10:48:00 BASE 8.84 295 10.08 293 -7.7 100 -7.7 11 0 974.1 NA 0.0000 9999 260 0 0 0
2019/09/21 10:49:00 BASE 8.60 293 10.08 293 -7.7 100 -7.7 11 0 974.1 NA 0.0000 9999 200 0 0 0
2019/09/21 10:50:00 BASE 8.57 296 10.08 293 -7.7 100 -7.7 12 0 974.1 NA 0.0000 9999 0 0 0 620
2019/09/21 10:51:00 BASE 9.11 300 10.39 303 -7.7 100 -7.7 12 0 974.1 NA 0.0000 9999 0 0 0 620
2019/09/21 10:52:00 BASE 9.49 299 10.39 303 -7.7 100 -7.7 12 0 974.1 NA 0.0000 9999 0 0 0 620
2019/09/21 10:53:00 BASE 9.22 295 10.39 303 -7.7 100 -7.7 13 0 974.2 NA 0.0000 9999 0 0 0 620
2019/09/21 10:54:00 BASE 8.64 295 10.39 303 -7.8 100 -7.8 13 0 974.2 NA 0.0000 9999 0 0 0 620
2019/09/21 10:55:00 BASE 8.47 297 10.39 303 -7.8 100 -7.8 14 0 974.2 NA 0.0000 9999 0 0 0 620
2019/09/21 10:56:00 BASE 8.63 298 10.39 303 -7.8 100 -7.8 15 0 974.2 NA 0.0000 9999 0 0 0 620
2019/09/21 10:57:00 BASE 8.80 296 10.39 303 -7.8 100 -7.8 16 0 974.2 NA 0.0000 9999 0 0 0 690
2019/09/21 10:58:00 BASE 8.67 292 10.39 303 -7.8 100 -7.8 16 0 974.2 NA 0.0000 9999 0 0 0 750
2019/09/21 10:59:00 BASE 8.77 293 10.39 303 -7.8 100 -7.8 17 0 974.2 NA 0.0000 9999 0 0 0 720
2019/09/21 11:00:00 BASE 8.75 292 10.39 303 -7.8 100 -7.8 17 0 974.2 NA 0.0000 9999 0 0 0 750
2019/09/21 11:01:00 BASE 9.23 289 10.34 285 -7.8 100 -7.8 18 0 974.2 NA 0.0000 9999 0 0 0 750
2019/09/21 11:02:00 BASE 9.70 289 10.34 285 -7.9 100 -7.9 19 0 974.2 NA 0.0000 9999 0 0 0 720
2019/09/21 11:03:00 BASE 9.40 292 10.34 285 -7.9 100 -7.9 21 0 974.2 NA 0.0000 9999 0 0 0 720
2019/09/21 11:04:00 BASE 9.12 295 10.34 285 -7.9 100 -7.9 24 0 974.2 NA 0.0000 9999 0 0 0 750
2019/09/21 11:05:00 BASE 8.62 295 10.34 285 -7.9 100 -7.9 26 0 974.2 NA 0.0000 9999 0 0 0 750
2019/09/21 11:06:00 BASE 8.27 293 10.34 285 -7.9 100 -7.9 28 0 974.3 NA 0.0000 9999 0 0 0 750
2019/09/21 11:07:00 BASE 8.15 290 10.34 285 -7.9 100 -7.9 30 0 974.3 NA 0.0000 9999 0 0 0 750
2019/09/21 11:08:00 BASE 8.53 288 10.34 285 -7.9 100 -7.9 31 0 974.3 NA 0.0000 9999 230 0 0 0
2019/09/21 11:09:00 BASE 8.64 289 10.34 285 -7.9 100 -7.9 31 0 974.3 NA 0.0000 9999 230 0 0 0
2019/09/21 11:10:00 BASE 8.69 289 10.34 285 -7.9 100 -7.9 31 0 974.3 NA 0.0000 9999 230 0 0 0
2019/09/21 11:11:00 BASE 9.21 286 10.19 300 -7.9 100 -7.9 31 0 974.3 NA 0.0000 9999 230 0 0 0
2019/09/21 11:12:00 BASE 8.98 288 10.19 300 -7.9 100 -7.9 30 0 974.3 NA 0.0000 9999 0 0 0 820
2019/09/21 11:13:00 BASE 8.54 291 10.19 300 -7.9 100 -7.9 29 0 974.4 NA 0.0000 9999 0 0 0 820
2019/09/21 11:14:00 BASE 8.57 292 9.98 283 -8.0 100 -8.0 29 0 974.5 NA 0.0000 9999 0 0 0 820
2019/09/21 11:15:00 BASE 8.50 294 9.98 283 -8.0 100 -8.0 29 0 974.5 NA 0.0000 9999 0 0 0 850
2019/09/21 11:16:00 BASE 8.50 295 9.98 283 -8.0 100 -8.0 29 0 974.5 NA 0.0000 9999 260 0 0 0
2019/09/21 11:17:00 BASE 9.13 290 9.98 283 -8.0 100 -8.0 29 0 974.5 NA 0.0000 9999 360 0 0 0
2019/09/21 11:18:00 BASE 9.03 284 9.98 283 -8.0 100 -8.0 30 0 974.5 NA 0.0000 9999 360 0 0 0
2019/09/21 11:19:00 BASE 8.64 279 9.98 283 -8.0 100 -8.0 31 0 974.5 NA 0.0000 9999 330 0 0 0
2019/09/21 11:20:00 BASE 8.68 280 9.93 289 -8.0 100 -8.0 32 0 974.6 NA 0.0000 9999 300 0 0 0
2019/09/21 11:21:00 BASE 8.13 284 9.93 289 -8.1 100 -8.1 33 0 974.6 NA 0.0000 9999 230 0 0 0
2019/09/21 11:22:00 BASE 7.72 284 9.93 289 -8.1 100 -8.1 33 0 974.6 NA 0.0000 9999 0 0 0 820
2019/09/21 11:23:00 BASE 7.67 284 9.93 289 -8.1 100 -8.1 32 0 974.6 NA 0.0000 9999 0 0 0 720
2019/09/21 11:24:00 BASE 7.89 285 9.93 289 -8.1 100 -8.1 32 0 974.6 NA 0.0000 9999 0 0 0 750
2019/09/21 11:25:01 BASE 7.76 286 9.93 289 -8.1 100 -8.1 31 0 974.7 NA 0.0000 9999 0 0 0 720
2019/09/21 11:26:00 BASE 6.99 285 9.93 289 -8.1 100 -8.1 30 0 974.7 NA 0.0000 9999 0 0 0 720
2019/09/21 11:27:00 BASE 6.65 285 9.41 285 -8.1 100 -8.1 30 0 974.8 NA 0.0000 9000 0 0 0 720
2019/09/21 11:28:00 BASE 7.13 287 9.41 285 -8.1 100 -8.1 30 0 974.7 NA 0.0000 9999 0 0 0 690
2019/09/21 11:29:00 BASE 7.99 288 9.41 285 -8.1 100 -8.1 31 0 974.7 NA 0.0000 9999 0 0 0 690
2019/09/21 11:30:00 BASE 8.14 290 9.36 286 -8.1 100 -8.1 31 0 974.7 NA 0.0000 9999 0 0 0 720
2019/09/21 11:31:00 BASE 7.64 285 9.36 286 -8.1 100 -8.1 31 0 974.8 NA 0.0000 9999 260 0 0 0
2019/09/21 11:32:00 BASE 7.52 280 9.36 286 -8.2 100 -8.2 31 0 974.8 NA 0.0000 9999 300 0 0 0
2019/09/21 11:33:00 BASE 7.25 281 9.36 286 -8.2 100 -8.2 31 0 974.8 NA 0.0000 9999 330 0 0 0
2019/09/21 11:34:00 BASE 7.57 286 9.21 293 -8.2 100 -8.2 31 0 974.8 NA 0.0000 9999 260 0 0 0
2019/09/21 11:35:00 BASE 7.93 290 9.21 293 -8.3 100 -8.3 31 0 974.8 NA 0.0000 9999 300 0 0 0
2019/09/21 11:36:00 BASE 7.49 287 9.21 293 -8.3 100 -8.3 32 0 974.8 NA 0.0000 9999 330 0 0 0
2019/09/21 11:37:00 BASE 7.36 285 9.21 293 -8.3 100 -8.3 33 0 974.8 NA 0.0000 9999 330 0 0 0
2019/09/21 11:38:00 BASE 7.28 287 9.21 293 -8.4 100 -8.4 36 0 974.9 NA 0.0000 9999 330 0 0 0
2019/09/21 11:39:00 BASE 7.24 290 8.95 294 -8.4 100 -8.4 40 0 974.9 NA 0.0000 9999 390 0 0 0
2019/09/21 11:40:00 BASE 7.26 291 8.95 294 -8.4 100 -8.4 43 0 974.9 NA 0.0000 9999 360 0 0 0
2019/09/21 11:41:00 BASE 7.43 292 8.95 294 -8.4 100 -8.4 47 0 974.9 NA 0.0000 9999 430 0 0 0
2019/09/21 11:42:00 BASE 7.04 294 8.95 294 -8.4 100 -8.4 49 0 975.0 NA 0.0000 9999 460 0 0 0
2019/09/21 11:43:00 BASE 6.91 293 8.95 294 -8.4 100 -8.4 51 0 975.0 NA 0.0000 9999 490 0 0 0
2019/09/21 11:44:00 BASE 7.80 289 8.95 287 -8.4 100 -8.4 53 0 975.0 NA 0.0000 9999 360 0 0 0
2019/09/21 11:45:00 BASE 8.09 286 8.95 287 -8.4 100 -8.4 55 0 975.1 NA 0.0000 9999 300 0 0 0
2019/09/21 11:46:00 BASE 7.91 287 8.95 287 -8.4 100 -8.4 56 0 975.1 NA 0.0000 9999 330 0 0 0
2019/09/21 11:47:00 BASE 7.76 290 8.95 287 -8.5 100 -8.5 58 0 975.1 NA 0.0000 9999 330 0 0 0
2019/09/21 11:48:00 BASE 7.67 291 8.95 287 -8.5 100 -8.5 59 0 975.1 NA 0.0000 9999 430 0 0 0
2019/09/21 11:49:00 BASE 8.10 287 9.41 282 -8.5 100 -8.5 59 0 975.1 NA 0.0000 9999 460 0 0 0
2019/09/21 11:50:00 BASE 7.97 284 9.41 282 -8.6 100 -8.6 61 0 975.1 NA 0.0000 9999 460 0 0 0
2019/09/21 11:51:00 BASE 7.73 283 9.41 282 -8.6 100 -8.6 62 0 975.1 NA 0.0000 9999 390 0 0 0
2019/09/21 11:52:00 BASE 8.32 281 9.62 273 -8.6 100 -8.6 63 0 975.1 NA 0.0000 9999 460 0 0 0
2019/09/21 11:53:00 BASE 8.84 280 10.29 278 -8.6 100 -8.6 63 0 975.1 NA 0.0000 9999 490 0 0 0
2019/09/21 11:54:00 BASE 9.05 279 10.29 278 -8.6 100 -8.6 64 0 975.1 NA 0.0000 9999 490 0 0 0
2019/09/21 11:55:00 BASE 8.47 284 10.29 278 -8.6 100 -8.6 65 0 975.2 NA 0.0000 9999 560 0 0 0
2019/09/21 11:56:00 BASE 8.32 290 10.29 278 -8.6 100 -8.6 67 0 975.2 NA 0.0000 9999 490 0 0 0
2019/09/21 11:57:00 BASE 8.60 290 10.29 278 -8.6 100 -8.6 70 0 975.2 NA 0.0000 9999 460 0 0 0
2019/09/21 11:58:00 BASE 8.52 289 10.29 278 -8.6 100 -8.6 73 0 975.2 NA 0.0000 9999 460 0 0 0
2019/09/21 11:59:00 BASE 8.88 289 10.29 278 -8.6 100 -8.6 76 0 975.2 NA 0.0000 9999 360 0 0 0
2019/09/21 12:00:00 BASE 8.95 289 10.29 278 -8.6 100 -8.6 79 0 975.2 NA 0.0000 9999 360 0 0 0
2019/09/21 12:01:00 BASE 8.24 286 10.29 278 -8.7 100 -8.7 82 0 975.2 NA 0.0000 9999 330 0 0 0
2019/09/21 12:02:00 BASE 7.05 284 10.29 278 -8.7 100 -8.7 84 0 975.3 NA 0.0000 9999 330 0 0 0
2019/09/21 12:03:00 BASE 6.06 283 9.83 286 -8.7 100 -8.7 88 0 975.3 NA 0.0000 9999 330 0 0 0
2019/09/21 12:04:00 BASE 6.40 281 9.57 294 -8.6 100 -8.6 91 0 975.3 NA 0.0000 9999 360 0 0 0
2019/09/21 12:05:00 BASE 7.16 283 9.57 294 -8.6 100 -8.6 95 0 975.3 NA 0.0000 9999 300 0 0 0
2019/09/21 12:06:00 BASE 7.13 287 9.57 294 -8.6 100 -8.6 98 0 975.3 NA 0.0000 9999 330 0 0 0
2019/09/21 12:07:00 BASE 7.31 290 9.57 294 -8.6 100 -8.6 100 0 975.3 NA 0.0000 9999 360 0 0 0
2019/09/21 12:08:00 BASE 6.91 289 9.57 294 -8.6 100 -8.6 103 0 975.3 NA 0.0000 9999 390 0 0 0
2019/09/21 12:09:00 BASE 6.33 286 9.31 291 -8.6 100 -8.6 104 0 975.3 NA 0.0000 9999 390 0 0 0
2019/09/21 12:10:00 BASE 6.27 284 8.54 289 -8.6 100 -8.6 105 0 975.3 NA 0.0000 9999 390 23070 0 0
2019/09/21 12:11:00 BASE 7.16 286 9.00 291 -8.6 100 -8.6 105 0 975.3 NA 0.0000 9999 390 0 0 0
2019/09/21 12:12:00 BASE 8.03 289 9.00 291 -8.6 100 -8.6 103 0 975.3 NA 0.0000 9999 390 0 0 0
2019/09/21 12:13:00 BASE 7.94 293 9.00 291 -8.7 100 -8.7 101 0 975.4 NA 0.0000 9999 360 0 0 0
2019/09/21 12:14:00 BASE 8.18 292 9.00 291 -8.7 100 -8.7 99 0 975.4 NA 0.0000 9999 360 0 0 0
2019/09/21 12:15:00 BASE 8.09 290 9.00 291 -8.7 100 -8.7 97 0 975.4 NA 0.0000 9999 390 0 0 0
2019/09/21 12:16:00 BASE 7.78 288 9.00 291 -8.7 100 -8.7 95 0 975.4 NA 0.0000 9999 390 0 0 0
2019/09/21 12:17:00 BASE 7.25 284 9.00 291 -8.7 100 -8.7 93 0 975.4 NA 0.0000 9999 360 0 0 0
2019/09/21 12:18:00 BASE 7.05 285 9.00 291 -8.7 100 -8.7 90 0 975.4 NA 0.0000 9999 390 0 0 0
2019/09/21 12:19:00 BASE 7.47 288 9.00 291 -8.7 100 -8.7 89 0 975.4 NA 0.0000 9999 330 0 0 0
2019/09/21 12:20:00 BASE 7.07 288 9.00 291 -8.6 100 -8.6 88 0 975.4 NA 0.0000 9999 360 0 0 0
2019/09/21 12:21:00 BASE 7.06 293 8.95 289 -8.6 100 -8.6 87 0 975.4 NA 0.0000 9999 360 0 0 0
2019/09/21 12:22:00 BASE 7.62 297 8.95 289 -8.6 100 -8.6 88 0 975.4 NA 0.0000 9999 330 0 0 0
2019/09/21 12:23:00 BASE 8.00 295 9.05 293 -8.6 100 -8.6 89 0 975.4 NA 0.0000 9999 260 0 0 0
2019/09/21 12:24:00 BASE 8.27 295 9.05 293 -8.6 100 -8.6 92 0 975.4 NA 0.0000 9999 260 0 0 0
2019/09/21 12:25:00 BASE 7.73 294 9.05 293 -8.6 100 -8.6 97 0 975.4 NA 0.0000 9999 300 0 0 0
2019/09/21 12:26:00 BASE 7.14 291 9.05 293 -8.6 100 -8.6 100 0 975.4 NA 0.0000 9999 330 0 0 0
2019/09/21 12:27:00 BASE 7.20 290 9.05 293 -8.6 100 -8.6 103 0 975.4 NA 0.0000 9999 330 0 0 0
2019/09/21 12:28:00 BASE 7.38 292 9.05 293 -8.6 100 -8.6 106 0 975.4 NA 0.0000 9999 300 0 0 0
2019/09/21 12:29:00 BASE 6.95 294 9.05 293 -8.6 100 -8.6 108 0 975.5 NA 0.0000 9999 300 0 0 0
2019/09/21 12:30:00 BASE 6.42 295 9.05 293 -8.6 100 -8.6 109 0 975.6 NA 0.0000 9999 300 0 0 0
2019/09/21 12:31:00 BASE 6.26 294 9.05 293 -8.6 100 -8.6 110 0 975.6 NA 0.0000 9999 300 0 0 0
2019/09/21 12:32:00 BASE 6.22 297 9.05 293 -8.6 100 -8.6 109 0 975.6 NA 0.0000 9999 300 0 0 0
2019/09/21 12:33:00 BASE 6.02 300 8.49 295 -8.6 100 -8.6 109 0 975.6 NA 0.0000 9999 300 0 0 0
2019/09/21 12:34:00 BASE 6.42 301 8.13 294 -8.6 100 -8.6 108 0 975.6 NA 0.0000 9999 300 0 0 0
2019/09/21 12:35:00 BASE 7.38 305 8.23 315 -8.6 100 -8.6 108 0 975.5 NA 0.0000 9999 330 0 0 0
2019/09/21 12:36:00 BASE 7.53 308 8.23 315 -8.6 100 -8.6 108 0 975.6 NA 0.0000 9999 300 0 0 0
2019/09/21 12:37:00 BASE 7.48 306 8.33 304 -8.6 100 -8.6 109 0 975.6 NA 0.0000 9999 300 0 0 0
2019/09/21 12:38:00 BASE 7.69 306 8.33 304 -8.5 100 -8.5 112 0 975.6 NA 0.0000 9999 300 0 0 0
2019/09/21 12:39:00 BASE 7.45 307 8.33 304 -8.5 100 -8.5 115 0 975.6 NA 0.0000 9999 330 0 0 0
2019/09/21 12:40:00 BASE 7.42 306 8.33 304 -8.5 100 -8.5 118 0 975.6 NA 0.0000 9999 300 0 0 0
2019/09/21 12:41:00 BASE 7.72 303 8.33 299 -8.5 100 -8.5 123 0 975.6 NA 0.0000 9999 330 0 0 0
2019/09/21 12:42:00 BASE 7.97 302 9.11 293 -8.5 100 -8.5 128 0 975.6 NA 0.0000 9999 300 0 0 0
2019/09/21 12:43:00 BASE 8.05 306 9.11 293 -8.5 100 -8.5 134 0 975.6 NA 0.0000 9999 300 0 0 0
2019/09/21 12:44:00 BASE 7.84 309 9.11 293 -8.5 100 -8.5 139 0 975.6 NA 0.0000 9999 330 0 0 0
2019/09/21 12:45:00 BASE 8.05 307 9.21 308 -8.5 100 -8.5 144 0 975.6 NA 0.0000 9999 300 0 0 0
2019/09/21 12:46:00 BASE 8.69 305 9.21 306 -8.5 100 -8.5 149 0 975.6 NA 0.0000 9999 300 0 0 0
2019/09/21 12:47:00 BASE 9.39 307 11.01 308 -8.5 100 -8.5 153 0 975.6 NA 0.0000 9999 330 0 0 0
2019/09/21 12:48:00 BASE 9.76 307 11.01 308 -8.5 100 -8.5 159 0 975.6 NA 0.0000 9999 300 0 0 0
2019/09/21 12:49:00 BASE 9.62 306 11.01 308 -8.5 100 -8.5 166 0 975.6 NA 0.0000 9999 360 0 0 0
2019/09/21 12:50:00 BASE 9.33 307 11.01 308 -8.4 100 -8.4 173 0 975.6 NA 0.0000 9999 330 0 0 0
2019/09/21 12:51:00 BASE 9.16 306 11.01 308 -8.4 100 -8.4 177 0 975.6 NA 0.0000 9999 330 0 0 0
2019/09/21 12:52:00 BASE 9.05 303 11.01 308 -8.4 100 -8.4 175 0 975.6 NA 0.0000 9999 330 0 0 0
2019/09/21 12:53:00 BASE 8.76 304 11.01 308 -8.4 100 -8.4 171 0 975.6 NA 0.0000 9999 360 20870 0 0
2019/09/21 12:54:00 BASE 8.84 307 11.01 308 -8.4 100 -8.4 165 0 975.6 NA 0.0000 9999 360 0 0 0
2019/09/21 12:55:00 BASE 8.82 305 11.01 308 -8.4 100 -8.4 159 0 975.6 NA 0.0000 9999 330 0 0 0
2019/09/21 12:56:00 BASE 8.46 304 11.01 308 -8.4 100 -8.4 154 0 975.6 NA 0.0000 9999 360 0 0 0
2019/09/21 12:57:00 BASE 8.97 305 10.34 304 -8.4 100 -8.4 152 0 975.6 NA 0.0000 9999 330 0 0 0
2019/09/21 12:58:00 BASE 9.67 303 10.34 304 -8.4 100 -8.4 152 0 975.7 NA 0.0000 9999 300 0 0 0
2019/09/21 12:59:00 BASE 9.88 301 10.34 300 -8.5 100 -8.5 152 0 975.7 NA 0.0000 9999 300 20340 0 0
2019/09/21 13:00:00 BASE 9.66 300 10.34 300 -8.5 100 -8.5 152 0 975.7 NA 0.0000 9999 360 0 0 0
2019/09/21 13:01:00 BASE 9.54 300 10.34 297 -8.5 100 -8.5 151 0 975.8 NA 0.0000 9999 330 0 0 0
2019/09/21 13:02:00 BASE 9.63 300 10.34 297 -8.5 100 -8.5 149 0 975.8 NA 0.0000 9999 330 0 0 0
2019/09/21 13:03:00 BASE 9.51 299 10.34 297 -8.5 100 -8.5 148 0 975.8 NA 0.0000 9999 390 21160 0 0
2019/09/21 13:04:00 BASE 8.83 296 10.34 297 -8.5 100 -8.5 149 0 975.8 NA 0.0000 9999 0 0 0 790
2019/09/21 13:05:00 BASE 8.51 292 10.34 297 -8.5 100 -8.5 150 0 975.9 NA 0.0000 9999 260 0 0 0
2019/09/21 13:06:00 BASE 8.77 292 10.34 297 -8.6 100 -8.6 151 0 975.9 NA 0.0000 9999 300 0 0 0
2019/09/21 13:07:00 BASE 8.31 288 10.34 297 -8.6 100 -8.6 150 0 975.9 NA 0.0000 9999 260 0 0 0
2019/09/21 13:08:00 BASE 7.86 286 10.34 297 -8.6 100 -8.6 150 0 975.9 NA 0.0000 9999 330 0 0 0
2019/09/21 13:09:00 BASE 7.95 284 10.34 297 -8.6 100 -8.6 149 0 975.9 NA 0.0000 9999 260 0 0 0
2019/09/21 13:10:00 BASE 8.77 282 10.80 281 -8.6 100 -8.6 149 0 975.9 NA 0.0000 9999 260 0 0 0
2019/09/21 13:11:00 BASE 9.49 281 10.80 281 -8.7 100 -8.7 149 0 975.9 NA 0.0000 9999 260 19390 0 0
2019/09/21 13:12:00 BASE 9.02 277 10.80 281 -8.7 100 -8.7 150 0 975.9 NA 0.0000 9000 300 0 0 0
2019/09/21 13:13:00 BASE 8.20 276 10.80 281 -8.8 100 -8.8 151 0 976.0 NA 0.0000 9000 260 0 0 0
2019/09/21 13:14:00 BASE 8.13 279 10.80 281 -8.8 100 -8.8 151 0 976.0 NA 0.0000 9999 260 0 0 0
2019/09/21 13:15:00 BASE 8.51 283 10.80 281 -8.9 100 -8.9 153 0 976.0 NA 0.0000 9999 260 0 0 0
2019/09/21 13:16:00 BASE 9.25 285 10.80 281 -8.9 100 -8.9 155 0 976.0 NA 0.0000 9999 230 0 0 0
2019/09/21 13:17:00 BASE 9.30 285 10.80 281 -8.9 100 -8.9 157 0 976.0 NA 0.0000 9999 230 0 0 0
2019/09/21 13:18:00 BASE 8.85 285 10.80 281 -8.9 100 -8.9 160 0 976.0 NA 0.0000 9999 260 0 0 0
2019/09/21 13:19:00 BASE 8.54 282 10.80 281 -8.9 100 -8.9 162 0 976.0 NA 0.0000 9999 300 0 0 0
2019/09/21 13:20:00 BASE 8.79 279 10.44 280 -9.0 100 -9.0 165 0 976.0 NA 0.0000 9999 300 0 0 0
2019/09/21 13:21:00 BASE 8.62 281 10.29 287 -9.0 100 -9.0 166 0 976.0 NA 0.0000 9999 330 0 0 0
2019/09/21 13:22:00 BASE 7.88 284 10.29 287 -9.0 100 -9.0 167 0 976.0 NA 0.0000 9999 330 0 0 0
2019/09/21 13:23:00 BASE 8.26 285 10.29 287 -9.0 100 -9.0 165 0 976.1 NA 0.0000 9999 300 0 0 0
2019/09/21 13:24:00 BASE 9.06 283 10.91 279 -9.0 100 -9.0 166 0 976.1 NA 0.0000 9999 300 0 0 0
2019/09/21 13:25:00 BASE 9.29 282 10.91 279 -9.0 100 -9.0 168 0 976.1 NA 0.0000 9999 300 0 0 0
2019/09/21 13:26:00 BASE 8.78 279 10.91 279 -9.1 100 -9.1 171 0 976.1 NA 0.0000 9999 330 0 0 0
2019/09/21 13:27:00 BASE 8.60 277 10.91 279 -9.1 100 -9.1 174 0 976.2 NA 0.0000 9999 330 0 0 0
2019/09/21 13:28:00 BASE 8.89 278 10.91 279 -9.2 100 -9.2 175 0 976.2 NA 0.0000 9999 300 0 0 0
2019/09/21 13:29:00 BASE 8.83 277 10.91 279 -9.2 100 -9.2 175 0 976.2 NA 0.0000 9999 300 0 0 0
2019/09/21 13:30:00 BASE 8.20 277 10.91 279 -9.3 100 -9.3 173 0 976.2 NA 0.0000 9999 330 0 0 0
2019/09/21 13:31:00 BASE 7.74 277 10.91 279 -9.3 100 -9.3 170 0 976.2 NA 0.0000 9999 330 22340 0 0
2019/09/21 13:32:00 BASE 7.72 277 10.91 279 -9.3 100 -9.3 167 0 976.2 NA 0.0000 9999 300 22150 0 0
2019/09/21 13:33:00 BASE 8.64 273 10.91 279 -9.3 100 -9.3 168 0 976.2 NA 0.0000 9999 300 0 0 0
2019/09/21 13:34:00 BASE 9.27 272 10.08 271 -9.4 100 -9.4 173 0 976.2 NA 0.0000 9999 230 0 0 0
2019/09/21 13:35:00 BASE 8.59 275 10.08 271 -9.4 100 -9.4 178 0 976.2 NA 0.0000 9999 260 0 0 0
2019/09/21 13:36:00 BASE 7.93 277 10.08 271 -9.5 100 -9.5 181 0 976.2 NA 0.0000 9999 300 0 0 0
2019/09/21 13:37:00 BASE 7.55 279 10.08 271 -9.5 100 -9.5 184 0 976.2 NA 0.0000 9999 300 0 0 0
2019/09/21 13:38:00 BASE 7.13 278 10.08 271 -9.6 100 -9.6 189 0 976.2 NA 0.0000 9999 330 0 0 0
2019/09/21 13:39:00 BASE 7.00 282 10.08 271 -9.6 100 -9.6 195 0 976.2 NA 0.0000 9999 360 0 0 0
2019/09/21 13:40:01 BASE 7.65 283 10.08 271 -9.6 100 -9.6 200 0 976.3 NA 0.0000 9999 360 0 0 0
2019/09/21 13:41:00 BASE 7.98 278 10.08 271 -9.6 100 -9.6 204 0 976.3 NA 0.0000 9999 360 0 0 0
2019/09/21 13:42:00 BASE 7.97 277 10.08 271 -9.6 100 -9.6 208 0 976.4 NA 0.0000 9999 430 0 0 0
2019/09/21 13:43:00 BASE 8.32 273 9.88 271 -9.6 100 -9.6 212 0 976.4 NA 0.0000 9999 330 0 0 0
2019/09/21 13:44:00 BASE 8.10 277 9.88 271 -9.6 100 -9.6 216 0 976.4 NA 0.0000 9999 390 0 0 0
2019/09/21 13:45:00 BASE 7.53 286 9.88 271 -9.6 100 -9.6 217 0 976.4 NA 0.0000 9999 330 0 0 0
2019/09/21 13:46:00 BASE 7.61 285 9.88 271 -9.7 100 -9.7 214 0 976.4 NA 0.0000 9999 390 0 0 0
2019/09/21 13:47:00 BASE 8.28 283 9.88 271 -9.7 100 -9.7 206 0 976.5 NA 0.0000 9999 390 0 0 0
2019/09/21 13:48:00 BASE 8.50 284 9.98 279 -9.7 100 -9.7 196 0 976.5 NA 0.0000 9999 360 0 0 0
2019/09/21 13:49:00 BASE 8.84 280 10.55 273 -9.8 100 -9.8 186 0 976.5 NA 0.0000 9999 390 20210 0 0
2019/09/21 13:50:00 BASE 9.07 279 10.55 273 -9.8 100 -9.8 177 0 976.5 NA 0.0000 9999 430 0 0 0
2019/09/21 13:51:00 BASE 9.26 280 10.55 273 -9.8 100 -9.8 170 0 976.5 NA 0.0000 9999 430 0 0 0
2019/09/21 13:52:00 BASE 9.59 281 10.55 273 -9.9 100 -9.9 167 0 976.5 NA 0.0000 9999 360 0 0 0
2019/09/21 13:53:00 BASE 8.99 281 10.55 273 -9.9 100 -9.9 166 0 976.6 NA 0.0000 9999 390 0 0 0
2019/09/21 13:54:00 BASE 8.69 280 10.55 273 -10.0 100 -10.0 168 0 976.6 NA 0.0000 9999 430 0 0 0
2019/09/21 13:55:00 BASE 8.45 280 10.55 273 -10.0 100 -10.0 171 0 976.6 NA 0.0000 9999 390 0 0 0
2019/09/21 13:56:00 BASE 8.32 277 10.55 273 -10.0 100 -10.0 174 0 976.6 NA 0.0000 9999 490 0 0 0
2019/09/21 13:57:00 BASE 8.67 278 10.55 273 -10.0 100 -10.0 174 0 976.6 NA 0.0000 9999 460 0 0 0
2019/09/21 13:58:00 BASE 8.21 280 10.55 273 -10.0 100 -10.0 174 0 976.6 NA 0.0000 9999 430 0 0 0
2019/09/21 13:59:00 BASE 7.98 278 10.24 280 -10.0 100 -10.0 173 0 976.6 NA 0.0000 9999 460 0 0 0
2019/09/21 14:00:00 BASE 8.00 275 10.24 280 -10.0 100 -10.0 173 0 976.6 NA 0.0000 9999 460 0 0 0
2019/09/21 14:01:00 BASE 7.60 277 9.98 280 -10.1 100 -10.1 173 0 976.7 NA 0.0000 9999 490 0 0 0
2019/09/21 14:02:00 BASE 7.25 281 9.93 285 -10.1 100 -10.1 173 0 976.7 NA 0.0000 9999 560 0 0 0
2019/09/21 14:03:00 BASE 7.14 277 9.93 285 -10.1 100 -10.1 174 0 976.7 NA 0.0000 9999 520 0 0 0
2019/09/21 14:04:00 BASE 7.26 274 9.93 285 -10.1 100 -10.1 180 0 976.7 NA 0.0000 9999 560 0 0 0
2019/09/21 14:05:00 BASE 7.10 276 9.93 285 -10.1 100 -10.1 190 0 976.7 NA 0.0000 9999 560 0 0 0
2019/09/21 14:06:00 BASE 7.39 276 9.52 278 -10.1 100 -10.1 201 0 976.7 NA 0.0000 9999 560 0 0 0
2019/09/21 14:07:00 BASE 6.96 273 9.52 278 -10.2 100 -10.2 209 0 976.8 NA 0.0000 9999 590 0 0 0
2019/09/21 14:08:00 BASE 5.84 273 9.52 278 -10.2 100 -10.2 213 0 976.8 NA 0.0000 9999 590 0 0 0
2019/09/21 14:09:00 BASE 5.58 276 9.26 280 -10.2 100 -10.2 214 0 976.8 NA 0.0000 9999 590 0 0 0
2019/09/21 14:10:00 BASE 6.40 276 9.11 273 -10.2 100 -10.2 214 0 976.8 NA 0.0000 9999 430 0 0 0
2019/09/21 14:11:00 BASE 7.00 274 9.11 273 -10.2 100 -10.2 213 0 976.8 NA 0.0000 9999 560 0 0 0
2019/09/21 14:12:00 BASE 6.33 278 9.11 273 -10.1 100 -10.1 213 0 976.8 NA 0.0000 9999 590 0 0 0
2019/09/21 14:13:00 BASE 5.81 281 9.11 273 -10.1 100 -10.1 214 0 976.8 NA 0.0000 9999 560 0 0 0
2019/09/21 14:14:00 BASE 6.25 278 9.11 273 -10.1 100 -10.1 216 0 976.8 NA 0.0000 9999 590 0 0 0
2019/09/21 14:15:00 BASE 7.06 280 9.11 273 -10.1 100 -10.1 216 0 976.8 NA 0.0000 9999 660 0 0 0
2019/09/21 14:16:00 BASE 7.25 283 9.36 282 -10.1 100 -10.1 212 0 976.9 NA 0.0000 9999 590 0 0 0
2019/09/21 14:17:00 BASE 7.67 277 9.36 282 -10.1 100 -10.1 206 0 976.9 NA 0.0000 9999 660 0 0 0
2019/09/21 14:18:00 BASE 7.82 276 9.36 282 -10.2 100 -10.2 199 0 977.0 NA 0.0000 9999 560 0 0 0
2019/09/21 14:19:00 BASE 7.19 276 9.36 282 -10.2 100 -10.2 194 0 977.0 NA 0.0000 9999 560 0 0 0
2019/09/21 14:20:00 BASE 6.87 277 9.36 282 -10.2 100 -10.2 191 0 976.9 NA 0.0000 9999 590 0 0 0
2019/09/21 14:21:00 BASE 6.98 276 9.36 282 -10.3 100 -10.3 189 0 977.0 NA 0.0000 9999 590 0 0 0
2019/09/21 14:22:00 BASE 6.74 276 9.36 282 -10.3 100 -10.3 187 0 977.0 NA 0.0000 9999 660 0 0 0
2019/09/21 14:23:00 BASE 6.47 279 9.36 282 -10.3 100 -10.3 186 0 977.0 NA 0.0000 9999 660 0 0 0
2019/09/21 14:24:00 BASE 6.69 278 9.36 282 -10.3 100 -10.3 188 0 977.0 NA 0.0000 9999 620 0 0 0
2019/09/21 14:25:00 BASE 6.63 275 9.36 282 -10.3 100 -10.3 192 0 977.0 NA 0.0000 9999 590 0 0 0
2019/09/21 14:26:00 BASE 6.26 274 9.00 285 -10.4 100 -10.4 195 0 977.0 NA 0.0000 9999 660 0 0 0
2019/09/21 14:27:00 BASE 6.81 273 8.75 276 -10.4 100 -10.4 197 0 977.0 NA 0.0000 9999 590 0 0 0
2019/09/21 14:28:00 BASE 6.94 271 8.75 276 -10.4 100 -10.4 198 0 977.0 NA 0.0000 9999 590 0 0 0
2019/09/21 14:29:00 BASE 6.01 271 8.75 276 -10.4 100 -10.4 199 0 977.0 NA 0.0000 9999 590 0 0 0
2019/09/21 14:30:00 BASE 5.87 274 8.75 276 -10.4 100 -10.4 198 0 977.0 NA 0.0000 9999 690 0 0 0
2019/09/21 14:31:00 BASE 6.37 275 8.75 276 -10.4 100 -10.4 197 0 977.0 NA 0.0000 9999 690 0 0 0
2019/09/21 14:32:00 BASE 6.58 278 8.75 276 -10.4 100 -10.4 200 0 977.1 NA 0.0000 9999 660 0 0 0
2019/09/21 14:33:00 BASE 6.45 280 8.75 276 -10.4 100 -10.4 208 0 977.1 NA 0.0000 9999 590 0 0 0
2019/09/21 14:34:00 BASE 6.02 277 8.75 276 -10.4 100 -10.4 220 0 977.1 NA 0.0000 9999 660 0 0 0
2019/09/21 14:35:00 BASE 5.56 275 8.75 276 -10.4 100 -10.4 234 0 977.1 NA 0.0000 9999 660 0 0 0
2019/09/21 14:36:00 BASE 5.85 275 8.75 276 -10.4 100 -10.4 244 0 977.1 NA 0.0000 9999 590 0 0 0
2019/09/21 14:37:00 BASE 6.31 276 7.77 284 -10.4 100 -10.4 247 0 977.2 NA 0.0000 9999 560 0 0 0
2019/09/21 14:38:00 BASE 6.54 276 7.77 284 -10.4 100 -10.4 248 0 977.2 NA 0.0000 9999 620 22510 0 0
2019/09/21 14:39:00 BASE 6.65 277 7.77 284 -10.4 100 -10.4 249 0 977.2 NA 0.0000 9999 590 0 0 0
2019/09/21 14:40:00 BASE 6.70 276 7.77 284 -10.4 100 -10.4 250 0 977.2 NA 0.0000 9999 560 0 0 0
2019/09/21 14:41:00 BASE 6.76 273 7.82 269 -10.4 100 -10.4 251 0 977.2 NA 0.0000 9999 590 0 0 0
2019/09/21 14:42:00 BASE 7.28 274 8.59 276 -10.4 100 -10.4 251 0 977.2 NA 0.0000 9999 590 0 0 0
2019/09/21 14:43:00 BASE 7.30 277 8.59 276 -10.4 100 -10.4 249 0 977.3 NA 0.0000 9999 390 0 0 0
2019/09/21 14:44:00 BASE 7.16 279 8.59 276 -10.5 100 -10.5 244 0 977.3 NA 0.0000 9999 590 23260 0 0
2019/09/21 14:45:00 BASE 7.45 278 8.59 276 -10.5 100 -10.5 238 0 977.3 NA 0.0000 9999 560 0 0 0
2019/09/21 14:46:00 BASE 7.27 280 8.59 276 -10.5 100 -10.5 231 0 977.3 NA 0.0000 9999 660 0 0 0
2019/09/21 14:47:00 BASE 7.21 283 8.59 276 -10.5 100 -10.5 227 0 977.3 NA 0.0000 9999 590 0 0 0
2019/09/21 14:48:00 BASE 7.25 280 8.69 274 -10.5 100 -10.5 225 0 977.3 NA 0.0000 9999 590 0 0 0
2019/09/21 14:49:00 BASE 6.94 281 8.69 274 -10.4 100 -10.4 226 0 977.3 NA 0.0000 9999 560 0 0 0
2019/09/21 14:50:00 BASE 6.96 280 8.69 274 -10.4 100 -10.4 231 0 977.3 NA 0.0000 9999 590 0 0 0
2019/09/21 14:51:00 BASE 6.89 275 8.69 274 -10.4 100 -10.4 239 0 977.3 NA 0.0000 9999 590 0 0 0
2019/09/21 14:52:00 BASE 6.25 270 8.69 274 -10.5 100 -10.5 248 0 977.3 NA 0.0000 9999 590 0 0 0
2019/09/21 14:53:00 BASE 6.02 270 8.69 274 -10.5 100 -10.5 256 0 977.3 NA 0.0000 9999 430 17980 0 0
2019/09/21 14:54:00 BASE 6.61 280 8.69 274 -10.5 100 -10.5 259 0 977.3 NA 0.0000 9999 560 0 0 0
2019/09/21 14:55:00 BASE 7.33 284 8.69 274 -10.5 100 -10.5 260 0 977.3 NA 0.0000 9999 590 0 0 0
2019/09/21 14:56:00 BASE 7.41 282 8.69 274 -10.6 100 -10.6 260 0 977.3 NA 0.0000 9999 620 0 0 0
2019/09/21 14:57:00 BASE 7.21 285 8.69 274 -10.6 100 -10.6 257 0 977.3 NA 0.0000 9999 590 0 0 0
2019/09/21 14:58:00 BASE 6.82 284 8.28 281 -10.6 100 -10.6 252 0 977.3 NA 0.0000 9999 660 0 0 0
2019/09/21 14:59:00 BASE 6.43 281 8.28 281 -10.6 100 -10.6 245 0 977.3 NA 0.0000 9999 360 0 0 0
2019/09/21 15:00:00 BASE 6.04 279 8.18 283 -10.6 100 -10.6 237 0 977.3 NA 0.0000 9999 590 0 0 0
2019/09/21 15:01:00 BASE 6.18 279 8.18 283 -10.6 100 -10.6 230 0 977.3 NA 0.0000 9999 620 18340 0 0
2019/09/21 15:02:00 BASE 5.95 279 8.18 283 -10.6 100 -10.6 224 0 977.3 NA 0.0000 9999 590 0 0 0
2019/09/21 15:03:00 BASE 5.58 280 8.18 283 -10.6 100 -10.6 221 0 977.3 NA 0.0000 9999 590 0 0 0
2019/09/21 15:04:00 BASE 5.75 281 8.18 283 -10.6 100 -10.6 223 0 977.3 NA 0.0000 9999 590 0 0 0
2019/09/21 15:05:00 BASE 6.07 284 8.18 283 -10.6 100 -10.6 226 0 977.3 NA 0.0000 9999 590 0 0 0
2019/09/21 15:06:00 BASE 6.86 290 8.03 282 -10.6 100 -10.6 232 0 977.3 NA 0.0000 9999 590 0 0 0
2019/09/21 15:07:00 BASE 7.07 293 7.87 287 -10.6 100 -10.6 239 0 977.4 NA 0.0000 9999 620 0 0 0
2019/09/21 15:08:00 BASE 6.90 293 7.87 287 -10.6 100 -10.6 247 0 977.4 NA 0.0000 9999 620 0 0 0
2019/09/21 15:09:00 BASE 6.79 291 7.87 287 -10.7 100 -10.7 254 0 977.4 NA 0.0000 9999 560 0 0 0
2019/09/21 15:10:00 BASE 6.79 293 7.87 287 -10.7 100 -10.7 260 0 977.4 NA 0.0000 9999 590 0 0 0
2019/09/21 15:11:00 BASE 6.79 293 7.87 287 -10.7 100 -10.7 261 0 977.4 NA 0.0000 9999 520 0 0 0
2019/09/21 15:12:00 BASE 6.54 290 7.87 287 -10.7 100 -10.7 260 0 977.4 NA 0.0000 9999 560 0 0 0
2019/09/21 15:13:00 BASE 6.72 293 7.87 287 -10.7 100 -10.7 258 0 977.5 NA 0.0000 9999 660 23030 0 0
2019/09/21 15:14:00 BASE 6.51 295 7.87 287 -10.7 100 -10.7 258 0 977.6 NA 0.0000 9999 620 0 0 0
2019/09/21 15:15:00 BASE 6.39 290 8.13 281 -10.6 100 -10.6 260 0 977.6 NA 0.0000 9999 560 0 0 0
2019/09/21 15:16:00 BASE 6.67 281 8.13 281 -10.6 100 -10.6 264 0 977.6 NA 0.0000 9999 590 0 0 0
2019/09/21 15:17:00 BASE 6.54 280 8.13 281 -10.6 100 -10.6 269 0 977.6 NA 0.0000 9999 560 0 0 0
2019/09/21 15:18:00 BASE 7.46 286 9.05 285 -10.6 100 -10.6 277 0 977.6 NA 0.0000 9999 660 0 0 0
2019/09/21 15:19:00 BASE 8.20 289 9.21 289 -10.6 100 -10.6 285 0 977.6 NA 0.0000 9999 590 0 0 0
2019/09/21 15:20:00 BASE 7.31 287 9.21 289 -10.7 100 -10.7 292 0 977.7 NA 0.0000 9999 590 0 0 0
2019/09/21 15:21:00 BASE 6.72 280 9.21 289 -10.7 100 -10.7 298 0 977.7 NA 0.0000 9999 560 0 0 0
2019/09/21 15:22:00 BASE 6.67 284 9.21 289 -10.7 100 -10.7 304 0 977.7 NA 0.0000 9999 590 0 0 0
2019/09/21 15:23:00 BASE 6.34 288 9.21 289 -10.7 100 -10.7 313 0 977.7 NA 0.0000 9999 590 20700 0 0
2019/09/21 15:24:00 BASE 6.15 284 9.21 289 -10.7 100 -10.7 326 0 977.7 NA 0.0000 9999 590 0 0 0
2019/09/21 15:25:00 BASE 6.27 280 9.21 289 -10.7 100 -10.7 343 0 977.7 NA 0.0000 9999 590 0 0 0
2019/09/21 15:26:00 BASE 6.37 279 9.21 289 -10.7 100 -10.7 358 0 977.7 NA 0.0000 9999 620 0 0 0
2019/09/21 15:27:00 BASE 6.38 281 9.21 289 -10.7 100 -10.7 366 0 977.7 NA 0.0000 9999 590 0 0 0
2019/09/21 15:28:00 BASE 6.43 285 9.21 289 -10.7 100 -10.7 369 0 977.7 NA 0.0000 9999 660 0 0 0
2019/09/21 15:29:00 BASE 6.65 291 7.82 276 -10.7 100 -10.7 368 0 977.8 NA 0.0000 9999 620 0 0 0
2019/09/21 15:30:00 BASE 7.01 291 7.82 276 -10.7 100 -10.7 363 0 977.8 NA 0.0000 9999 620 0 0 0
2019/09/21 15:31:00 BASE 7.06 284 8.13 288 -10.7 100 -10.7 354 0 977.8 NA 0.0000 9999 620 0 0 0
2019/09/21 15:32:00 BASE 7.55 287 8.90 295 -10.7 100 -10.7 344 0 977.8 NA 0.0000 9999 620 0 0 0
2019/09/21 15:33:00 BASE 7.90 292 8.90 295 -10.7 100 -10.7 334 0 977.8 NA 0.0000 9999 590 0 0 0
2019/09/21 15:34:00 BASE 7.36 293 8.90 295 -10.8 100 -10.8 322 0 977.8 NA 0.0000 9999 430 0 0 0
2019/09/21 15:35:00 BASE 7.18 291 8.90 295 -10.8 100 -10.8 313 0 977.8 NA 0.0000 9999 560 0 0 0
2019/09/21 15:36:00 BASE 7.53 288 8.90 295 -10.8 100 -10.8 310 0 977.8 NA 0.0000 9999 360 0 0 0
2019/09/21 15:37:00 BASE 7.84 286 9.05 287 -10.8 100 -10.8 313 0 977.9 NA 0.0000 9999 230 0 0 0
2019/09/21 15:38:00 BASE 7.80 284 9.05 287 -10.8 100 -10.8 321 0 977.9 NA 0.0000 9999 330 0 0 0
2019/09/21 15:39:00 BASE 8.05 287 9.05 287 -10.8 100 -10.8 332 0 977.9 NA 0.0000 9999 230 0 0 0
2019/09/21 15:40:00 BASE 8.00 289 9.05 287 -10.8 100 -10.8 342 0 977.9 NA 0.0000 9999 23260 0 0 0
2019/09/21 15:41:00 BASE 7.73 287 9.05 287 -10.9 100 -10.9 340 0 977.9 NA 0.0000 9999 0 0 0 1120
2019/09/21 15:42:00 BASE 7.37 284 9.05 287 -10.9 100 -10.9 327 0 977.9 NA 0.0000 9999 0 0 0 1080
2019/09/21 15:43:00 BASE 6.98 286 9.05 287 -10.9 100 -10.9 309 0 977.9 NA 0.0000 7000 0 0 0 1080
2019/09/21 15:44:00 BASE 7.51 289 9.05 287 -10.9 100 -10.9 296 0 977.9 NA 0.0000 -SN 9999 0 0 0 1050
2019/09/21 15:45:00 BASE 7.86 295 9.05 287 -10.9 100 -10.9 290 0 977.9 NA 0.0000 -SN 9999 0 0 0 1050
2019/09/21 15:46:00 BASE 7.87 300 9.05 287 -10.9 100 -10.9 289 0 977.9 NA 0.0000 -SN 9999 22840 0 0 0
2019/09/21 15:47:00 BASE 8.20 300 9.52 288 -10.9 100 -10.9 288 0 977.9 NA 0.0000 -SN 9999 0 0 0 1080
2019/09/21 15:48:00 BASE 8.35 293 9.52 288 -10.9 100 -10.9 289 0 977.9 NA 0.0000 -SN 9999 0 0 0 1080
2019/09/21 15:49:00 BASE 8.24 284 9.77 275 -10.9 100 -10.9 289 0 978.0 NA 0.0000 -SN 9999 0 0 0 1180
2019/09/21 15:50:00 BASE 8.41 280 9.98 279 -10.9 100 -10.9 290 0 978.0 NA 0.0000 -SN 9999 0 0 0 1120
2019/09/21 15:51:00 BASE 9.03 279 10.70 270 -10.9 100 -10.9 294 0 978.0 NA 0.0000 -SN 9999 0 0 0 1120
2019/09/21 15:52:00 BASE 9.01 277 10.70 270 -11.0 100 -11.0 297 0 978.1 NA 0.0000 -SN 9999 0 0 0 1080
2019/09/21 15:53:00 BASE 8.49 277 10.70 270 -11.0 100 -11.0 297 0 978.0 NA 0.0000 -SN 9999 0 0 0 1120
2019/09/21 15:54:00 BASE 8.50 280 10.70 270 -11.1 100 -11.1 297 0 978.1 NA 0.0000 -SN 9999 0 0 0 1080
2019/09/21 15:55:00 BASE 8.51 280 10.70 270 -11.1 100 -11.1 299 0 978.1 NA 0.0000 -SN 9999 0 0 0 1080
2019/09/21 15:56:00 BASE 8.37 279 10.70 270 -11.1 100 -11.1 301 0 978.1 NA 0.0000 -SN 9000 0 0 0 1120
2019/09/21 15:57:00 BASE 7.68 278 10.70 270 -11.1 100 -11.1 302 0 978.1 NA 0.0000 -SN 9999 0 0 0 1080
2019/09/21 15:58:00 BASE 6.53 278 10.70 270 -11.1 100 -11.1 299 0 978.2 NA 0.0000 -SN 9999 0 0 0 1050
2019/09/21 15:59:00 BASE 6.40 281 10.70 270 -11.1 100 -11.1 297 0 978.1 NA 0.0000 9999 0 0 0 1020
2019/09/21 16:00:00 BASE 7.28 285 10.70 270 -11.0 100 -11.0 293 0 978.1 NA 0.0000 9999 23000 0 0 0
2019/09/21 16:01:00 BASE 7.95 286 9.98 279 -11.0 100 -11.0 291 0 978.1 NA 0.0000 9999 0 0 0 1120
2019/09/21 16:02:00 BASE 7.71 288 9.98 279 -11.0 100 -11.0 290 0 978.1 NA 0.0000 9999 0 0 0 1080
2019/09/21 16:03:00 BASE 7.31 289 9.98 279 -11.1 100 -11.1 290 0 978.2 NA 0.0000 9999 0 0 0 1150
2019/09/21 16:04:00 BASE 7.13 285 9.98 279 -11.1 100 -11.1 291 0 978.2 NA 0.0000 9999 0 0 0 1120
2019/09/21 16:05:00 BASE 6.90 278 9.77 266 -11.1 100 -11.1 292 0 978.2 NA 0.0000 9999 0 0 0 1050
2019/09/21 16:06:00 BASE 6.83 281 9.31 284 -11.1 100 -11.1 291 0 978.2 NA 0.0000 9999 23560 0 0 0
2019/09/21 16:07:00 BASE 7.08 287 9.31 284 -11.2 100 -11.2 291 0 978.3 NA 0.0000 9999 0 0 0 1050
2019/09/21 16:08:00 BASE 7.86 288 9.31 284 -11.1 100 -11.1 289 0 978.3 NA 0.0000 9999 0 0 0 1050
2019/09/21 16:09:00 BASE 7.89 287 9.31 284 -11.1 100 -11.1 287 0 978.3 NA 0.0000 9000 0 0 0 1020
2019/09/21 16:10:00 BASE 7.54 286 9.31 284 -11.1 100 -11.1 287 0 978.3 NA 0.0000 -SN 9999 0 0 0 950
2019/09/21 16:11:00 BASE 7.56 284 9.21 288 -11.1 100 -11.1 287 0 978.3 NA 0.0000 -SN 9999 0 0 0 1020
2019/09/21 16:12:00 BASE 7.40 284 9.21 288 -11.1 100 -11.1 288 0 978.3 NA 0.0000 -SN 9999 0 0 0 1020
2019/09/21 16:13:00 BASE 6.76 285 9.21 288 -11.1 100 -11.1 291 0 978.3 NA 0.0000 -SN 9999 0 0 0 1150
2019/09/21 16:14:00 BASE 6.24 286 9.21 288 -11.1 100 -11.1 294 0 978.3 NA 0.0000 -SN 9999 0 0 0 1150
2019/09/21 16:15:00 BASE 6.55 289 9.21 288 -11.1 100 -11.1 297 0 978.3 NA 0.0000 -SN 7000 0 0 0 1120
2019/09/21 16:16:00 BASE 7.15 286 9.21 288 -11.1 100 -11.1 298 0 978.3 NA 0.0000 -SN 6000 0 0 0 1050
2019/09/21 16:17:00 BASE 6.93 281 9.21 288 -11.1 100 -11.1 297 0 978.3 NA 0.0000 -SN 9999 0 0 0 1020
2019/09/21 16:18:00 BASE 7.53 283 9.62 279 -11.1 100 -11.1 296 0 978.3 NA 0.0000 -SN 9000 0 0 0 1020
2019/09/21 16:19:00 BASE 8.38 286 9.62 279 -11.1 100 -11.1 295 0 978.3 NA 0.0000 -SN 8000 0 0 0 1050
2019/09/21 16:20:00 BASE 7.90 287 9.62 279 -11.1 100 -11.1 294 0 978.4 NA 0.0000 -SN BR 6000 0 0 0 1120
2019/09/21 16:21:00 BASE 7.69 292 9.62 279 -11.1 100 -11.1 292 0 978.4 NA 0.0000 -SN BR 9999 0 0 0 1150
2019/09/21 16:22:00 BASE 7.64 290 9.62 279 -11.1 100 -11.1 293 0 978.4 NA 0.0000 -SN BR 9999 230 17520 0 0
2019/09/21 16:23:00 BASE 7.31 287 9.62 279 -11.2 100 -11.2 297 0 978.4 NA 0.0000 -SN BR 9999 260 0 0 0
2019/09/21 16:24:00 BASE 6.61 288 9.62 279 -11.2 100 -11.2 305 0 978.4 NA 0.0000 -SN BR 9999 260 0 0 0
2019/09/21 16:25:00 BASE 6.42 288 9.62 279 -11.2 100 -11.2 318 0 978.4 NA 0.0000 -SN BR 9999 300 0 0 0
2019/09/21 16:26:00 BASE 7.40 291 9.62 279 -11.1 100 -11.1 334 0 978.4 NA 0.0000 -SN 9999 300 0 0 0
2019/09/21 16:27:00 BASE 7.55 292 9.62 279 -11.1 100 -11.1 349 0 978.4 NA 0.0000 -SN 9999 230 0 0 0
2019/09/21 16:28:00 BASE 7.25 289 8.90 294 -11.1 100 -11.1 359 0 978.4 NA 0.0000 -SN 9999 200 0 0 0
2019/09/21 16:29:00 BASE 7.28 296 8.90 294 -11.1 100 -11.1 352 0 978.4 NA 0.0000 -SN 9999 300 0 0 0
2019/09/21 16:30:00 BASE 6.87 300 8.90 294 -11.0 100 -11.0 331 0 978.4 NA 0.0000 9999 260 0 0 0
2019/09/21 16:31:00 BASE 6.85 295 8.90 294 -11.0 100 -11.0 311 0 978.5 NA 0.0000 9999 260 0 0 0
2019/09/21 16:32:00 BASE 6.99 295 8.90 294 -11.0 100 -11.0 299 0 978.5 NA 0.0000 9999 300 0 0 0
2019/09/21 16:33:00 BASE 7.11 298 8.90 294 -11.0 100 -11.0 294 0 978.5 NA 0.0000 9999 360 0 0 0
2019/09/21 16:34:00 BASE 7.60 295 8.90 294 -11.1 100 -11.1 292 0 978.4 NA 0.0000 9999 330 0 0 0
2019/09/21 16:35:00 BASE 7.87 288 8.90 294 -11.1 100 -11.1 291 0 978.4 NA 0.0000 9999 330 0 0 0
2019/09/21 16:36:00 BASE 7.82 286 8.59 280 -11.1 100 -11.1 294 0 978.5 NA 0.0000 9999 230 0 0 0
2019/09/21 16:37:00 BASE 7.82 286 8.64 285 -11.1 100 -11.1 299 0 978.5 NA 0.0000 9999 230 0 0 0
2019/09/21 16:38:00 BASE 7.28 285 8.64 285 -11.2 100 -11.2 303 0 978.5 NA 0.0000 9999 300 0 0 0
2019/09/21 16:39:00 BASE 6.65 282 8.64 285 -11.2 100 -11.2 309 0 978.5 NA 0.0000 9999 230 0 0 0
2019/09/21 16:40:00 BASE 6.56 282 8.64 285 -11.2 100 -11.2 314 0 978.5 NA 0.0000 9999 0 0 0 1080
2019/09/21 16:41:00 BASE 6.85 278 8.64 285 -11.2 100 -11.2 316 0 978.5 NA 0.0000 9999 0 0 0 1050
2019/09/21 16:42:00 BASE 6.57 272 8.64 285 -11.2 100 -11.2 311 0 978.5 NA 0.0000 9999 0 0 0 1050
2019/09/21 16:43:00 BASE 6.07 277 8.64 285 -11.2 100 -11.2 306 0 978.5 NA 0.0000 9000 0 0 0 1020
2019/09/21 16:44:00 BASE 6.60 287 8.64 285 -11.2 100 -11.2 307 0 978.5 NA 0.0000 6000 0 0 0 1050
2019/09/21 16:45:00 BASE 7.36 293 8.64 285 -11.2 100 -11.2 311 0 978.5 NA 0.0000 -SN 9000 0 0 0 1050
2019/09/21 16:46:00 BASE 6.98 295 8.64 285 -11.2 100 -11.2 315 0 978.5 NA 0.0000 -SN BR 9999 23000 0 0 0
2019/09/21 16:47:00 BASE 6.75 296 8.08 292 -11.3 100 -11.3 316 0 978.5 NA 0.0000 -SN BR 9999 0 0 0 1120
2019/09/21 16:48:00 BASE 6.88 294 8.08 292 -11.3 100 -11.3 313 0 978.5 NA 0.0000 -SN BR 9000 0 0 0 1150
2019/09/21 16:49:00 BASE 6.55 289 8.08 292 -11.3 100 -11.3 308 0 978.5 NA 0.0000 -SN BR 7000 0 0 0 1120
2019/09/21 16:50:00 BASE 6.14 285 8.08 292 -11.3 100 -11.3 303 0 978.5 NA 0.0000 -SN BR 6000 0 0 0 1050
2019/09/21 16:51:00 BASE 6.06 284 8.08 292 -11.3 100 -11.3 302 0 978.6 NA 0.0000 -SN BR 9999 0 0 0 1080
2019/09/21 16:52:00 BASE 6.63 290 8.08 292 -11.2 100 -11.2 305 0 978.6 NA 0.0000 -SN BR 9999 0 0 0 1080
2019/09/21 16:53:00 BASE 6.67 292 8.08 292 -11.2 100 -11.2 314 0 978.6 NA 0.0000 -SN BR 9999 0 0 0 1120
2019/09/21 16:54:00 BASE 6.24 289 8.08 292 -11.2 100 -11.2 321 0 978.6 NA 0.0000 -SN BR 9999 0 0 0 1080
2019/09/21 16:55:00 BASE 6.54 291 7.82 296 -11.2 100 -11.2 324 0 978.6 NA 0.0000 -SN 9999 0 0 0 1080
2019/09/21 16:56:00 BASE 7.04 290 8.33 281 -11.2 100 -11.2 324 0 978.6 NA 0.0000 -SN 9999 0 0 0 1050
2019/09/21 16:57:00 BASE 6.97 283 8.33 281 -11.2 100 -11.2 322 0 978.7 NA 0.0000 -SN 9999 0 0 0 1080
2019/09/21 16:58:00 BASE 7.07 285 8.33 281 -11.2 100 -11.2 319 0 978.7 NA 0.0000 -SN 9999 0 0 0 1050
2019/09/21 16:59:00 BASE 7.34 289 8.33 281 -11.2 100 -11.2 317 0 978.7 NA 0.0000 -SN 9999 0 0 0 1080
2019/09/21 17:00:00 BASE 7.14 290 8.33 281 -11.2 100 -11.2 317 0 978.7 NA 0.0000 9999 0 0 0 1120
2019/09/21 17:01:00 BASE 7.18 292 8.33 289 -11.3 100 -11.3 317 0 978.7 NA 0.0000 9999 300 0 0 0
2019/09/21 17:02:00 BASE 7.41 291 8.33 289 -11.3 100 -11.3 317 0 978.7 NA 0.0000 9999 330 0 0 0
2019/09/21 17:03:00 BASE 7.29 289 8.33 289 -11.3 100 -11.3 316 0 978.7 NA 0.0000 9999 260 0 0 0
2019/09/21 17:04:00 BASE 7.56 291 8.49 293 -11.3 100 -11.3 317 0 978.7 NA 0.0000 9999 0 0 0 1150
2019/09/21 17:05:00 BASE 7.73 287 8.49 293 -11.4 100 -11.4 319 0 978.8 NA 0.0000 9999 300 0 0 0
2019/09/21 17:06:00 BASE 7.74 285 9.47 295 -11.4 100 -11.4 321 0 978.8 NA 0.0000 9999 0 0 0 1120
2019/09/21 17:07:00 BASE 7.92 288 9.47 295 -11.4 100 -11.4 319 0 978.8 NA 0.0000 9999 200 0 0 0
2019/09/21 17:08:00 BASE 7.83 288 9.47 295 -11.4 100 -11.4 320 0 978.8 NA 0.0000 9999 0 0 0 1120
2019/09/21 17:09:00 BASE 7.73 286 9.47 295 -11.4 100 -11.4 326 0 978.8 NA 0.0000 9999 23070 0 0 0
2019/09/21 17:10:00 BASE 7.75 283 9.47 295 -11.4 100 -11.4 332 0 978.8 NA 0.0000 9999 0 0 0 1120
2019/09/21 17:11:00 BASE 7.97 286 9.47 291 -11.4 100 -11.4 330 0 978.9 NA 0.0000 9999 0 0 0 1120
2019/09/21 17:12:00 BASE 9.08 291 10.70 293 -11.4 100 -11.4 320 0 978.8 NA 0.0000 9999 0 0 0 1120
2019/09/21 17:13:00 BASE 9.57 291 10.70 293 -11.5 100 -11.5 314 0 978.9 NA 0.0000 9999 0 0 0 1120
2019/09/21 17:14:00 BASE 8.96 291 10.70 293 -11.5 100 -11.5 320 0 978.9 NA 0.0000 9999 0 0 0 1120
2019/09/21 17:15:00 BASE 8.05 290 10.70 293 -11.5 100 -11.5 333 0 978.9 NA 0.0000 9000 0 0 0 1120
2019/09/21 17:16:00 BASE 7.45 290 10.70 293 -11.6 100 -11.6 346 0 979.0 NA 0.0000 -SN 8000 230 0 0 0
2019/09/21 17:17:00 BASE 7.13 292 10.70 293 -11.5 100 -11.5 356 0 979.0 NA 0.0000 -SN 9999 300 0 0 0
2019/09/21 17:18:00 BASE 6.81 287 10.70 293 -11.5 100 -11.5 375 0 979.0 NA 0.0000 -SN 9999 200 0 0 0
2019/09/21 17:19:00 BASE 7.18 284 10.70 293 -11.5 100 -11.5 387 0 979.0 NA 0.0000 -SN 9999 0 0 0 1150
2019/09/21 17:20:00 BASE 8.38 287 10.70 293 -11.5 100 -11.5 384 0 979.0 NA 0.0000 -SN 9999 17880 0 0 0
2019/09/21 17:21:00 BASE 8.59 285 10.70 293 -11.5 100 -11.5 373 0 979.1 NA 0.0000 -SN 9999 0 0 0 1150
2019/09/21 17:22:00 BASE 8.02 283 10.03 291 -11.5 100 -11.5 362 0 979.1 NA 0.0000 -SN 9000 0 0 0 1180
2019/09/21 17:23:00 BASE 7.85 282 10.03 291 -11.6 100 -11.6 358 0 979.1 NA 0.0000 -SN 9999 200 0 0 0
2019/09/21 17:24:00 BASE 7.67 286 10.03 291 -11.6 100 -11.6 358 0 979.1 NA 0.0000 -SN 9999 300 0 0 0
2019/09/21 17:25:00 BASE 8.30 290 10.03 291 -11.6 100 -11.6 358 0 979.2 NA 0.0000 -SN 9999 300 21330 0 0
2019/09/21 17:26:00 BASE 8.46 289 10.03 291 -11.6 100 -11.6 364 0 979.2 NA 0.0000 -SN 9999 0 0 0 1210
2019/09/21 17:27:00 BASE 7.87 287 10.03 291 -11.6 100 -11.6 378 0 979.2 NA 0.0000 -SN 9000 260 23200 0 0
2019/09/21 17:28:00 BASE 8.04 290 10.03 291 -11.6 100 -11.6 382 0 979.2 NA 0.0000 -SN 9000 300 0 0 0
2019/09/21 17:29:00 BASE 8.31 291 10.03 291 -11.6 100 -11.6 380 0 979.2 NA 0.0000 -SN 9999 330 0 0 0
2019/09/21 17:30:00 BASE 8.83 288 9.98 285 -11.6 100 -11.6 377 0 979.2 NA 0.0000 -SN 9000 330 0 0 0
2019/09/21 17:31:00 BASE 9.17 289 9.98 285 -11.6 100 -11.6 374 0 979.2 NA 0.0000 -SN 9999 330 0 0 0
2019/09/21 17:32:00 BASE 8.20 288 9.98 285 -11.6 100 -11.6 369 0 979.2 NA 0.0000 -SN 9999 360 0 0 0
2019/09/21 17:33:00 BASE 7.95 282 9.98 285 -11.6 100 -11.6 365 0 979.3 NA 0.0000 -SN 9000 260 23070 0 0
2019/09/21 17:34:00 BASE 8.93 278 10.75 278 -11.6 100 -11.6 364 0 979.3 NA 0.0000 -SN 9000 230 0 0 0
2019/09/21 17:35:00 BASE 9.38 286 10.75 278 -11.6 100 -11.6 365 0 979.3 NA 0.0000 -SN 9999 260 0 0 0
2019/09/21 17:36:00 BASE 10.31 292 12.09 288 -11.6 100 -11.6 361 0 979.3 NA 0.0000 -SN BR 9999 330 0 0 0
2019/09/21 17:37:00 BASE 10.72 289 12.09 288 -11.7 100 -11.7 350 0 979.3 NA 0.0000 -SN 9000 0 0 0 1210
2019/09/21 17:38:00 BASE 9.66 287 12.09 288 -11.7 100 -11.7 335 0 979.3 NA 0.0000 -SN 9000 0 0 0 1180
2019/09/21 17:39:00 BASE 9.62 282 12.09 288 -11.8 100 -11.8 322 0 979.3 NA 0.0000 -SN 9999 200 0 0 0
2019/09/21 17:40:00 BASE 10.21 281 12.09 288 -11.8 100 -11.8 313 0 979.3 NA 0.0000 -SN 9999 0 0 0 1210
2019/09/21 17:41:00 BASE 10.27 283 12.09 288 -11.9 100 -11.9 305 0 979.3 NA 0.0000 -SN 9999 0 0 0 1210
2019/09/21 17:42:00 BASE 9.95 285 12.09 288 -11.9 100 -11.9 293 0 979.4 NA 0.0000 -SN 9999 0 0 0 1180
2019/09/21 17:43:00 BASE 9.65 284 12.09 288 -11.9 100 -11.9 279 0 979.4 NA 0.0000 -SN 9999 0 0 0 1180
2019/09/21 17:44:00 BASE 9.56 284 12.09 288 -11.9 100 -11.9 269 0 979.4 NA 0.0000 -SN 9999 0 0 0 1180
2019/09/21 17:45:00 BASE 10.23 289 12.09 288 -12.0 100 -12.0 261 0 979.5 NA 0.0000 -SN 9999 0 0 0 1250
2019/09/21 17:46:00 BASE 10.33 294 11.99 283 -12.0 100 -12.0 255 0 979.5 NA 0.0000 -SN 9999 330 0 0 0
2019/09/21 17:47:00 BASE 9.80 294 11.99 283 -12.1 100 -12.1 250 0 979.5 NA 0.0000 -SN 9999 260 0 0 0
2019/09/21 17:48:00 BASE 9.96 288 11.99 283 -12.1 100 -12.1 247 0 979.5 NA 0.0000 -SN 9999 200 0 0 0
2019/09/21 17:49:00 BASE 9.58 288 11.99 283 -12.2 100 -12.2 245 0 979.5 NA 0.0000 -SN 9999 0 0 0 1250
2019/09/21 17:50:00 BASE 9.17 294 11.68 293 -12.2 100 -12.2 244 0 979.5 NA 0.0000 -SN 9999 260 0 0 0
2019/09/21 17:51:00 BASE 9.73 296 11.68 293 -12.2 100 -12.2 244 0 979.5 NA 0.0000 -SN 9999 300 0 0 0
2019/09/21 17:52:00 BASE 9.71 294 11.68 293 -12.3 100 -12.3 244 0 979.5 NA 0.0000 -SN 9999 330 0 0 0
2019/09/21 17:53:00 BASE 9.00 295 11.68 293 -12.3 100 -12.3 244 0 979.5 NA 0.0000 -SN 9999 360 16960 0 0
2019/09/21 17:54:00 BASE 8.66 298 11.68 293 -12.3 100 -12.3 244 0 979.5 NA 0.0000 9999 360 0 0 0
2019/09/21 17:55:00 BASE 8.29 297 11.57 285 -12.4 100 -12.4 243 0 979.6 NA 0.0000 9999 300 0 0 0
2019/09/21 17:56:00 BASE 8.31 295 11.57 285 -12.4 100 -12.4 241 0 979.6 NA 0.0000 9999 0 0 0 1180
2019/09/21 17:57:00 BASE 8.58 294 11.57 285 -12.4 100 -12.4 239 0 979.6 NA 0.0000 9999 0 0 0 1210
2019/09/21 17:58:00 BASE 8.29 294 11.21 287 -12.4 100 -12.4 237 0 979.6 NA 0.0000 9999 0 0 0 1250
2019/09/21 17:59:00 BASE 7.94 296 11.16 300 -12.4 100 -12.4 235 0 979.6 NA 0.0000 9999 0 0 0 1210
2019/09/21 18:00:00 BASE 7.85 298 10.80 296 -12.4 100 -12.4 232 0 979.6 NA 0.0000 9999 0 0 0 1250
2019/09/21 18:01:00 BASE 8.32 299 9.88 295 -12.4 100 -12.4 228 0 979.6 NA 0.0000 9999 300 0 0 0
2019/09/21 18:02:00 BASE 8.89 298 9.77 293 -12.4 100 -12.4 226 0 979.7 NA 0.0000 9999 300 0 0 0
2019/09/21 18:03:00 BASE 8.86 293 9.77 293 -12.4 100 -12.4 224 0 979.7 NA 0.0000 9999 230 0 0 0
2019/09/21 18:04:00 BASE 8.80 288 10.60 291 -12.4 100 -12.4 223 0 979.7 NA 0.0000 9999 260 0 0 0
2019/09/21 18:05:00 BASE 9.21 288 10.70 291 -12.4 100 -12.4 222 0 979.7 NA 0.0000 9999 230 0 0 0
2019/09/21 18:06:00 BASE 9.01 287 10.70 291 -12.4 100 -12.4 222 0 979.7 NA 0.0000 9999 230 0 0 0
2019/09/21 18:07:00 BASE 8.47 288 10.70 291 -12.4 100 -12.4 222 0 979.8 NA 0.0000 -SN 9000 0 0 0 1250
2019/09/21 18:08:00 BASE 7.92 285 10.70 291 -12.4 100 -12.4 223 0 979.8 NA 0.0000 -SN 9999 0 0 0 1250
2019/09/21 18:09:00 BASE 7.91 280 10.70 291 -12.4 100 -12.4 224 0 979.8 NA 0.0000 -SN 9999 0 0 0 1250
2019/09/21 18:10:00 BASE 8.74 281 10.70 291 -12.4 100 -12.4 225 0 979.8 NA 0.0000 -SN 9999 230 0 0 0
2019/09/21 18:11:00 BASE 9.11 285 10.70 291 -12.4 100 -12.4 228 0 979.8 NA 0.0000 -SN 9999 360 0 0 0
2019/09/21 18:12:00 BASE 9.77 289 11.32 288 -12.4 100 -12.4 231 0 979.8 NA 0.0000 -SN 9999 330 19360 0 0
2019/09/21 18:13:00 BASE 9.92 291 11.32 288 -12.4 100 -12.4 233 0 979.8 NA 0.0000 -SN 9999 200 0 0 0
2019/09/21 18:14:00 BASE 9.40 291 11.32 288 -12.5 100 -12.5 237 0 979.8 NA 0.0000 -SN 9999 0 0 0 1280
2019/09/21 18:15:00 BASE 8.81 288 11.32 288 -12.5 100 -12.5 241 0 979.8 NA 0.0000 -SN 9999 0 0 0 1250
2019/09/21 18:16:00 BASE 8.61 286 11.32 288 -12.5 100 -12.5 246 0 979.8 NA 0.0000 -SN 9999 330 0 0 0
2019/09/21 18:17:00 BASE 8.67 287 11.32 288 -12.5 100 -12.5 253 0 979.8 NA 0.0000 9999 0 0 0 1250
2019/09/21 18:18:00 BASE 8.45 287 11.32 288 -12.5 100 -12.5 260 0 979.9 NA 0.0000 9999 200 0 0 0
2019/09/21 18:19:00 BASE 8.39 286 11.32 288 -12.5 100 -12.5 266 0 979.9 NA 0.0000 9999 360 23200 0 0
2019/09/21 18:20:00 BASE 8.76 289 11.32 288 -12.5 100 -12.5 267 0 979.9 NA 0.0000 9999 260 0 0 0
2019/09/21 18:21:00 BASE 9.13 289 11.32 288 -12.5 100 -12.5 263 0 980.0 NA 0.0000 9999 0 0 0 1250
2019/09/21 18:22:00 BASE 9.54 286 11.68 282 -12.4 100 -12.4 259 0 980.0 NA 0.0000 9999 0 0 0 1210
2019/09/21 18:23:00 BASE 9.73 288 11.68 282 -12.4 100 -12.4 253 0 980.0 NA 0.0000 9999 360 0 0 0
2019/09/21 18:24:00 BASE 9.01 291 11.68 282 -12.4 100 -12.4 239 0 980.1 NA 0.0000 9999 300 0 0 0
2019/09/21 18:25:00 BASE 9.24 294 11.68 282 -12.4 100 -12.4 220 0 980.1 NA 0.0000 9999 300 0 0 0
2019/09/21 18:26:00 BASE 9.80 294 11.68 282 -12.5 100 -12.5 207 0 980.1 NA 0.0000 9999 300 0 0 0
2019/09/21 18:27:00 BASE 9.93 292 11.68 282 -12.5 100 -12.5 200 0 980.1 NA 0.0000 9999 0 0 0 1180
2019/09/21 18:28:00 BASE 9.70 291 11.68 282 -12.5 100 -12.5 198 0 980.2 NA 0.0000 9999 0 0 0 1150
2019/09/21 18:29:00 BASE 9.56 293 11.68 282 -12.6 100 -12.6 198 0 980.2 NA 0.0000 9999 0 0 0 1180
2019/09/21 18:30:00 BASE 9.59 294 11.68 282 -12.6 100 -12.6 197 0 980.2 NA 0.0000 9999 260 0 0 0
2019/09/21 18:31:00 BASE 9.04 295 11.68 282 -12.6 100 -12.6 195 0 980.2 NA 0.0000 9999 330 0 0 0
2019/09/21 18:32:00 BASE 8.59 292 11.21 289 -12.6 100 -12.6 196 0 980.3 NA 0.0000 9999 0 0 0 1180
2019/09/21 18:33:00 BASE 8.67 289 11.21 289 -12.6 100 -12.6 199 0 980.3 NA 0.0000 9999 0 0 0 1180
2019/09/21 18:34:00 BASE 8.98 289 11.21 289 -12.6 100 -12.6 200 0 980.3 NA 0.0000 -SN 9999 20180 0 0 0
2019/09/21 18:35:00 BASE 8.70 289 11.21 289 -12.6 100 -12.6 203 0 980.3 NA 0.0000 -SN 9999 0 0 0 1180
2019/09/21 18:36:00 BASE 7.94 290 11.21 289 -12.6 100 -12.6 211 0 980.3 NA 0.0000 -SN 9000 0 0 0 1150
2019/09/21 18:37:00 BASE 7.51 294 11.11 294 -12.5 100 -12.5 218 0 980.3 NA 0.0000 -SN 9000 0 0 0 1180
2019/09/21 18:38:00 BASE 7.27 298 11.11 294 -12.5 100 -12.5 220 0 980.4 NA 0.0000 -SN 9999 0 0 0 1150
2019/09/21 18:39:00 BASE 7.14 290 10.80 295 -12.5 100 -12.5 225 0 980.4 NA 0.0000 -SN 8000 0 0 0 1150
2019/09/21 18:40:00 BASE 7.24 281 9.83 289 -12.5 100 -12.5 232 0 980.4 NA 0.0000 -SN 9000 0 0 0 1180
2019/09/21 18:41:00 BASE 7.64 282 9.83 289 -12.5 100 -12.5 223 0 980.4 NA 0.0000 -SN BR 9999 0 0 0 1210
2019/09/21 18:42:00 BASE 7.96 287 9.83 289 -12.5 100 -12.5 202 0 980.4 NA 0.0000 -SN BR 9999 0 0 0 1250
2019/09/21 18:43:00 BASE 8.54 290 9.83 289 -12.5 100 -12.5 184 0 980.4 NA 0.0000 -SN BR 9999 0 0 0 1210
2019/09/21 18:44:00 BASE 8.52 289 9.52 296 -12.5 100 -12.5 178 0 980.4 NA 0.0000 -SN 9999 0 0 0 1150
2019/09/21 18:45:00 BASE 7.47 287 9.52 296 -12.6 100 -12.6 175 0 980.4 NA 0.0000 -SN 9999 0 0 0 1210
2019/09/21 18:46:00 BASE 6.86 285 9.52 296 -12.6 100 -12.6 169 0 980.4 NA 0.0000 -SN 9999 0 0 0 1210
2019/09/21 18:47:00 BASE 6.77 290 9.52 296 -12.6 100 -12.6 161 0 980.6 NA 0.0000 -SN 9999 0 0 0 1210
2019/09/21 18:48:00 BASE 7.14 296 9.52 296 -12.6 100 -12.6 155 0 980.6 NA 0.0000 -SN 9999 300 0 0 0
2019/09/21 18:49:00 BASE 7.43 301 9.52 296 -12.5 100 -12.5 151 0 980.6 NA 0.0000 -SN 9999 330 0 0 0
2019/09/21 18:50:00 BASE 7.40 303 9.52 296 -12.5 100 -12.5 150 0 980.6 NA 0.0000 -SN 9999 0 0 0 1250
2019/09/21 18:51:00 BASE 7.37 301 9.52 296 -12.5 100 -12.5 152 0 980.6 NA 0.0000 -SN 9999 0 0 0 1210
2019/09/21 18:52:00 BASE 7.84 301 9.52 296 -12.5 100 -12.5 157 0 980.7 NA 0.0000 -SN 9999 230 0 0 0
2019/09/21 18:53:00 BASE 8.24 296 9.41 296 -12.5 100 -12.5 162 0 980.7 NA 0.0000 9999 260 0 0 0
2019/09/21 18:54:00 BASE 7.79 287 9.41 296 -12.5 100 -12.5 165 0 980.7 NA 0.0000 -SN 9999 0 0 0 1250
2019/09/21 18:55:00 BASE 7.21 280 9.41 296 -12.5 100 -12.5 167 0 980.7 NA 0.0000 -SN 7000 0 0 0 1250
2019/09/21 18:56:00 BASE 7.13 279 9.41 296 -12.5 100 -12.5 165 0 980.7 NA 0.0000 -SN 5000 0 0 0 1250
2019/09/21 18:57:00 BASE 7.33 288 9.62 300 -12.4 100 -12.4 161 0 980.7 NA 0.0000 -SN BR 6000 0 0 0 1280
2019/09/21 18:58:00 BASE 7.97 296 9.62 300 -12.4 100 -12.4 158 0 980.7 NA 0.0000 -SN BR 9000 200 0 0 0
2019/09/21 18:59:00 BASE 8.36 300 9.62 300 -12.4 100 -12.4 155 0 980.8 NA 0.0000 -SN BR 9999 330 0 0 0
2019/09/21 19:00:00 BASE 8.31 304 9.62 304 -12.5 100 -12.5 152 0 980.8 NA 0.0000 -SN BR 9999 330 0 0 0
2019/09/21 19:01:00 BASE 8.25 306 9.62 304 -12.5 100 -12.5 149 0 980.8 NA 0.0000 -SN BR 9999 22110 0 0 0
2019/09/21 19:02:00 BASE 8.40 307 9.62 304 -12.5 100 -12.5 148 0 980.8 NA 0.0000 -SN BR 9999 230 0 0 0
2019/09/21 19:03:00 BASE 8.84 305 9.72 306 -12.5 100 -12.5 150 0 980.8 NA 0.0000 -SN BR 9999 0 0 0 1280
2019/09/21 19:04:00 BASE 8.60 301 9.72 306 -12.5 100 -12.5 153 0 980.9 NA 0.0000 -SN BR 9999 230 0 0 0
2019/09/21 19:05:00 BASE 8.35 299 9.72 306 -12.5 100 -12.5 157 0 980.9 NA 0.0000 -SN BR 9999 360 0 0 0
2019/09/21 19:06:00 BASE 7.99 298 9.72 306 -12.5 100 -12.5 161 0 981.0 NA 0.0000 -SN 9999 590 0 0 0
2019/09/21 19:07:00 BASE 7.04 300 9.72 306 -12.5 100 -12.5 163 0 981.0 NA 0.0000 9999 980 0 0 0
2019/09/21 19:08:00 BASE 7.16 303 9.72 306 -12.5 100 -12.5 163 0 981.0 NA 0.0000 9999 360 1020 0 0
2019/09/21 19:09:00 BASE 7.92 303 9.72 306 -12.5 100 -12.5 163 0 981.0 NA 0.0000 9999 300 1080 0 0
2019/09/21 19:10:00 BASE 7.69 301 9.72 306 -12.5 100 -12.5 166 0 981.0 NA 0.0000 9999 0 0 0 1410
2019/09/21 19:11:00 BASE 7.29 299 9.72 306 -12.4 100 -12.4 171 0 981.0 NA 0.0000 -SN 6000 0 0 0 1380
2019/09/21 19:12:00 BASE 7.27 298 9.72 306 -12.4 100 -12.4 175 0 981.0 NA 0.0000 -SN 6000 0 0 0 1440
2019/09/21 19:13:00 BASE 6.96 296 9.21 300 -12.4 100 -12.4 178 0 981.0 NA 0.0000 -SN BR 6000 0 0 0 1410
2019/09/21 19:14:00 BASE 7.07 296 9.21 300 -12.4 100 -12.4 179 0 981.0 NA 0.0000 -SN BR 5000 260 0 0 0
2019/09/21 19:15:00 BASE 8.37 294 10.24 297 -12.4 100 -12.4 179 0 981.0 NA 0.0000 -SN BR 5000 260 22570 0 0
2019/09/21 19:16:00 BASE 8.94 291 10.24 297 -12.4 100 -12.4 181 0 981.0 NA 0.0000 -SN BR 6000 850 0 0 0
2019/09/21 19:17:00 BASE 8.61 298 10.24 297 -12.4 100 -12.4 183 0 981.0 NA 0.0000 -SN BR 6000 460 890 0 0
2019/09/21 19:18:00 BASE 8.69 303 10.24 297 -12.3 100 -12.3 184 0 981.0 NA 0.0000 -SN BR 6000 260 980 0 0
2019/09/21 19:19:00 BASE 8.54 302 10.24 297 -12.3 100 -12.3 187 0 981.0 NA 0.0000 -SN BR 6000 230 980 0 0
2019/09/21 19:20:01 BASE 8.09 298 10.24 297 -12.3 100 -12.3 187 0 981.0 NA 0.0000 -SN BR 6000 0 0 0 1380
2019/09/21 19:21:00 BASE 8.13 297 10.24 297 -12.3 100 -12.3 187 0 981.0 NA 0.0000 -SN BR 8000 0 0 0 1380
2019/09/21 19:22:00 BASE 8.31 301 10.24 297 -12.3 100 -12.3 187 0 981.0 NA 0.0000 -SN BR 8000 260 980 0 0
2019/09/21 19:23:00 BASE 7.79 299 10.24 297 -12.3 100 -12.3 189 0 981.1 NA 0.0000 -SN BR 9000 230 0 0 0
2019/09/21 19:24:00 BASE 7.45 296 10.24 297 -12.3 100 -12.3 192 0 981.2 NA 0.0000 -SN BR 6000 0 0 0 1310
2019/09/21 19:25:00 BASE 7.53 296 9.83 297 -12.2 100 -12.2 192 0 981.2 NA 0.0000 -SN BR 5000 0 0 0 1310
2019/09/21 19:26:00 BASE 8.13 295 9.83 297 -12.2 100 -12.2 190 0 981.2 NA 0.0000 -SN BR 9000 300 0 0 0
2019/09/21 19:27:00 BASE 9.03 294 9.88 293 -12.2 100 -12.2 188 0 981.2 NA 0.0000 -SN BR 9999 360 920 0 0
2019/09/21 19:28:00 BASE 9.45 297 10.24 301 -12.2 100 -12.2 185 0 981.2 NA 0.0000 -SN BR 9999 820 0 0 0
2019/09/21 19:29:00 BASE 9.41 300 10.24 301 -12.3 100 -12.3 181 0 981.2 NA 0.0000 -SN BR 9000 850 0 0 0
2019/09/21 19:30:00 BASE 9.03 300 10.24 301 -12.3 100 -12.3 178 0 981.2 NA 0.0000 -SN BR 9000 750 0 0 0
2019/09/21 19:31:00 BASE 8.58 301 10.24 301 -12.4 100 -12.4 180 0 981.2 NA 0.0000 -SN BR 9999 300 790 0 0
2019/09/21 19:32:00 BASE 8.49 300 10.24 301 -12.4 100 -12.4 189 0 981.2 NA 0.0000 -SN BR 9000 0 0 0 1350
2019/09/21 19:33:00 BASE 9.02 299 10.24 301 -12.4 100 -12.4 200 0 981.2 NA 0.0000 -SN BR 9000 0 0 0 1350
2019/09/21 19:34:00 BASE 9.78 302 10.39 304 -12.3 100 -12.4 205 0 981.2 NA 0.0000 -SN BR 9000 0 0 0 1310
2019/09/21 19:35:00 BASE 9.84 307 10.39 304 -12.4 100 -12.4 203 0 981.2 NA 0.0000 BR 9999 0 0 0 1350
2019/09/21 19:36:00 BASE 9.35 309 10.39 304 -12.3 100 -12.3 197 0 981.2 NA 0.0000 BR 9999 0 0 0 1310
2019/09/21 19:37:00 BASE 9.12 306 10.39 304 -12.4 100 -12.4 190 0 981.3 NA 0.0000 BR 9999 19100 22870 0 0
2019/09/21 19:38:00 BASE 8.71 300 10.39 304 -12.4 100 -12.4 183 0 981.4 NA 0.0000 BR 9000 0 0 0 1280
2019/09/21 19:39:00 BASE 7.84 296 10.39 304 -12.4 100 -12.4 176 0 981.4 NA 0.0000 -SN BR 9999 0 0 0 1280
2019/09/21 19:40:00 BASE 7.34 299 10.39 304 -12.4 100 -12.4 168 0 981.4 NA 0.0000 -SN BR 9999 330 22840 0 0
2019/09/21 19:41:00 BASE 7.17 303 10.39 304 -12.4 100 -12.4 160 0 981.4 NA 0.0000 -SN BR 8000 0 0 0 1310
2019/09/21 19:42:00 BASE 7.72 309 10.39 304 -12.4 100 -12.4 155 0 981.4 NA 0.0000 -SN BR 5000 0 0 0 1280
2019/09/21 19:43:00 BASE 8.85 311 10.39 304 -12.4 100 -12.4 154 0 981.4 NA 0.0000 -SN BR 7000 0 0 0 1250
2019/09/21 19:44:00 BASE 9.49 306 10.19 305 -12.4 100 -12.4 157 0 981.4 NA 0.0000 -SN BR 7000 0 0 0 1280
2019/09/21 19:45:00 BASE 9.39 305 10.19 305 -12.4 100 -12.4 158 0 981.4 NA 0.0000 -SN BR 6000 0 0 0 1280
2019/09/21 19:46:00 BASE 8.57 303 10.19 305 -12.4 100 -12.4 154 0 981.5 NA 0.0000 -SN BR 7000 260 0 0 0
2019/09/21 19:47:00 BASE 7.46 302 9.98 305 -12.4 100 -12.4 148 0 981.5 NA 0.0000 -SN BR 8000 590 0 0 0
2019/09/21 19:48:00 BASE 6.89 302 9.98 305 -12.4 100 -12.4 145 0 981.5 NA 0.0000 -SN BR 9999 660 0 0 0
2019/09/21 19:49:00 BASE 6.99 302 9.98 305 -12.4 100 -12.4 146 0 981.5 NA 0.0000 -SN BR 9999 390 0 0 0
2019/09/21 19:50:00 BASE 7.31 306 9.98 305 -12.4 100 -12.4 149 0 981.6 NA 0.0000 -SN BR 9999 360 0 0 0
2019/09/21 19:51:00 BASE 7.82 311 9.98 305 -12.4 100 -12.4 150 0 981.5 NA 0.0000 -SN BR 9999 850 0 0 0
2019/09/21 19:52:00 BASE 7.91 315 9.98 305 -12.4 100 -12.4 146 0 981.5 NA 0.0000 -SN BR 9999 260 0 0 0
2019/09/21 19:53:00 BASE 7.29 318 9.98 305 -12.4 100 -12.4 140 0 981.5 NA 0.0000 -SN 9999 300 950 0 0
2019/09/21 19:54:00 BASE 7.39 316 9.62 307 -12.4 100 -12.4 133 0 981.6 NA 0.0000 9999 850 0 0 0
2019/09/21 19:55:00 BASE 8.06 316 8.64 303 -12.4 100 -12.4 130 0 981.6 NA 0.0000 9999 360 820 0 0
2019/09/21 19:56:00 BASE 7.92 318 8.59 314 -12.4 100 -12.4 129 0 981.6 NA 0.0000 9999 300 820 0 0
2019/09/21 19:57:00 BASE 8.06 318 8.80 320 -12.4 100 -12.4 129 0 981.6 NA 0.0000 9999 260 0 0 0
2019/09/21 19:58:00 BASE 8.25 319 8.80 320 -12.4 100 -12.4 132 0 981.6 NA 0.0000 9999 300 0 0 0
2019/09/21 19:59:00 BASE 7.77 320 8.80 320 -12.4 100 -12.4 133 0 981.6 NA 0.0000 9999 0 0 0 1280
2019/09/21 20:00:00 BASE 7.69 317 8.80 320 -12.4 100 -12.4 132 0 981.6 NA 0.0000 9999 330 0 0 0
2019/09/21 20:01:00 BASE 7.61 311 8.80 320 -12.4 100 -12.4 129 0 981.6 NA 0.0000 9999 750 0 0 0
2019/09/21 20:02:00 BASE 7.37 304 8.80 320 -12.4 100 -12.4 122 0 981.6 NA 0.0000 9999 430 0 0 0
2019/09/21 20:03:00 BASE 7.74 305 8.80 320 -12.4 100 -12.4 118 0 981.6 NA 0.0000 9999 330 0 0 0
2019/09/21 20:04:00 BASE 8.04 309 8.80 320 -12.3 100 -12.3 117 0 981.7 NA 0.0000 9999 330 0 0 0
2019/09/21 20:05:00 BASE 7.70 311 8.80 320 -12.3 100 -12.3 119 0 981.7 NA 0.0000 9999 22770 0 0 0
2019/09/21 20:06:00 BASE 8.07 315 9.98 321 -12.3 100 -12.3 120 0 981.7 NA 0.0000 -SN 8000 0 0 0 1410
2019/09/21 20:07:00 BASE 9.41 314 10.75 311 -12.3 100 -12.3 119 0 981.6 NA 0.0000 -SN 6000 22870 0 0 0
2019/09/21 20:08:00 BASE 9.40 306 10.75 311 -12.3 100 -12.3 119 0 981.7 NA 0.0000 -SN 9000 260 0 0 0
2019/09/21 20:09:00 BASE 8.69 304 10.75 311 -12.4 100 -12.4 120 0 981.7 NA 0.0000 -SN 9000 230 0 0 0
2019/09/21 20:10:00 BASE 8.99 305 10.75 311 -12.4 100 -12.4 121 0 981.7 NA 0.0000 -SN 9000 330 0 0 0
2019/09/21 20:11:00 BASE 8.92 304 10.75 311 -12.4 100 -12.4 121 0 981.7 NA 0.0000 -SN BR 9999 790 0 0 0
2019/09/21 20:12:00 BASE 8.17 305 10.75 311 -12.4 100 -12.4 120 0 981.7 NA 0.0000 -SN BR 9999 820 0 0 0
2019/09/21 20:13:00 BASE 7.74 307 10.75 311 -12.5 100 -12.5 118 0 981.7 NA 0.0000 -SN BR 9999 850 0 0 0
2019/09/21 20:14:00 BASE 7.62 308 10.75 311 -12.5 100 -12.5 117 0 981.6 NA 0.0000 -SN BR 9999 850 0 0 0
2019/09/21 20:15:00 BASE 7.22 310 10.75 311 -12.5 100 -12.5 117 0 981.7 NA 0.0000 -SN 9999 820 0 0 0
2019/09/21 20:16:00 BASE 7.09 312 10.75 311 -12.5 100 -12.5 120 0 981.7 NA 0.0000 -SN 9999 820 0 0 0
2019/09/21 20:17:00 BASE 7.19 311 9.98 303 -12.5 100 -12.5 124 0 981.7 NA 0.0000 9999 750 0 0 0
2019/09/21 20:18:00 BASE 6.74 312 9.83 302 -12.4 100 -12.4 125 0 981.7 NA 0.0000 9999 790 0 0 0
2019/09/21 20:19:00 BASE 6.52 314 9.83 302 -12.4 100 -12.4 123 0 981.7 NA 0.0000 9999 790 0 0 0
2019/09/21 20:20:00 BASE 6.45 314 8.95 304 -12.4 100 -12.4 119 0 981.6 NA 0.0000 9999 790 0 0 0
2019/09/21 20:21:00 BASE 6.62 315 8.39 305 -12.4 100 -12.4 114 0 981.6 NA 0.0000 9999 850 0 0 0
2019/09/21 20:22:00 BASE 6.78 315 7.97 307 -12.4 100 -12.4 110 0 981.6 NA 0.0000 9999 850 0 0 0
2019/09/21 20:23:00 BASE 6.08 315 7.97 307 -12.4 100 -12.4 105 0 981.6 NA 0.0000 9999 820 0 0 0
2019/09/21 20:24:00 BASE 6.11 315 7.87 309 -12.4 100 -12.4 102 0 981.6 NA 0.0000 9999 820 0 0 0
2019/09/21 20:25:00 BASE 6.38 312 7.87 309 -12.4 100 -12.4 94 0 981.6 NA 0.0000 9999 850 0 0 0
2019/09/21 20:26:00 BASE 5.63 309 7.87 309 -12.5 100 -12.5 87 0 981.6 NA 0.0000 9999 890 20970 23160 0
2019/09/21 20:27:00 BASE 5.38 308 7.72 311 -12.4 100 -12.4 80 0 981.6 NA 0.0000 9999 850 0 0 0
2019/09/21 20:28:00 BASE 5.77 308 7.72 311 -12.4 100 -12.4 74 0 981.6 NA 0.0000 9999 890 0 0 0
2019/09/21 20:29:00 BASE 6.06 310 7.72 311 -12.4 100 -12.4 69 0 981.6 NA 0.0000 9999 850 0 0 0
2019/09/21 20:30:00 BASE 5.88 306 7.72 311 -12.4 100 -12.4 67 0 981.6 NA 0.0000 9999 720 0 0 0
2019/09/21 20:31:00 BASE 5.16 301 7.41 314 -12.5 100 -12.5 66 0 981.6 NA 0.0000 9999 330 0 0 0
2019/09/21 20:32:00 BASE 4.94 303 7.25 317 -12.5 100 -12.5 64 0 981.6 NA 0.0000 -SN 9999 300 0 0 0
2019/09/21 20:33:00 BASE 5.03 305 7.25 317 -12.5 100 -12.5 57 0 981.6 NA 0.0000 -SN 9999 750 0 0 0
2019/09/21 20:34:00 BASE 5.30 303 7.10 306 -12.5 100 -12.5 52 0 981.6 NA 0.0000 -SN 9999 430 0 0 0
2019/09/21 20:35:00 BASE 5.18 298 7.10 306 -12.5 100 -12.5 46 0 981.6 NA 0.0000 -SN 9999 790 0 0 0
2019/09/21 20:36:00 BASE 5.21 298 7.10 306 -12.5 100 -12.5 41 0 981.6 NA 0.0000 -SN 9999 790 0 0 0
2019/09/21 20:37:00 BASE 5.87 302 7.10 306 -12.6 100 -12.6 36 0 981.6 NA 0.0000 -SN 9999 590 0 0 0
2019/09/21 20:38:00 BASE 6.56 297 7.82 283 -12.6 100 -12.6 32 0 981.7 NA 0.0000 -SN 9999 820 0 0 0
2019/09/21 20:39:00 BASE 6.90 287 7.82 283 -12.6 100 -12.6 34 0 981.7 NA 0.0000 -SN 9999 850 0 0 0
2019/09/21 20:40:00 BASE 6.89 287 7.82 283 -12.6 100 -12.6 36 0 981.7 NA 0.0000 -SN 9999 820 0 0 0
2019/09/21 20:41:00 BASE 6.82 293 7.82 283 -12.6 100 -12.6 39 0 981.8 NA 0.0000 -SN 9999 820 0 0 0
2019/09/21 20:42:00 BASE 7.29 299 8.54 301 -12.6 100 -12.6 39 0 981.8 NA 0.0000 9999 790 0 0 0
2019/09/21 20:43:00 BASE 6.92 303 8.54 301 -12.6 100 -12.6 38 0 981.8 NA 0.0000 9999 750 0 0 0
2019/09/21 20:44:00 BASE 6.26 306 8.54 301 -12.6 100 -12.6 38 0 981.8 NA 0.0000 9999 690 0 0 0
2019/09/21 20:45:00 BASE 6.17 304 8.54 301 -12.7 100 -12.7 41 0 981.8 NA 0.0000 9999 720 0 0 0
2019/09/21 20:46:00 BASE 5.59 301 8.54 301 -12.7 100 -12.7 42 0 981.8 NA 0.0000 9999 790 0 0 0
2019/09/21 20:47:00 BASE 6.44 299 8.95 301 -12.7 100 -12.7 42 0 981.8 NA 0.0000 9999 820 0 0 0
2019/09/21 20:48:00 BASE 6.98 301 8.95 301 -12.7 100 -12.7 41 0 981.9 NA 0.0000 9999 750 0 0 0
2019/09/21 20:49:00 BASE 5.86 302 8.95 301 -12.7 100 -12.7 39 0 981.9 NA 0.0000 9999 750 0 0 0
2019/09/21 20:50:00 BASE 6.03 302 8.95 301 -12.7 100 -12.7 39 0 981.8 NA 0.0000 9999 850 0 0 0
2019/09/21 20:51:00 BASE 7.32 306 8.95 301 -12.7 100 -12.7 39 0 981.8 NA 0.0000 9999 790 0 0 0
2019/09/21 20:52:00 BASE 7.27 311 8.95 301 -12.7 100 -12.7 39 0 981.9 NA 0.0000 9999 750 0 0 0
2019/09/21 20:53:00 BASE 6.62 312 8.95 301 -12.7 100 -12.7 37 0 982.0 NA 0.0000 9999 750 0 0 0
2019/09/21 20:54:00 BASE 6.33 315 8.95 301 -12.8 100 -12.8 36 0 982.0 NA 0.0000 9999 790 0 0 0
2019/09/21 20:55:00 BASE 6.81 321 9.00 326 -12.8 100 -12.8 36 0 982.0 NA 0.0000 9999 820 0 0 0
2019/09/21 20:56:00 BASE 7.88 319 9.36 320 -12.8 100 -12.8 32 0 981.9 NA 0.0000 9999 750 0 0 0
2019/09/21 20:57:00 BASE 7.44 313 9.36 320 -12.8 100 -12.8 28 0 982.0 NA 0.0000 9999 820 0 0 0
2019/09/21 20:58:00 BASE 6.27 312 9.36 320 -12.8 100 -12.8 26 0 982.1 NA 0.0000 9999 790 0 0 0
2019/09/21 20:59:00 BASE 6.47 316 9.36 320 -12.8 100 -12.8 24 0 982.1 NA 0.0000 9999 820 0 0 0
2019/09/21 21:00:00 BASE 7.08 314 9.36 320 -12.8 100 -12.8 23 0 982.1 NA 0.0000 9999 820 0 0 0
2019/09/21 21:01:00 BASE 6.75 308 9.36 320 -12.8 100 -12.8 23 0 982.1 NA 0.0000 9999 790 0 0 0
2019/09/21 21:02:00 BASE 5.90 305 9.36 320 -12.7 100 -12.7 22 0 982.1 NA 0.0000 9999 890 0 0 0
2019/09/21 21:03:00 BASE 5.93 311 9.36 320 -12.7 100 -12.7 22 0 982.1 NA 0.0000 9999 890 0 0 0
2019/09/21 21:04:00 BASE 6.36 321 9.36 320 -12.8 100 -12.8 21 0 982.1 NA 0.0000 9999 850 0 0 0
2019/09/21 21:05:00 BASE 6.99 326 9.36 320 -12.8 100 -12.8 22 0 982.1 NA 0.0000 9999 820 0 0 0
2019/09/21 21:06:00 BASE 7.81 328 8.64 330 -12.8 100 -12.8 22 0 982.1 NA 0.0000 9999 890 0 0 0
2019/09/21 21:07:00 BASE 7.99 328 8.64 330 -12.8 100 -12.8 22 0 982.1 NA 0.0000 9999 920 0 0 0
2019/09/21 21:08:00 BASE 7.70 329 8.64 330 -12.8 100 -12.8 22 0 982.1 NA 0.0000 9999 820 0 0 0
2019/09/21 21:09:00 BASE 7.20 330 8.64 330 -12.8 100 -12.8 22 0 982.1 NA 0.0000 9999 890 0 0 0
2019/09/21 21:10:00 BASE 6.79 328 8.64 330 -12.8 100 -12.8 22 0 982.1 NA 0.0000 9999 950 0 0 0
2019/09/21 21:11:00 BASE 6.85 328 8.64 330 -12.8 100 -12.8 23 0 982.2 NA 0.0000 9999 920 0 0 0
2019/09/21 21:12:00 BASE 7.63 326 9.52 306 -12.8 100 -12.8 23 0 982.1 NA 0.0000 9999 890 0 0 0
2019/09/21 21:13:00 BASE 8.52 320 9.67 323 -12.8 100 -12.8 23 0 982.1 NA 0.0000 9999 920 0 0 0
2019/09/21 21:14:00 BASE 8.22 322 9.67 323 -12.8 100 -12.8 24 0 982.1 NA 0.0000 9999 920 0 0 0
2019/09/21 21:15:00 BASE 7.46 330 9.67 323 -12.8 100 -12.8 25 0 982.1 NA 0.0000 9999 980 0 0 0
2019/09/21 21:16:00 BASE 6.67 331 9.67 323 -12.8 100 -12.8 27 0 982.2 NA 0.0000 9999 980 0 0 0
2019/09/21 21:17:00 BASE 6.44 329 9.67 323 -12.8 100 -12.8 28 0 982.2 NA 0.0000 9999 950 0 0 0
2019/09/21 21:18:00 BASE 6.82 330 9.67 323 -12.8 100 -12.8 27 0 982.2 NA 0.0000 9999 950 0 0 0
2019/09/21 21:19:00 BASE 7.28 330 9.67 323 -12.8 100 -12.8 26 0 982.2 NA 0.0000 9999 980 0 0 0
2019/09/21 21:20:00 BASE 7.44 320 9.67 323 -12.8 100 -12.8 28 0 982.2 NA 0.0000 9999 1050 0 0 0
2019/09/21 21:21:00 BASE 6.69 312 9.67 323 -12.8 100 -12.8 29 0 982.2 NA 0.0000 9999 1020 0 0 0
2019/09/21 21:22:00 BASE 6.57 321 9.67 323 -12.8 100 -12.8 31 0 982.3 NA 0.0000 9999 1020 0 0 0
2019/09/21 21:23:00 BASE 6.68 326 8.44 335 -12.8 100 -12.8 32 0 982.3 NA 0.0000 9999 950 0 0 0
2019/09/21 21:24:00 BASE 6.70 326 8.44 335 -12.8 100 -12.8 32 0 982.3 NA 0.0000 9999 920 0 0 0
2019/09/21 21:25:00 BASE 7.11 327 8.28 328 -12.8 100 -12.8 33 0 982.3 NA 0.0000 9999 950 0 0 0
2019/09/21 21:26:00 BASE 7.25 329 8.28 328 -12.8 100 -12.8 33 0 982.3 NA 0.0000 9999 950 0 0 0
2019/09/21 21:27:00 BASE 7.30 327 8.28 328 -12.8 100 -12.8 32 0 982.3 NA 0.0000 9999 980 0 0 0
2019/09/21 21:28:00 BASE 7.37 324 8.28 328 -12.7 100 -12.7 32 0 982.3 NA 0.0000 9999 980 0 0 0
2019/09/21 21:29:00 BASE 7.24 322 9.47 316 -12.7 100 -12.7 32 0 982.3 NA 0.0000 9999 980 0 0 0
2019/09/21 21:30:00 BASE 7.37 314 9.72 324 -12.7 100 -12.7 30 0 982.3 NA 0.0000 9999 950 0 0 0
2019/09/21 21:31:00 BASE 7.28 296 9.72 324 -12.7 100 -12.7 30 0 982.4 NA 0.0000 9999 950 0 0 0
2019/09/21 21:32:00 BASE 7.18 289 9.72 324 -12.7 100 -12.7 29 0 982.4 NA 0.0000 9999 920 0 0 0
2019/09/21 21:33:00 BASE 7.31 294 9.72 324 -12.7 100 -12.7 28 0 982.4 NA 0.0000 9999 950 0 0 0
2019/09/21 21:34:00 BASE 7.41 302 9.72 324 -12.7 100 -12.7 26 0 982.4 NA 0.0000 9999 950 0 0 0
2019/09/21 21:35:00 BASE 8.27 306 9.72 324 -12.7 100 -12.7 25 0 982.4 NA 0.0000 9999 950 0 0 0
2019/09/21 21:36:00 BASE 8.08 308 9.72 324 -12.7 100 -12.7 24 0 982.4 NA 0.0000 9999 950 0 0 0
2019/09/21 21:37:00 BASE 7.19 313 9.72 324 -12.7 100 -12.7 23 0 982.4 NA 0.0000 9999 920 0 0 0
2019/09/21 21:38:00 BASE 7.51 307 9.72 324 -12.7 100 -12.7 21 0 982.4 NA 0.0000 9999 1020 0 0 0
2019/09/21 21:39:00 BASE 7.79 303 9.72 324 -12.8 100 -12.8 21 0 982.4 NA 0.0000 9999 980 0 0 0
2019/09/21 21:40:00 BASE 7.11 309 9.31 307 -12.8 100 -12.8 20 0 982.4 NA 0.0000 9999 950 0 0 0
2019/09/21 21:41:00 BASE 6.27 314 9.31 307 -12.8 100 -12.8 19 0 982.4 NA 0.0000 9999 950 0 0 0
2019/09/21 21:42:00 BASE 5.80 315 9.31 307 -12.8 100 -12.8 19 0 982.4 NA 0.0000 9999 980 0 0 0
2019/09/21 21:43:00 BASE 5.25 313 9.31 307 -12.8 100 -12.8 18 0 982.4 NA 0.0000 9999 1020 0 0 0
2019/09/21 21:44:00 BASE 4.76 306 9.31 307 -12.8 100 -12.8 17 0 982.4 NA 0.0000 9999 980 0 0 0
2019/09/21 21:45:00 BASE 4.89 306 9.05 300 -12.9 100 -12.9 17 0 982.4 NA 0.0000 9999 1050 0 0 0
2019/09/21 21:46:00 BASE 5.22 313 9.05 300 -12.9 100 -12.9 16 0 982.4 NA 0.0000 9999 1080 0 0 0
2019/09/21 21:47:00 BASE 5.39 317 9.05 300 -12.9 100 -12.9 16 0 982.4 NA 0.0000 9999 1020 0 0 0
2019/09/21 21:48:00 BASE 5.52 317 8.75 298 -12.9 100 -12.9 16 0 982.4 NA 0.0000 9999 1080 0 0 0
2019/09/21 21:49:00 BASE 5.31 318 7.41 313 -12.9 100 -12.9 15 0 982.4 NA 0.0000 9999 1080 0 0 0
2019/09/21 21:50:00 BASE 5.12 320 7.41 313 -12.9 100 -12.9 15 0 982.4 NA 0.0000 9999 1050 0 0 0
2019/09/21 21:51:00 BASE 5.09 320 6.33 311 -12.9 100 -12.9 15 0 982.4 NA 0.0000 9999 1020 0 0 0
2019/09/21 21:52:00 BASE 4.94 320 6.33 311 -12.9 100 -12.9 14 0 982.4 NA 0.0000 9999 980 0 0 0
2019/09/21 21:53:00 BASE 4.59 315 6.02 324 -12.9 100 -12.9 14 0 982.4 NA 0.0000 9999 1020 0 0 0
2019/09/21 21:54:00 BASE 4.66 309 6.02 324 -12.9 100 -12.9 14 0 982.4 NA 0.0000 9999 1020 0 0 0
2019/09/21 21:55:00 BASE 4.98 307 6.02 324 -12.9 100 -12.9 14 0 982.4 NA 0.0000 9999 980 0 0 0
2019/09/21 21:56:00 BASE 5.48 306 6.33 300 -12.9 100 -12.9 13 0 982.4 NA 0.0000 9999 980 0 0 0
2019/09/21 21:57:00 BASE 5.71 303 6.33 300 -12.9 100 -12.9 13 0 982.4 NA 0.0000 9999 980 0 0 0
2019/09/21 21:58:00 BASE 5.48 303 6.33 300 -12.9 100 -12.9 13 0 982.4 NA 0.0000 9999 950 0 0 0
2019/09/21 21:59:00 BASE 5.41 302 6.33 300 -12.9 100 -12.9 12 0 982.4 NA 0.0000 9999 1020 0 0 0
2019/09/21 22:00:00 BASE 5.66 299 6.33 300 -12.9 100 -12.9 12 0 982.4 NA 0.0000 9999 1020 0 0 0
2019/09/21 22:01:00 BASE 6.12 297 6.64 297 -12.9 100 -12.9 11 0 982.5 NA 0.0000 9999 1020 0 0 0
2019/09/21 22:02:00 BASE 6.33 297 7.05 294 -13.0 100 -13.0 10 0 982.5 NA 0.0000 9999 1120 0 0 0
2019/09/21 22:03:00 BASE 6.68 295 7.41 293 -13.0 100 -13.0 9 0 982.6 NA 0.0000 9999 1120 1940 0 0
2019/09/21 22:04:00 BASE 7.49 296 8.54 301 -13.0 100 -13.0 9 0 982.6 NA 0.0000 9999 1120 1870 0 0
2019/09/21 22:05:00 BASE 7.83 299 8.54 301 -13.1 100 -13.1 8 0 982.6 NA 0.0000 9999 1150 1970 0 0
2019/09/21 22:06:00 BASE 8.04 296 9.11 292 -13.1 100 -13.1 7 0 982.6 NA 0.0000 9999 1120 1900 0 0
2019/09/21 22:07:00 BASE 8.21 295 9.11 292 -13.1 100 -13.1 6 0 982.6 NA 0.0000 9999 1050 1870 0 0
2019/09/21 22:08:00 BASE 7.67 297 9.11 292 -13.1 100 -13.1 6 0 982.7 NA 0.0000 9999 1050 1870 0 0
2019/09/21 22:09:00 BASE 7.29 303 9.11 292 -13.1 100 -13.1 5 0 982.7 NA 0.0000 9999 1120 1800 0 0
2019/09/21 22:10:00 BASE 6.83 307 9.11 292 -13.0 100 -13.0 5 0 982.7 NA 0.0000 9999 1150 0 0 0
2019/09/21 22:11:00 BASE 6.42 305 9.11 292 -13.0 100 -13.0 4 0 982.7 NA 0.0000 9999 1180 0 0 0
2019/09/21 22:12:00 BASE 6.33 304 9.11 292 -13.0 100 -13.1 4 0 982.7 NA 0.0000 9999 1210 0 0 0
2019/09/21 22:13:00 BASE 6.08 306 9.11 292 -13.0 99 -13.1 3 0 982.7 NA 0.0000 9999 1210 0 0 0
2019/09/21 22:14:00 BASE 6.01 309 9.11 292 -13.1 99 -13.1 3 0 982.7 NA 0.0000 9999 1210 0 0 0
2019/09/21 22:15:00 BASE 5.91 316 9.11 292 -13.1 99 -13.2 3 0 982.6 NA 0.0000 9999 1210 0 0 0
2019/09/21 22:16:00 BASE 6.73 319 8.49 293 -13.1 99 -13.2 2 0 982.6 NA 0.0000 9999 1180 0 0 0
2019/09/21 22:17:00 BASE 7.15 318 8.08 321 -13.1 99 -13.2 2 0 982.6 NA 0.0000 9999 1180 0 0 0
2019/09/21 22:18:00 BASE 6.67 318 8.08 321 -13.1 99 -13.2 2 0 982.6 NA 0.0000 9999 1280 0 0 0
2019/09/21 22:19:00 BASE 6.39 317 8.08 321 -13.0 99 -13.2 2 0 982.6 NA 0.0000 9999 1120 1710 0 0
2019/09/21 22:20:00 BASE 6.05 311 8.08 321 -13.0 99 -13.1 2 0 982.7 NA 0.0000 9999 1150 0 0 0
2019/09/21 22:21:00 BASE 6.01 304 8.08 321 -12.9 99 -13.1 2 0 982.7 NA 0.0000 9999 1250 1840 0 0
2019/09/21 22:22:00 BASE 5.90 301 8.08 321 -12.9 99 -13.1 2 0 982.7 NA 0.0000 9999 1150 1770 0 0
2019/09/21 22:23:00 BASE 5.73 300 8.08 321 -12.9 99 -13.1 1 0 982.7 NA 0.0000 9999 1150 0 0 0
2019/09/21 22:24:00 BASE 5.92 297 8.08 321 -13.0 99 -13.1 1 0 982.7 NA 0.0000 9999 1150 0 0 0
2019/09/21 22:25:00 BASE 6.60 295 8.08 321 -13.0 99 -13.2 1 0 982.7 NA 0.0000 9999 1150 1870 0 0
2019/09/21 22:26:00 BASE 6.68 291 7.77 285 -13.0 98 -13.2 1 0 982.7 NA 0.0000 9999 1150 1870 0 0
2019/09/21 22:27:00 BASE 6.70 290 7.87 300 -13.0 98 -13.2 1 0 982.7 NA 0.0000 9999 1120 2070 0 0
2019/09/21 22:28:00 BASE 7.13 295 7.97 296 -13.0 98 -13.2 1 0 982.7 NA 0.0000 9999 1120 0 0 0
2019/09/21 22:29:00 BASE 7.38 294 8.49 293 -13.0 98 -13.2 1 0 982.7 NA 0.0000 9999 1080 0 0 0
2019/09/21 22:30:00 BASE 6.79 288 8.49 293 -13.0 98 -13.2 1 0 982.8 NA 0.0000 9999 1050 0 0 0
2019/09/21 22:31:00 BASE 6.24 289 8.49 293 -13.0 98 -13.3 0 0 982.8 NA 0.0000 9999 1020 0 0 0
2019/09/21 22:32:00 BASE 6.75 292 8.49 293 -13.0 98 -13.3 0 0 982.9 NA 0.0000 9999 950 0 0 0
2019/09/21 22:33:00 BASE 7.16 290 8.49 293 -13.0 98 -13.3 0 0 982.9 NA 0.0000 9999 950 0 0 0
2019/09/21 22:34:00 BASE 7.24 291 8.49 293 -13.0 98 -13.3 0 0 982.9 NA 0.0000 9999 1020 0 0 0
2019/09/21 22:35:01 BASE 7.18 295 8.49 293 -13.1 98 -13.3 0 0 982.9 NA 0.0000 9999 980 0 0 0
2019/09/21 22:36:00 BASE 7.75 294 8.75 293 -13.1 98 -13.3 0 0 982.9 NA 0.0000 9999 950 0 0 0
2019/09/21 22:37:00 BASE 8.15 293 8.75 293 -13.1 98 -13.3 0 0 982.9 NA 0.0000 9999 950 0 0 0
2019/09/21 22:38:00 BASE 8.03 294 8.75 293 -13.1 98 -13.3 0 0 982.9 NA 0.0000 9999 920 0 0 0
2019/09/21 22:39:00 BASE 7.83 292 8.75 293 -13.1 98 -13.3 0 0 982.9 NA 0.0000 9999 920 0 0 0
2019/09/21 22:40:00 BASE 7.54 293 8.75 293 -13.1 98 -13.3 0 0 982.9 NA 0.0000 9999 890 0 0 0
2019/09/21 22:41:00 BASE 7.62 295 8.75 293 -13.1 98 -13.3 0 0 983.0 NA 0.0000 9999 950 0 0 0
2019/09/21 22:42:00 BASE 8.07 296 9.05 294 -13.1 98 -13.3 0 0 983.1 NA 0.0000 9999 980 0 0 0
2019/09/21 22:43:00 BASE 8.13 294 9.05 294 -13.1 98 -13.3 0 0 983.1 NA 0.0000 9999 1020 0 0 0
2019/09/21 22:44:00 BASE 7.73 292 9.05 294 -13.1 98 -13.3 0 0 983.0 NA 0.0000 9999 1050 0 0 0
2019/09/21 22:45:00 BASE 7.50 289 9.05 294 -13.1 98 -13.3 0 0 982.9 NA 0.0000 9999 1020 0 0 0
2019/09/21 22:46:00 BASE 7.33 291 9.05 294 -13.1 98 -13.3 0 0 982.9 NA 0.0000 9999 980 0 0 0
2019/09/21 22:47:00 BASE 7.23 297 9.05 294 -13.1 98 -13.3 0 0 982.9 NA 0.0000 9999 920 0 0 0
2019/09/21 22:48:00 BASE 7.20 299 9.05 294 -13.1 98 -13.3 0 0 982.9 NA 0.0000 9999 980 0 0 0
2019/09/21 22:49:00 BASE 7.14 300 9.05 294 -13.1 98 -13.4 0 0 982.9 NA 0.0000 9999 980 0 0 0
2019/09/21 22:50:00 BASE 6.71 301 9.05 294 -13.1 98 -13.4 0 0 982.8 NA 0.0000 9999 950 0 0 0
2019/09/21 22:51:00 BASE 6.29 301 9.05 294 -13.2 98 -13.4 0 0 982.8 NA 0.0000 9999 920 0 0 0
2019/09/21 22:52:00 BASE 6.17 301 8.59 290 -13.2 98 -13.4 0 0 982.8 NA 0.0000 9999 980 0 0 0
2019/09/21 22:53:00 BASE 5.82 299 8.28 293 -13.2 98 -13.5 0 0 982.7 NA 0.0000 9999 980 0 0 0
2019/09/21 22:54:00 BASE 5.61 295 7.97 294 -13.2 98 -13.5 0 0 982.7 NA 0.0000 9999 980 0 0 0
2019/09/21 22:55:00 BASE 5.53 293 7.92 295 -13.3 98 -13.5 0 0 982.6 NA 0.0000 9999 980 0 0 0
2019/09/21 22:56:00 BASE 5.86 292 7.92 295 -13.3 98 -13.5 0 0 982.6 NA 0.0000 9999 980 0 0 0
2019/09/21 22:57:00 BASE 6.22 291 7.61 304 -13.3 98 -13.5 0 0 982.6 NA 0.0000 9999 1050 0 0 0
2019/09/21 22:58:00 BASE 6.11 292 7.61 304 -13.3 98 -13.6 0 0 982.6 NA 0.0000 9999 1050 0 0 0
2019/09/21 22:59:00 BASE 5.93 293 7.46 295 -13.3 98 -13.6 0 0 982.6 NA 0.0000 9999 1050 0 0 0
2019/09/21 23:00:00 BASE 5.58 297 6.89 284 -13.4 98 -13.6 0 0 982.6 NA 0.0000 9999 1080 0 0 0
2019/09/21 23:01:00 BASE 5.68 302 6.89 284 -13.4 98 -13.7 0 0 982.6 NA 0.0000 9999 1050 0 0 0
2019/09/21 23:02:00 BASE 5.94 301 6.89 284 -13.5 98 -13.8 0 0 982.6 NA 0.0000 9999 1050 0 0 0
2019/09/21 23:03:00 BASE 5.86 299 6.89 284 -13.6 98 -13.8 0 0 982.7 NA 0.0000 9999 1050 0 0 0
2019/09/21 23:04:00 BASE 6.12 297 7.41 300 -13.7 98 -13.9 0 0 982.7 NA 0.0000 9999 1080 0 0 0
2019/09/21 23:05:00 BASE 6.82 298 7.51 301 -13.7 98 -14.0 0 0 982.7 NA 0.0000 9999 1050 0 0 0
2019/09/21 23:06:00 BASE 7.00 299 7.51 301 -13.7 98 -14.0 0 0 982.7 NA 0.0000 9999 980 0 0 0
2019/09/21 23:07:00 BASE 6.97 297 7.51 296 -13.7 98 -14.0 0 0 982.7 NA 0.0000 9999 920 0 0 0
2019/09/21 23:08:00 BASE 7.39 294 7.92 292 -13.8 98 -14.0 0 0 982.7 NA 0.0000 9999 950 0 0 0
2019/09/21 23:09:00 BASE 7.69 292 7.92 292 -13.8 98 -14.0 0 0 982.7 NA 0.0000 9999 950 0 0 0
2019/09/21 23:10:00 BASE 7.77 292 7.97 294 -13.8 98 -14.0 0 0 982.7 NA 0.0000 9999 1020 0 0 0
2019/09/21 23:11:00 BASE 7.93 293 8.18 294 -13.8 98 -14.0 0 0 982.8 NA 0.0000 9999 1020 0 0 0
2019/09/21 23:12:00 BASE 8.13 293 8.39 294 -13.8 98 -14.0 0 0 982.8 NA 0.0000 9999 1080 0 0 0
2019/09/21 23:13:00 BASE 8.10 294 8.39 295 -13.7 98 -14.0 0 0 982.8 NA 0.0000 9999 1020 0 0 0
2019/09/21 23:14:00 BASE 7.61 294 8.39 295 -13.7 98 -14.0 0 0 982.7 NA 0.0000 9999 980 0 0 0
2019/09/21 23:15:00 BASE 6.90 294 8.39 295 -13.7 98 -14.0 0 0 982.7 NA 0.0000 9999 1050 0 0 0
2019/09/21 23:16:00 BASE 6.49 295 8.39 295 -13.7 98 -14.0 0 0 982.7 NA 0.0000 9999 890 0 0 0
2019/09/21 23:17:00 BASE 6.23 296 8.39 295 -13.7 98 -14.0 0 0 982.7 NA 0.0000 9999 1020 0 0 0
2019/09/21 23:18:00 BASE 6.10 297 8.39 295 -13.7 98 -14.0 0 0 982.7 NA 0.0000 9999 950 0 0 0
2019/09/21 23:19:00 BASE 6.20 297 8.39 295 -13.8 98 -14.0 0 0 982.6 NA 0.0000 9999 950 0 0 0
2019/09/21 23:20:00 BASE 6.02 298 8.39 295 -13.8 98 -14.0 0 0 982.6 NA 0.0000 9999 980 0 0 0
2019/09/21 23:21:00 BASE 5.78 300 8.39 295 -13.8 98 -14.1 0 0 982.7 NA 0.0000 9999 720 0 0 0
2019/09/21 23:22:00 BASE 5.94 301 8.39 295 -13.9 98 -14.1 0 0 982.7 NA 0.0000 9999 720 0 0 0
2019/09/21 23:23:00 BASE 6.10 301 7.46 293 -13.9 98 -14.2 0 0 982.7 NA 0.0000 9999 790 0 0 0
2019/09/21 23:24:00 BASE 5.96 301 7.10 293 -14.0 97 -14.3 0 0 982.7 NA 0.0000 9999 890 0 0 0
2019/09/21 23:25:00 BASE 6.21 300 7.25 298 -14.1 97 -14.4 0 0 982.8 NA 0.0000 9999 890 0 0 0
2019/09/21 23:26:00 BASE 6.71 299 7.25 298 -14.2 97 -14.6 0 0 982.8 NA 0.0000 9999 820 0 0 0
2019/09/21 23:27:00 BASE 6.58 300 7.25 298 -14.3 97 -14.7 0 0 982.8 NA 0.0000 9999 690 0 0 0
2019/09/21 23:28:00 BASE 6.06 298 7.25 298 -14.4 97 -14.8 0 0 982.8 NA 0.0000 9999 920 0 0 0
2019/09/21 23:29:00 BASE 5.72 297 7.25 298 -14.4 97 -14.8 0 0 982.8 NA 0.0000 9999 720 0 0 0
2019/09/21 23:30:00 BASE 5.59 298 7.25 298 -14.4 97 -14.8 0 0 982.8 NA 0.0000 9999 950 0 0 0
2019/09/21 23:31:00 BASE 5.27 303 7.25 298 -14.4 97 -14.7 0 0 982.8 NA 0.0000 9999 590 0 0 0
2019/09/21 23:32:00 BASE 5.08 325 7.25 298 -14.4 97 -14.7 0 0 982.8 NA 0.0000 9999 820 0 0 0
2019/09/21 23:33:00 BASE 5.61 340 7.25 298 -14.4 97 -14.8 0 0 982.8 NA 0.0000 9999 820 0 0 0
2019/09/21 23:34:00 BASE 6.07 336 7.25 298 -14.3 97 -14.7 0 0 982.8 NA 0.0000 9999 890 0 0 0
2019/09/21 23:35:00 BASE 5.73 334 7.15 299 -14.3 97 -14.6 0 0 982.8 NA 0.0000 9999 720 0 0 0
2019/09/21 23:36:00 BASE 5.23 331 6.89 301 -14.2 98 -14.5 0 0 982.9 NA 0.0000 9999 560 0 0 0
2019/09/21 23:37:00 BASE 5.02 330 6.69 331 -14.1 98 -14.4 0 0 982.9 NA 0.0000 9999 520 980 0 0
2019/09/21 23:38:00 BASE 4.94 330 6.69 331 -14.0 98 -14.3 0 0 982.9 NA 0.0000 9999 460 0 0 0
2019/09/21 23:39:00 BASE 5.05 330 6.69 331 -14.0 98 -14.3 0 0 982.8 NA 0.0000 9999 950 0 0 0
2019/09/21 23:40:00 BASE 5.38 332 6.69 331 -14.0 98 -14.3 0 0 982.8 NA 0.0000 9999 950 0 0 0
2019/09/21 23:41:00 BASE 5.20 327 6.69 331 -14.0 98 -14.2 0 0 982.9 NA 0.0000 9999 980 0 0 0
2019/09/21 23:42:00 BASE 5.20 321 6.84 314 -14.0 98 -14.2 0 0 982.8 NA 0.0000 9999 720 0 0 0
2019/09/21 23:43:00 BASE 6.00 312 7.25 302 -13.9 98 -14.2 0 0 982.8 NA 0.0000 9999 660 0 0 0
2019/09/21 23:44:00 BASE 6.52 304 7.25 302 -13.9 98 -14.1 0 0 982.8 NA 0.0000 9999 330 980 0 0
2019/09/21 23:45:00 BASE 6.65 306 7.25 302 -13.8 98 -14.0 0 0 982.8 NA 0.0000 9999 330 0 0 0
2019/09/21 23:46:00 BASE 6.36 317 7.25 302 -13.8 99 -14.0 0 0 982.8 NA 0.0000 9999 300 0 0 0
2019/09/21 23:47:00 BASE 5.76 332 7.25 302 -13.8 99 -13.9 0 0 982.8 NA 0.0000 9999 330 0 0 0
2019/09/21 23:48:00 BASE 5.20 339 7.25 302 -13.7 99 -13.9 0 0 982.8 NA 0.0000 9999 330 0 0 0
2019/09/21 23:49:00 BASE 4.65 338 7.25 302 -13.8 98 -14.0 0 0 982.8 NA 0.0000 9999 300 0 0 0
2019/09/21 23:50:00 BASE 4.72 337 7.25 302 -13.8 98 -14.0 0 0 982.8 NA 0.0000 9999 360 980 0 0
2019/09/21 23:51:00 BASE 5.58 344 7.25 302 -13.9 98 -14.1 0 0 982.7 NA 0.0000 9999 330 0 0 0
2019/09/21 23:52:00 BASE 6.64 354 7.72 4 -13.9 98 -14.1 0 0 982.7 NA 0.0000 9999 0 0 0 1250
2019/09/21 23:53:00 BASE 6.98 355 7.72 4 -13.9 98 -14.1 0 0 982.8 NA 0.0000 9999 360 0 0 0
2019/09/21 23:54:00 BASE 7.06 349 7.92 348 -13.8 99 -14.0 0 0 982.8 NA 0.0000 9999 260 0 0 0
2019/09/21 23:55:00 BASE 7.07 345 7.92 348 -13.7 99 -13.9 0 0 982.8 NA 0.0000 9999 260 0 0 0
2019/09/21 23:56:00 BASE 6.42 352 7.92 348 -13.7 99 -13.8 0 0 982.8 NA 0.0000 9999 330 0 0 0
2019/09/21 23:57:00 BASE 6.01 355 7.92 348 -13.7 99 -13.8 0 0 982.8 NA 0.0000 9999 360 0 0 0
2019/09/21 23:58:00 BASE 6.39 359 7.92 348 -13.8 99 -13.9 0 0 982.8 NA 0.0000 9999 300 0 0 0
2019/09/21 23:59:00 BASE 6.60 0 7.92 348 -13.9 99 -14.0 0 0 982.8 NA 0.0000 9999 330 0 0 0